<?xml version='1.0' encoding='UTF-8'?>
<gpx version="1.1" creator="https://www.komoot.de" xmlns="http://www.topografix.com/GPX/1/1" xmlns:xsi="http://www.w3.org/2001/XMLSchema-instance" xsi:schemaLocation="http://www.topografix.com/GPX/1/1 http://www.topografix.com/GPX/1/1/gpx.xsd">
  <metadata>
    <name>63_850TegernauSchlaechtehu</name>
    <author>
      <link href="https://www.komoot.de">
        <text>komoot</text>
        <type>text/html</type>
      </link>
    </author>
  </metadata>
  <trk>
    <name>63_850TegernauSchlaechtehu</name>
    <trkseg>
      <trkpt lat="47.541277" lon="7.870901">
        <ele>339.208474</ele>
        <time>2021-11-17T22:08:55.701Z</time>
      </trkpt>
      <trkpt lat="47.541410" lon="7.870791">
        <ele>339.208474</ele>
        <time>2021-11-17T22:08:58.126Z</time>
      </trkpt>
      <trkpt lat="47.541576" lon="7.870664">
        <ele>339.208474</ele>
        <time>2021-11-17T22:09:00.565Z</time>
      </trkpt>
      <trkpt lat="47.541550" lon="7.870601">
        <ele>339.208474</ele>
        <time>2021-11-17T22:09:01.366Z</time>
      </trkpt>
      <trkpt lat="47.541521" lon="7.870517">
        <ele>339.208474</ele>
        <time>2021-11-17T22:09:02.401Z</time>
      </trkpt>
      <trkpt lat="47.541606" lon="7.870424">
        <ele>339.208474</ele>
        <time>2021-11-17T22:09:04.060Z</time>
      </trkpt>
      <trkpt lat="47.541910" lon="7.870106">
        <ele>339.180189</ele>
        <time>2021-11-17T22:09:09.722Z</time>
      </trkpt>
      <trkpt lat="47.542014" lon="7.870126">
        <ele>339.085102</ele>
        <time>2021-11-17T22:09:11.194Z</time>
      </trkpt>
      <trkpt lat="47.542118" lon="7.870135">
        <ele>338.990646</ele>
        <time>2021-11-17T22:09:12.916Z</time>
      </trkpt>
      <trkpt lat="47.542181" lon="7.870131">
        <ele>338.933472</ele>
        <time>2021-11-17T22:09:13.788Z</time>
      </trkpt>
      <trkpt lat="47.542317" lon="7.870012">
        <ele>338.790258</ele>
        <time>2021-11-17T22:09:15.907Z</time>
      </trkpt>
      <trkpt lat="47.542348" lon="7.869983">
        <ele>338.757015</ele>
        <time>2021-11-17T22:09:16.346Z</time>
      </trkpt>
      <trkpt lat="47.542329" lon="7.869820">
        <ele>338.655774</ele>
        <time>2021-11-17T22:09:18.107Z</time>
      </trkpt>
      <trkpt lat="47.542372" lon="7.869746">
        <ele>338.596013</ele>
        <time>2021-11-17T22:09:18.922Z</time>
      </trkpt>
      <trkpt lat="47.542657" lon="7.869354">
        <ele>338.243397</ele>
        <time>2021-11-17T22:09:23.723Z</time>
      </trkpt>
      <trkpt lat="47.542696" lon="7.869257">
        <ele>338.174295</ele>
        <time>2021-11-17T22:09:24.658Z</time>
      </trkpt>
      <trkpt lat="47.542722" lon="7.869201">
        <ele>338.132695</ele>
        <time>2021-11-17T22:09:25.249Z</time>
      </trkpt>
      <trkpt lat="47.543049" lon="7.868759">
        <ele>337.731336</ele>
        <time>2021-11-17T22:09:30.162Z</time>
      </trkpt>
      <trkpt lat="47.543105" lon="7.868711">
        <ele>337.672675</ele>
        <time>2021-11-17T22:09:30.900Z</time>
      </trkpt>
      <trkpt lat="47.543201" lon="7.868657">
        <ele>337.579569</ele>
        <time>2021-11-17T22:09:31.979Z</time>
      </trkpt>
      <trkpt lat="47.543657" lon="7.868359">
        <ele>336.906447</ele>
        <time>2021-11-17T22:09:37.774Z</time>
      </trkpt>
      <trkpt lat="47.543801" lon="7.868269">
        <ele>336.695071</ele>
        <time>2021-11-17T22:09:40.254Z</time>
      </trkpt>
      <trkpt lat="47.544214" lon="7.867988">
        <ele>336.080415</ele>
        <time>2021-11-17T22:09:47.870Z</time>
      </trkpt>
      <trkpt lat="47.544246" lon="7.867967">
        <ele>336.033080</ele>
        <time>2021-11-17T22:09:48.467Z</time>
      </trkpt>
      <trkpt lat="47.544410" lon="7.867825">
        <ele>335.776172</ele>
        <time>2021-11-17T22:09:51.720Z</time>
      </trkpt>
      <trkpt lat="47.544469" lon="7.867776">
        <ele>335.684694</ele>
        <time>2021-11-17T22:09:52.742Z</time>
      </trkpt>
      <trkpt lat="47.544568" lon="7.867693">
        <ele>335.530847</ele>
        <time>2021-11-17T22:09:54.669Z</time>
      </trkpt>
      <trkpt lat="47.545003" lon="7.867278">
        <ele>335.269760</ele>
        <time>2021-11-17T22:10:03.517Z</time>
      </trkpt>
      <trkpt lat="47.545160" lon="7.866985">
        <ele>335.405363</ele>
        <time>2021-11-17T22:10:08.168Z</time>
      </trkpt>
      <trkpt lat="47.545240" lon="7.866887">
        <ele>335.461108</ele>
        <time>2021-11-17T22:10:10.441Z</time>
      </trkpt>
      <trkpt lat="47.546096" lon="7.866147">
        <ele>335.993322</ele>
        <time>2021-11-17T22:10:35.511Z</time>
      </trkpt>
      <trkpt lat="47.546327" lon="7.865959">
        <ele>336.120837</ele>
        <time>2021-11-17T22:10:41.932Z</time>
      </trkpt>
      <trkpt lat="47.546510" lon="7.865766">
        <ele>336.170678</ele>
        <time>2021-11-17T22:10:48.318Z</time>
      </trkpt>
      <trkpt lat="47.546819" lon="7.865489">
        <ele>336.250813</ele>
        <time>2021-11-17T22:10:56.471Z</time>
      </trkpt>
      <trkpt lat="47.546889" lon="7.865225">
        <ele>336.293293</ele>
        <time>2021-11-17T22:11:00.258Z</time>
      </trkpt>
      <trkpt lat="47.546894" lon="7.864837">
        <ele>336.351413</ele>
        <time>2021-11-17T22:11:05.435Z</time>
      </trkpt>
      <trkpt lat="47.546885" lon="7.864500">
        <ele>336.401923</ele>
        <time>2021-11-17T22:11:11.074Z</time>
      </trkpt>
      <trkpt lat="47.546974" lon="7.864423">
        <ele>336.424791</ele>
        <time>2021-11-17T22:11:12.662Z</time>
      </trkpt>
      <trkpt lat="47.547320" lon="7.863864">
        <ele>336.315652</ele>
        <time>2021-11-17T22:11:22.587Z</time>
      </trkpt>
      <trkpt lat="47.547568" lon="7.863151">
        <ele>335.491411</ele>
        <time>2021-11-17T22:11:31.600Z</time>
      </trkpt>
      <trkpt lat="47.547930" lon="7.861711">
        <ele>333.912374</ele>
        <time>2021-11-17T22:11:47.974Z</time>
      </trkpt>
      <trkpt lat="47.548049" lon="7.860929">
        <ele>333.196598</ele>
        <time>2021-11-17T22:11:56.673Z</time>
      </trkpt>
      <trkpt lat="47.548334" lon="7.859801">
        <ele>332.154547</ele>
        <time>2021-11-17T22:12:10.155Z</time>
      </trkpt>
      <trkpt lat="47.548611" lon="7.858381">
        <ele>331.359246</ele>
        <time>2021-11-17T22:12:28.111Z</time>
      </trkpt>
      <trkpt lat="47.548686" lon="7.857973">
        <ele>331.292949</ele>
        <time>2021-11-17T22:12:33.500Z</time>
      </trkpt>
      <trkpt lat="47.548701" lon="7.857893">
        <ele>331.279932</ele>
        <time>2021-11-17T22:12:34.621Z</time>
      </trkpt>
      <trkpt lat="47.548743" lon="7.857692">
        <ele>331.246943</ele>
        <time>2021-11-17T22:12:37.395Z</time>
      </trkpt>
      <trkpt lat="47.548887" lon="7.857308">
        <ele>331.178072</ele>
        <time>2021-11-17T22:12:43.428Z</time>
      </trkpt>
      <trkpt lat="47.549362" lon="7.855774">
        <ele>330.860736</ele>
        <time>2021-11-17T22:13:07.473Z</time>
      </trkpt>
      <trkpt lat="47.549566" lon="7.855225">
        <ele>330.724101</ele>
        <time>2021-11-17T22:13:16.091Z</time>
      </trkpt>
      <trkpt lat="47.549883" lon="7.854434">
        <ele>330.523537</ele>
        <time>2021-11-17T22:13:27.545Z</time>
      </trkpt>
      <trkpt lat="47.550221" lon="7.853833">
        <ele>329.617601</ele>
        <time>2021-11-17T22:13:33.938Z</time>
      </trkpt>
      <trkpt lat="47.551516" lon="7.851950">
        <ele>324.945754</ele>
        <time>2021-11-17T22:13:52.735Z</time>
      </trkpt>
      <trkpt lat="47.551660" lon="7.851725">
        <ele>324.262385</ele>
        <time>2021-11-17T22:13:54.768Z</time>
      </trkpt>
      <trkpt lat="47.551830" lon="7.851603">
        <ele>323.645582</ele>
        <time>2021-11-17T22:13:56.687Z</time>
      </trkpt>
      <trkpt lat="47.551886" lon="7.851746">
        <ele>323.281219</ele>
        <time>2021-11-17T22:13:57.767Z</time>
      </trkpt>
      <trkpt lat="47.551925" lon="7.851845">
        <ele>323.028589</ele>
        <time>2021-11-17T22:13:58.532Z</time>
      </trkpt>
      <trkpt lat="47.552042" lon="7.852007">
        <ele>322.505683</ele>
        <time>2021-11-17T22:14:00.177Z</time>
      </trkpt>
      <trkpt lat="47.552097" lon="7.852063">
        <ele>322.287769</ele>
        <time>2021-11-17T22:14:00.810Z</time>
      </trkpt>
      <trkpt lat="47.552272" lon="7.852167">
        <ele>321.672075</ele>
        <time>2021-11-17T22:14:02.713Z</time>
      </trkpt>
      <trkpt lat="47.552449" lon="7.852231">
        <ele>321.077142</ele>
        <time>2021-11-17T22:14:04.517Z</time>
      </trkpt>
      <trkpt lat="47.552678" lon="7.851709">
        <ele>319.892937</ele>
        <time>2021-11-17T22:14:08.792Z</time>
      </trkpt>
      <trkpt lat="47.552876" lon="7.851300">
        <ele>319.145200</ele>
        <time>2021-11-17T22:14:12.340Z</time>
      </trkpt>
      <trkpt lat="47.553283" lon="7.850634">
        <ele>317.810500</ele>
        <time>2021-11-17T22:14:18.998Z</time>
      </trkpt>
      <trkpt lat="47.553344" lon="7.850525">
        <ele>317.600149</ele>
        <time>2021-11-17T22:14:20.075Z</time>
      </trkpt>
      <trkpt lat="47.553380" lon="7.850453">
        <ele>317.467035</ele>
        <time>2021-11-17T22:14:20.763Z</time>
      </trkpt>
      <trkpt lat="47.553537" lon="7.849904">
        <ele>316.581279</ele>
        <time>2021-11-17T22:14:25.248Z</time>
      </trkpt>
      <trkpt lat="47.553605" lon="7.849629">
        <ele>316.210348</ele>
        <time>2021-11-17T22:14:27.539Z</time>
      </trkpt>
      <trkpt lat="47.553725" lon="7.849291">
        <ele>315.849464</ele>
        <time>2021-11-17T22:14:30.461Z</time>
      </trkpt>
      <trkpt lat="47.554055" lon="7.848586">
        <ele>315.038743</ele>
        <time>2021-11-17T22:14:37.359Z</time>
      </trkpt>
      <trkpt lat="47.554209" lon="7.848300">
        <ele>314.693019</ele>
        <time>2021-11-17T22:14:40.322Z</time>
      </trkpt>
      <trkpt lat="47.554269" lon="7.848188">
        <ele>314.557898</ele>
        <time>2021-11-17T22:14:41.401Z</time>
      </trkpt>
      <trkpt lat="47.554351" lon="7.848049">
        <ele>314.383449</ele>
        <time>2021-11-17T22:14:42.861Z</time>
      </trkpt>
      <trkpt lat="47.554465" lon="7.847858">
        <ele>314.142515</ele>
        <time>2021-11-17T22:14:44.942Z</time>
      </trkpt>
      <trkpt lat="47.554618" lon="7.847626">
        <ele>313.836008</ele>
        <time>2021-11-17T22:14:47.441Z</time>
      </trkpt>
      <trkpt lat="47.554759" lon="7.847388">
        <ele>313.558103</ele>
        <time>2021-11-17T22:14:49.858Z</time>
      </trkpt>
      <trkpt lat="47.554892" lon="7.847148">
        <ele>313.288086</ele>
        <time>2021-11-17T22:14:52.290Z</time>
      </trkpt>
      <trkpt lat="47.554995" lon="7.846915">
        <ele>313.045900</ele>
        <time>2021-11-17T22:14:54.446Z</time>
      </trkpt>
      <trkpt lat="47.555068" lon="7.846672">
        <ele>312.814625</ele>
        <time>2021-11-17T22:14:56.507Z</time>
      </trkpt>
      <trkpt lat="47.555199" lon="7.846687">
        <ele>312.645345</ele>
        <time>2021-11-17T22:14:57.988Z</time>
      </trkpt>
      <trkpt lat="47.555727" lon="7.846715">
        <ele>311.964650</ele>
        <time>2021-11-17T22:15:04.446Z</time>
      </trkpt>
      <trkpt lat="47.555855" lon="7.846815">
        <ele>311.778221</ele>
        <time>2021-11-17T22:15:06.108Z</time>
      </trkpt>
      <trkpt lat="47.555892" lon="7.846856">
        <ele>311.718696</ele>
        <time>2021-11-17T22:15:06.665Z</time>
      </trkpt>
      <trkpt lat="47.555966" lon="7.846932">
        <ele>311.602695</ele>
        <time>2021-11-17T22:15:07.815Z</time>
      </trkpt>
      <trkpt lat="47.555990" lon="7.846965">
        <ele>311.560512</ele>
        <time>2021-11-17T22:15:08.247Z</time>
      </trkpt>
      <trkpt lat="47.556060" lon="7.846859">
        <ele>311.453491</ele>
        <time>2021-11-17T22:15:09.441Z</time>
      </trkpt>
      <trkpt lat="47.556636" lon="7.845928">
        <ele>310.790849</ele>
        <time>2021-11-17T22:15:19.827Z</time>
      </trkpt>
      <trkpt lat="47.557134" lon="7.845095">
        <ele>310.207002</ele>
        <time>2021-11-17T22:15:29.646Z</time>
      </trkpt>
      <trkpt lat="47.557282" lon="7.844832">
        <ele>310.077053</ele>
        <time>2021-11-17T22:15:32.785Z</time>
      </trkpt>
      <trkpt lat="47.557560" lon="7.844433">
        <ele>310.020454</ele>
        <time>2021-11-17T22:15:37.961Z</time>
      </trkpt>
      <trkpt lat="47.557715" lon="7.843940">
        <ele>309.966779</ele>
        <time>2021-11-17T22:15:42.966Z</time>
      </trkpt>
      <trkpt lat="47.557759" lon="7.843839">
        <ele>309.954915</ele>
        <time>2021-11-17T22:15:44.145Z</time>
      </trkpt>
      <trkpt lat="47.557846" lon="7.843756">
        <ele>309.939783</ele>
        <time>2021-11-17T22:15:45.493Z</time>
      </trkpt>
      <trkpt lat="47.557967" lon="7.843683">
        <ele>309.920677</ele>
        <time>2021-11-17T22:15:47.527Z</time>
      </trkpt>
      <trkpt lat="47.558136" lon="7.843582">
        <ele>309.894028</ele>
        <time>2021-11-17T22:15:50.215Z</time>
      </trkpt>
      <trkpt lat="47.558405" lon="7.843371">
        <ele>309.849518</ele>
        <time>2021-11-17T22:15:55.080Z</time>
      </trkpt>
      <trkpt lat="47.558471" lon="7.843365">
        <ele>309.839848</ele>
        <time>2021-11-17T22:15:55.931Z</time>
      </trkpt>
      <trkpt lat="47.558555" lon="7.843392">
        <ele>309.827278</ele>
        <time>2021-11-17T22:15:57.212Z</time>
      </trkpt>
      <trkpt lat="47.558709" lon="7.843601">
        <ele>309.847865</ele>
        <time>2021-11-17T22:16:00.792Z</time>
      </trkpt>
      <trkpt lat="47.558884" lon="7.843836">
        <ele>309.874646</ele>
        <time>2021-11-17T22:16:04.491Z</time>
      </trkpt>
      <trkpt lat="47.559060" lon="7.844197">
        <ele>309.908728</ele>
        <time>2021-11-17T22:16:09.318Z</time>
      </trkpt>
      <trkpt lat="47.559109" lon="7.844229">
        <ele>309.914800</ele>
        <time>2021-11-17T22:16:10.364Z</time>
      </trkpt>
      <trkpt lat="47.559158" lon="7.844233">
        <ele>309.920365</ele>
        <time>2021-11-17T22:16:11.312Z</time>
      </trkpt>
      <trkpt lat="47.559583" lon="7.843813">
        <ele>309.978295</ele>
        <time>2021-11-17T22:16:19.293Z</time>
      </trkpt>
      <trkpt lat="47.559847" lon="7.843604">
        <ele>310.012238</ele>
        <time>2021-11-17T22:16:23.691Z</time>
      </trkpt>
      <trkpt lat="47.560139" lon="7.843433">
        <ele>309.882588</ele>
        <time>2021-11-17T22:16:27.921Z</time>
      </trkpt>
      <trkpt lat="47.560209" lon="7.843393">
        <ele>309.814429</ele>
        <time>2021-11-17T22:16:28.873Z</time>
      </trkpt>
      <trkpt lat="47.560338" lon="7.843341">
        <ele>309.692976</ele>
        <time>2021-11-17T22:16:30.539Z</time>
      </trkpt>
      <trkpt lat="47.560430" lon="7.843341">
        <ele>309.609395</ele>
        <time>2021-11-17T22:16:32.081Z</time>
      </trkpt>
      <trkpt lat="47.560515" lon="7.843379">
        <ele>309.528736</ele>
        <time>2021-11-17T22:16:33.115Z</time>
      </trkpt>
      <trkpt lat="47.560812" lon="7.843560">
        <ele>309.236989</ele>
        <time>2021-11-17T22:16:37.174Z</time>
      </trkpt>
      <trkpt lat="47.560934" lon="7.843550">
        <ele>309.125984</ele>
        <time>2021-11-17T22:16:38.697Z</time>
      </trkpt>
      <trkpt lat="47.561038" lon="7.843502">
        <ele>309.027025</ele>
        <time>2021-11-17T22:16:39.985Z</time>
      </trkpt>
      <trkpt lat="47.561434" lon="7.843181">
        <ele>308.616959</ele>
        <time>2021-11-17T22:16:45.426Z</time>
      </trkpt>
      <trkpt lat="47.561498" lon="7.843130">
        <ele>308.550943</ele>
        <time>2021-11-17T22:16:46.190Z</time>
      </trkpt>
      <trkpt lat="47.562179" lon="7.842500">
        <ele>307.598676</ele>
        <time>2021-11-17T22:16:55.449Z</time>
      </trkpt>
      <trkpt lat="47.562300" lon="7.842326">
        <ele>307.385997</ele>
        <time>2021-11-17T22:16:57.400Z</time>
      </trkpt>
      <trkpt lat="47.562385" lon="7.842183">
        <ele>307.223786</ele>
        <time>2021-11-17T22:16:58.811Z</time>
      </trkpt>
      <trkpt lat="47.562440" lon="7.842083">
        <ele>307.113974</ele>
        <time>2021-11-17T22:16:59.927Z</time>
      </trkpt>
      <trkpt lat="47.562574" lon="7.841873">
        <ele>306.867960</ele>
        <time>2021-11-17T22:17:02.325Z</time>
      </trkpt>
      <trkpt lat="47.562904" lon="7.841632">
        <ele>306.403890</ele>
        <time>2021-11-17T22:17:06.814Z</time>
      </trkpt>
      <trkpt lat="47.562965" lon="7.841597">
        <ele>306.321377</ele>
        <time>2021-11-17T22:17:07.602Z</time>
      </trkpt>
      <trkpt lat="47.563016" lon="7.841568">
        <ele>306.252472</ele>
        <time>2021-11-17T22:17:08.303Z</time>
      </trkpt>
      <trkpt lat="47.563300" lon="7.841391">
        <ele>305.909941</ele>
        <time>2021-11-17T22:17:12.041Z</time>
      </trkpt>
      <trkpt lat="47.563483" lon="7.841269">
        <ele>305.701231</ele>
        <time>2021-11-17T22:17:14.599Z</time>
      </trkpt>
      <trkpt lat="47.563659" lon="7.841150">
        <ele>305.500021</ele>
        <time>2021-11-17T22:17:16.926Z</time>
      </trkpt>
      <trkpt lat="47.563805" lon="7.841046">
        <ele>305.331535</ele>
        <time>2021-11-17T22:17:18.988Z</time>
      </trkpt>
      <trkpt lat="47.563941" lon="7.840948">
        <ele>305.174246</ele>
        <time>2021-11-17T22:17:20.840Z</time>
      </trkpt>
      <trkpt lat="47.563986" lon="7.840916">
        <ele>305.122332</ele>
        <time>2021-11-17T22:17:21.461Z</time>
      </trkpt>
      <trkpt lat="47.564094" lon="7.840838">
        <ele>304.997372</ele>
        <time>2021-11-17T22:17:22.930Z</time>
      </trkpt>
      <trkpt lat="47.564463" lon="7.840580">
        <ele>304.573006</ele>
        <time>2021-11-17T22:17:27.917Z</time>
      </trkpt>
      <trkpt lat="47.564534" lon="7.840532">
        <ele>304.491838</ele>
        <time>2021-11-17T22:17:28.824Z</time>
      </trkpt>
      <trkpt lat="47.564558" lon="7.840516">
        <ele>304.464466</ele>
        <time>2021-11-17T22:17:29.148Z</time>
      </trkpt>
      <trkpt lat="47.564936" lon="7.840261">
        <ele>304.017053</ele>
        <time>2021-11-17T22:17:34.048Z</time>
      </trkpt>
      <trkpt lat="47.565057" lon="7.840213">
        <ele>303.877764</ele>
        <time>2021-11-17T22:17:35.462Z</time>
      </trkpt>
      <trkpt lat="47.565168" lon="7.840179">
        <ele>303.751724</ele>
        <time>2021-11-17T22:17:36.803Z</time>
      </trkpt>
      <trkpt lat="47.565233" lon="7.840176">
        <ele>303.679408</ele>
        <time>2021-11-17T22:17:37.540Z</time>
      </trkpt>
      <trkpt lat="47.565343" lon="7.840185">
        <ele>303.556902</ele>
        <time>2021-11-17T22:17:38.800Z</time>
      </trkpt>
      <trkpt lat="47.565906" lon="7.840272">
        <ele>302.927452</ele>
        <time>2021-11-17T22:17:45.661Z</time>
      </trkpt>
      <trkpt lat="47.566081" lon="7.840309">
        <ele>302.730881</ele>
        <time>2021-11-17T22:17:47.803Z</time>
      </trkpt>
      <trkpt lat="47.566142" lon="7.840322">
        <ele>302.662352</ele>
        <time>2021-11-17T22:17:48.485Z</time>
      </trkpt>
      <trkpt lat="47.566221" lon="7.840340">
        <ele>302.573471</ele>
        <time>2021-11-17T22:17:49.683Z</time>
      </trkpt>
      <trkpt lat="47.566350" lon="7.840350">
        <ele>302.429827</ele>
        <time>2021-11-17T22:17:51.372Z</time>
      </trkpt>
      <trkpt lat="47.566450" lon="7.840326">
        <ele>302.317179</ele>
        <time>2021-11-17T22:17:52.595Z</time>
      </trkpt>
      <trkpt lat="47.566515" lon="7.840312">
        <ele>302.247922</ele>
        <time>2021-11-17T22:17:53.341Z</time>
      </trkpt>
      <trkpt lat="47.566592" lon="7.840279">
        <ele>302.187844</ele>
        <time>2021-11-17T22:17:54.531Z</time>
      </trkpt>
      <trkpt lat="47.566826" lon="7.840179">
        <ele>302.005310</ele>
        <time>2021-11-17T22:17:57.465Z</time>
      </trkpt>
      <trkpt lat="47.567111" lon="7.839998">
        <ele>301.772910</ele>
        <time>2021-11-17T22:18:01.484Z</time>
      </trkpt>
      <trkpt lat="47.567406" lon="7.839778">
        <ele>301.525386</ele>
        <time>2021-11-17T22:18:05.669Z</time>
      </trkpt>
      <trkpt lat="47.567481" lon="7.839664">
        <ele>301.444864</ele>
        <time>2021-11-17T22:18:06.875Z</time>
      </trkpt>
      <trkpt lat="47.567510" lon="7.839548">
        <ele>301.382303</ele>
        <time>2021-11-17T22:18:08.108Z</time>
      </trkpt>
      <trkpt lat="47.567530" lon="7.839459">
        <ele>301.334864</ele>
        <time>2021-11-17T22:18:08.955Z</time>
      </trkpt>
      <trkpt lat="47.567564" lon="7.839283">
        <ele>301.242281</ele>
        <time>2021-11-17T22:18:10.564Z</time>
      </trkpt>
      <trkpt lat="47.567626" lon="7.839064">
        <ele>301.122174</ele>
        <time>2021-11-17T22:18:12.587Z</time>
      </trkpt>
      <trkpt lat="47.567634" lon="7.839037">
        <ele>301.107261</ele>
        <time>2021-11-17T22:18:12.823Z</time>
      </trkpt>
      <trkpt lat="47.567823" lon="7.838648">
        <ele>300.839832</ele>
        <time>2021-11-17T22:18:17.106Z</time>
      </trkpt>
      <trkpt lat="47.567846" lon="7.838609">
        <ele>300.798324</ele>
        <time>2021-11-17T22:18:17.547Z</time>
      </trkpt>
      <trkpt lat="47.567936" lon="7.838380">
        <ele>300.585950</ele>
        <time>2021-11-17T22:18:20.002Z</time>
      </trkpt>
      <trkpt lat="47.568042" lon="7.838436">
        <ele>300.452295</ele>
        <time>2021-11-17T22:18:21.931Z</time>
      </trkpt>
      <trkpt lat="47.568160" lon="7.838415">
        <ele>300.311140</ele>
        <time>2021-11-17T22:18:24.069Z</time>
      </trkpt>
      <trkpt lat="47.568420" lon="7.838300">
        <ele>299.988880</ele>
        <time>2021-11-17T22:18:28.681Z</time>
      </trkpt>
      <trkpt lat="47.568988" lon="7.838054">
        <ele>299.286055</ele>
        <time>2021-11-17T22:18:38.504Z</time>
      </trkpt>
      <trkpt lat="47.569310" lon="7.837922">
        <ele>298.889258</ele>
        <time>2021-11-17T22:18:44.011Z</time>
      </trkpt>
      <trkpt lat="47.569522" lon="7.837844">
        <ele>298.609925</ele>
        <time>2021-11-17T22:18:47.603Z</time>
      </trkpt>
      <trkpt lat="47.569665" lon="7.837789">
        <ele>298.409792</ele>
        <time>2021-11-17T22:18:50.041Z</time>
      </trkpt>
      <trkpt lat="47.569814" lon="7.837733">
        <ele>298.201558</ele>
        <time>2021-11-17T22:18:52.577Z</time>
      </trkpt>
      <trkpt lat="47.569907" lon="7.837696">
        <ele>298.071115</ele>
        <time>2021-11-17T22:18:54.152Z</time>
      </trkpt>
      <trkpt lat="47.570038" lon="7.837643">
        <ele>297.887161</ele>
        <time>2021-11-17T22:18:56.404Z</time>
      </trkpt>
      <trkpt lat="47.570298" lon="7.837528">
        <ele>297.519600</ele>
        <time>2021-11-17T22:19:00.856Z</time>
      </trkpt>
      <trkpt lat="47.570872" lon="7.837307">
        <ele>296.716217</ele>
        <time>2021-11-17T22:19:10.718Z</time>
      </trkpt>
      <trkpt lat="47.570985" lon="7.837265">
        <ele>296.558400</ele>
        <time>2021-11-17T22:19:12.645Z</time>
      </trkpt>
      <trkpt lat="47.571254" lon="7.837161">
        <ele>296.262091</ele>
        <time>2021-11-17T22:19:17.358Z</time>
      </trkpt>
      <trkpt lat="47.571771" lon="7.836971">
        <ele>295.919144</ele>
        <time>2021-11-17T22:19:26.864Z</time>
      </trkpt>
      <trkpt lat="47.571871" lon="7.836932">
        <ele>295.852568</ele>
        <time>2021-11-17T22:19:28.800Z</time>
      </trkpt>
      <trkpt lat="47.572139" lon="7.836834">
        <ele>295.674844</ele>
        <time>2021-11-17T22:19:33.996Z</time>
      </trkpt>
      <trkpt lat="47.572296" lon="7.836777">
        <ele>295.570772</ele>
        <time>2021-11-17T22:19:37.074Z</time>
      </trkpt>
      <trkpt lat="47.572760" lon="7.836606">
        <ele>295.262932</ele>
        <time>2021-11-17T22:19:46.092Z</time>
      </trkpt>
      <trkpt lat="47.573348" lon="7.836386">
        <ele>294.996478</ele>
        <time>2021-11-17T22:19:57.246Z</time>
      </trkpt>
      <trkpt lat="47.573815" lon="7.836215">
        <ele>294.812975</ele>
        <time>2021-11-17T22:20:06.058Z</time>
      </trkpt>
      <trkpt lat="47.574158" lon="7.836106">
        <ele>294.679157</ele>
        <time>2021-11-17T22:20:12.630Z</time>
      </trkpt>
      <trkpt lat="47.574568" lon="7.836025">
        <ele>294.521370</ele>
        <time>2021-11-17T22:20:18.321Z</time>
      </trkpt>
      <trkpt lat="47.575033" lon="7.835907">
        <ele>294.700976</ele>
        <time>2021-11-17T22:20:25.325Z</time>
      </trkpt>
      <trkpt lat="47.575959" lon="7.835718">
        <ele>295.203576</ele>
        <time>2021-11-17T22:20:40.942Z</time>
      </trkpt>
      <trkpt lat="47.576219" lon="7.835650">
        <ele>295.345534</ele>
        <time>2021-11-17T22:20:46.099Z</time>
      </trkpt>
      <trkpt lat="47.579073" lon="7.834987">
        <ele>298.476915</ele>
        <time>2021-11-17T22:21:44.936Z</time>
      </trkpt>
      <trkpt lat="47.580667" lon="7.834627">
        <ele>298.484530</ele>
        <time>2021-11-17T22:22:08.785Z</time>
      </trkpt>
      <trkpt lat="47.580816" lon="7.834599">
        <ele>298.351859</ele>
        <time>2021-11-17T22:22:10.882Z</time>
      </trkpt>
      <trkpt lat="47.582828" lon="7.834117">
        <ele>295.097509</ele>
        <time>2021-11-17T22:22:33.930Z</time>
      </trkpt>
      <trkpt lat="47.583163" lon="7.833942">
        <ele>294.307720</ele>
        <time>2021-11-17T22:22:37.759Z</time>
      </trkpt>
      <trkpt lat="47.583327" lon="7.833750">
        <ele>293.843060</ele>
        <time>2021-11-17T22:22:39.917Z</time>
      </trkpt>
      <trkpt lat="47.583401" lon="7.833658">
        <ele>293.628316</ele>
        <time>2021-11-17T22:22:40.848Z</time>
      </trkpt>
      <trkpt lat="47.583523" lon="7.833509">
        <ele>293.064335</ele>
        <time>2021-11-17T22:22:42.524Z</time>
      </trkpt>
      <trkpt lat="47.583696" lon="7.833171">
        <ele>291.848994</ele>
        <time>2021-11-17T22:22:45.361Z</time>
      </trkpt>
      <trkpt lat="47.583849" lon="7.832883">
        <ele>290.798915</ele>
        <time>2021-11-17T22:22:47.682Z</time>
      </trkpt>
      <trkpt lat="47.584029" lon="7.832543">
        <ele>289.560881</ele>
        <time>2021-11-17T22:22:50.416Z</time>
      </trkpt>
      <trkpt lat="47.584156" lon="7.832334">
        <ele>288.755126</ele>
        <time>2021-11-17T22:22:52.196Z</time>
      </trkpt>
      <trkpt lat="47.584367" lon="7.832247">
        <ele>287.825091</ele>
        <time>2021-11-17T22:22:54.256Z</time>
      </trkpt>
      <trkpt lat="47.584717" lon="7.832264">
        <ele>286.337991</ele>
        <time>2021-11-17T22:22:57.645Z</time>
      </trkpt>
      <trkpt lat="47.585027" lon="7.832425">
        <ele>285.232543</ele>
        <time>2021-11-17T22:23:00.908Z</time>
      </trkpt>
      <trkpt lat="47.585195" lon="7.832588">
        <ele>284.645492</ele>
        <time>2021-11-17T22:23:02.964Z</time>
      </trkpt>
      <trkpt lat="47.585247" lon="7.832651">
        <ele>284.449140</ele>
        <time>2021-11-17T22:23:03.611Z</time>
      </trkpt>
      <trkpt lat="47.585278" lon="7.832688">
        <ele>284.332778</ele>
        <time>2021-11-17T22:23:03.994Z</time>
      </trkpt>
      <trkpt lat="47.586276" lon="7.833601">
        <ele>280.903929</ele>
        <time>2021-11-17T22:23:16.011Z</time>
      </trkpt>
      <trkpt lat="47.586496" lon="7.833050">
        <ele>280.573403</ele>
        <time>2021-11-17T22:23:21.248Z</time>
      </trkpt>
      <trkpt lat="47.587168" lon="7.833639">
        <ele>280.479736</ele>
        <time>2021-11-17T22:23:32.954Z</time>
      </trkpt>
      <trkpt lat="47.587298" lon="7.833753">
        <ele>280.461614</ele>
        <time>2021-11-17T22:23:35.319Z</time>
      </trkpt>
      <trkpt lat="47.587848" lon="7.834235">
        <ele>280.641145</ele>
        <time>2021-11-17T22:23:45.588Z</time>
      </trkpt>
      <trkpt lat="47.587628" lon="7.835942">
        <ele>283.376777</ele>
        <time>2021-11-17T22:24:13.412Z</time>
      </trkpt>
      <trkpt lat="47.587903" lon="7.836007">
        <ele>284.026700</ele>
        <time>2021-11-17T22:24:21.130Z</time>
      </trkpt>
      <trkpt lat="47.588272" lon="7.836090">
        <ele>285.120975</ele>
        <time>2021-11-17T22:24:32.119Z</time>
      </trkpt>
      <trkpt lat="47.589181" lon="7.835983">
        <ele>288.819836</ele>
        <time>2021-11-17T22:24:59.695Z</time>
      </trkpt>
      <trkpt lat="47.590263" lon="7.835856">
        <ele>294.515994</ele>
        <time>2021-11-17T22:25:34.948Z</time>
      </trkpt>
      <trkpt lat="47.590166" lon="7.836338">
        <ele>297.229028</ele>
        <time>2021-11-17T22:25:46.123Z</time>
      </trkpt>
      <trkpt lat="47.591704" lon="7.836354">
        <ele>311.935944</ele>
        <time>2021-11-17T22:27:17.417Z</time>
      </trkpt>
      <trkpt lat="47.591953" lon="7.836379">
        <ele>315.408196</ele>
        <time>2021-11-17T22:27:40.451Z</time>
      </trkpt>
      <trkpt lat="47.592110" lon="7.836372">
        <ele>317.593513</ele>
        <time>2021-11-17T22:27:50.090Z</time>
      </trkpt>
      <trkpt lat="47.592182" lon="7.836371">
        <ele>318.595287</ele>
        <time>2021-11-17T22:27:56.425Z</time>
      </trkpt>
      <trkpt lat="47.592250" lon="7.836371">
        <ele>319.541366</ele>
        <time>2021-11-17T22:28:04.193Z</time>
      </trkpt>
      <trkpt lat="47.592897" lon="7.836379">
        <ele>328.543343</ele>
        <time>2021-11-17T22:28:53.652Z</time>
      </trkpt>
      <trkpt lat="47.593173" lon="7.836468">
        <ele>332.166060</ele>
        <time>2021-11-17T22:29:16.318Z</time>
      </trkpt>
      <trkpt lat="47.593342" lon="7.836538">
        <ele>333.968315</ele>
        <time>2021-11-17T22:29:34.481Z</time>
      </trkpt>
      <trkpt lat="47.593826" lon="7.836849">
        <ele>339.386174</ele>
        <time>2021-11-17T22:30:09.718Z</time>
      </trkpt>
      <trkpt lat="47.594385" lon="7.837297">
        <ele>345.912599</ele>
        <time>2021-11-17T22:30:45.195Z</time>
      </trkpt>
      <trkpt lat="47.594966" lon="7.837645">
        <ele>350.716001</ele>
        <time>2021-11-17T22:31:14.026Z</time>
      </trkpt>
      <trkpt lat="47.595487" lon="7.838131">
        <ele>353.028895</ele>
        <time>2021-11-17T22:31:35.133Z</time>
      </trkpt>
      <trkpt lat="47.595964" lon="7.838747">
        <ele>355.405723</ele>
        <time>2021-11-17T22:31:54.722Z</time>
      </trkpt>
      <trkpt lat="47.596578" lon="7.839929">
        <ele>358.693050</ele>
        <time>2021-11-17T22:32:25.375Z</time>
      </trkpt>
      <trkpt lat="47.596993" lon="7.840544">
        <ele>360.487719</ele>
        <time>2021-11-17T22:32:44.822Z</time>
      </trkpt>
      <trkpt lat="47.597263" lon="7.840840">
        <ele>361.514812</ele>
        <time>2021-11-17T22:32:56.152Z</time>
      </trkpt>
      <trkpt lat="47.597727" lon="7.841333">
        <ele>363.618387</ele>
        <time>2021-11-17T22:33:15.794Z</time>
      </trkpt>
      <trkpt lat="47.597842" lon="7.841614">
        <ele>364.494126</ele>
        <time>2021-11-17T22:33:23.812Z</time>
      </trkpt>
      <trkpt lat="47.598058" lon="7.842175">
        <ele>366.215234</ele>
        <time>2021-11-17T22:33:39.678Z</time>
      </trkpt>
      <trkpt lat="47.598238" lon="7.842763">
        <ele>367.935661</ele>
        <time>2021-11-17T22:33:55.503Z</time>
      </trkpt>
      <trkpt lat="47.598536" lon="7.843376">
        <ele>370.226522</ele>
        <time>2021-11-17T22:34:14.320Z</time>
      </trkpt>
      <trkpt lat="47.598696" lon="7.843499">
        <ele>371.183186</ele>
        <time>2021-11-17T22:34:21.102Z</time>
      </trkpt>
      <trkpt lat="47.598937" lon="7.843561">
        <ele>372.481595</ele>
        <time>2021-11-17T22:34:30.701Z</time>
      </trkpt>
      <trkpt lat="47.599568" lon="7.843496">
        <ele>375.839209</ele>
        <time>2021-11-17T22:34:56.891Z</time>
      </trkpt>
      <trkpt lat="47.599763" lon="7.843535">
        <ele>376.883700</ele>
        <time>2021-11-17T22:35:05.425Z</time>
      </trkpt>
      <trkpt lat="47.600072" lon="7.843673">
        <ele>378.596730</ele>
        <time>2021-11-17T22:35:20.081Z</time>
      </trkpt>
      <trkpt lat="47.600807" lon="7.843916">
        <ele>383.963327</ele>
        <time>2021-11-17T22:35:55.856Z</time>
      </trkpt>
      <trkpt lat="47.602198" lon="7.844937">
        <ele>396.052370</ele>
        <time>2021-11-17T22:37:14.376Z</time>
      </trkpt>
      <trkpt lat="47.602253" lon="7.845252">
        <ele>398.056801</ele>
        <time>2021-11-17T22:37:25.518Z</time>
      </trkpt>
      <trkpt lat="47.602229" lon="7.845655">
        <ele>400.548981</ele>
        <time>2021-11-17T22:37:39.243Z</time>
      </trkpt>
      <trkpt lat="47.602243" lon="7.846717">
        <ele>407.092246</ele>
        <time>2021-11-17T22:38:24.820Z</time>
      </trkpt>
      <trkpt lat="47.602236" lon="7.847007">
        <ele>409.050698</ele>
        <time>2021-11-17T22:38:38.848Z</time>
      </trkpt>
      <trkpt lat="47.602282" lon="7.847374">
        <ele>411.805247</ele>
        <time>2021-11-17T22:38:54.629Z</time>
      </trkpt>
      <trkpt lat="47.602400" lon="7.847680">
        <ele>414.406464</ele>
        <time>2021-11-17T22:39:08.618Z</time>
      </trkpt>
      <trkpt lat="47.602486" lon="7.847821">
        <ele>415.809448</ele>
        <time>2021-11-17T22:39:17.812Z</time>
      </trkpt>
      <trkpt lat="47.602606" lon="7.848016">
        <ele>417.757573</ele>
        <time>2021-11-17T22:39:29.437Z</time>
      </trkpt>
      <trkpt lat="47.603736" lon="7.848907">
        <ele>430.587415</ele>
        <time>2021-11-17T22:40:52.421Z</time>
      </trkpt>
      <trkpt lat="47.604551" lon="7.849629">
        <ele>437.969779</ele>
        <time>2021-11-17T22:41:39.897Z</time>
      </trkpt>
      <trkpt lat="47.604823" lon="7.849877">
        <ele>440.452705</ele>
        <time>2021-11-17T22:41:54.059Z</time>
      </trkpt>
      <trkpt lat="47.605011" lon="7.850048">
        <ele>441.916557</ele>
        <time>2021-11-17T22:42:03.295Z</time>
      </trkpt>
      <trkpt lat="47.605181" lon="7.850167">
        <ele>442.613668</ele>
        <time>2021-11-17T22:42:10.964Z</time>
      </trkpt>
      <trkpt lat="47.605584" lon="7.850507">
        <ele>444.333010</ele>
        <time>2021-11-17T22:42:28.868Z</time>
      </trkpt>
      <trkpt lat="47.605922" lon="7.850724">
        <ele>445.698830</ele>
        <time>2021-11-17T22:42:41.901Z</time>
      </trkpt>
      <trkpt lat="47.606259" lon="7.850845">
        <ele>446.984650</ele>
        <time>2021-11-17T22:42:53.011Z</time>
      </trkpt>
      <trkpt lat="47.606432" lon="7.850826">
        <ele>447.627955</ele>
        <time>2021-11-17T22:42:57.992Z</time>
      </trkpt>
      <trkpt lat="47.606642" lon="7.850761">
        <ele>448.355530</ele>
        <time>2021-11-17T22:43:04.164Z</time>
      </trkpt>
      <trkpt lat="47.606841" lon="7.850541">
        <ele>448.325819</ele>
        <time>2021-11-17T22:43:11.157Z</time>
      </trkpt>
      <trkpt lat="47.607206" lon="7.849906">
        <ele>448.258471</ele>
        <time>2021-11-17T22:43:24.527Z</time>
      </trkpt>
      <trkpt lat="47.607512" lon="7.849734">
        <ele>448.219298</ele>
        <time>2021-11-17T22:43:30.525Z</time>
      </trkpt>
      <trkpt lat="47.607779" lon="7.849458">
        <ele>448.180339</ele>
        <time>2021-11-17T22:43:35.967Z</time>
      </trkpt>
      <trkpt lat="47.608193" lon="7.849027">
        <ele>447.478833</ele>
        <time>2021-11-17T22:43:43.952Z</time>
      </trkpt>
      <trkpt lat="47.608499" lon="7.848767">
        <ele>446.236769</ele>
        <time>2021-11-17T22:43:49.204Z</time>
      </trkpt>
      <trkpt lat="47.608647" lon="7.848750">
        <ele>445.713941</ele>
        <time>2021-11-17T22:43:51.319Z</time>
      </trkpt>
      <trkpt lat="47.608958" lon="7.849213">
        <ele>444.161994</ele>
        <time>2021-11-17T22:43:57.495Z</time>
      </trkpt>
      <trkpt lat="47.609180" lon="7.849407">
        <ele>443.254483</ele>
        <time>2021-11-17T22:44:01.064Z</time>
      </trkpt>
      <trkpt lat="47.609671" lon="7.849581">
        <ele>441.560037</ele>
        <time>2021-11-17T22:44:07.960Z</time>
      </trkpt>
      <trkpt lat="47.609900" lon="7.849721">
        <ele>440.907961</ele>
        <time>2021-11-17T22:44:11.420Z</time>
      </trkpt>
      <trkpt lat="47.610164" lon="7.850132">
        <ele>439.900403</ele>
        <time>2021-11-17T22:44:16.976Z</time>
      </trkpt>
      <trkpt lat="47.610866" lon="7.850970">
        <ele>437.528134</ele>
        <time>2021-11-17T22:44:30.983Z</time>
      </trkpt>
      <trkpt lat="47.611197" lon="7.851511">
        <ele>436.151966</ele>
        <time>2021-11-17T22:44:39.984Z</time>
      </trkpt>
      <trkpt lat="47.611373" lon="7.852022">
        <ele>435.037197</ele>
        <time>2021-11-17T22:44:46.667Z</time>
      </trkpt>
      <trkpt lat="47.611487" lon="7.852197">
        <ele>434.564440</ele>
        <time>2021-11-17T22:44:49.454Z</time>
      </trkpt>
      <trkpt lat="47.611909" lon="7.852604">
        <ele>433.113934</ele>
        <time>2021-11-17T22:44:56.800Z</time>
      </trkpt>
      <trkpt lat="47.612224" lon="7.852925">
        <ele>432.012647</ele>
        <time>2021-11-17T22:45:01.940Z</time>
      </trkpt>
      <trkpt lat="47.612366" lon="7.853056">
        <ele>430.906447</ele>
        <time>2021-11-17T22:45:04.163Z</time>
      </trkpt>
      <trkpt lat="47.612473" lon="7.853153">
        <ele>429.915494</ele>
        <time>2021-11-17T22:45:05.817Z</time>
      </trkpt>
      <trkpt lat="47.612894" lon="7.853499">
        <ele>426.112108</ele>
        <time>2021-11-17T22:45:11.995Z</time>
      </trkpt>
      <trkpt lat="47.613147" lon="7.853586">
        <ele>424.059795</ele>
        <time>2021-11-17T22:45:15.208Z</time>
      </trkpt>
      <trkpt lat="47.613350" lon="7.853629">
        <ele>422.439344</ele>
        <time>2021-11-17T22:45:17.751Z</time>
      </trkpt>
      <trkpt lat="47.613558" lon="7.853788">
        <ele>420.590244</ele>
        <time>2021-11-17T22:45:20.629Z</time>
      </trkpt>
      <trkpt lat="47.613561" lon="7.854148">
        <ele>418.672307</ele>
        <time>2021-11-17T22:45:23.551Z</time>
      </trkpt>
      <trkpt lat="47.613564" lon="7.854464">
        <ele>417.040028</ele>
        <time>2021-11-17T22:45:26.213Z</time>
      </trkpt>
      <trkpt lat="47.613607" lon="7.854572">
        <ele>416.421728</ele>
        <time>2021-11-17T22:45:27.224Z</time>
      </trkpt>
      <trkpt lat="47.613659" lon="7.854700">
        <ele>415.685043</ele>
        <time>2021-11-17T22:45:28.516Z</time>
      </trkpt>
      <trkpt lat="47.613792" lon="7.854776">
        <ele>414.642839</ele>
        <time>2021-11-17T22:45:30.316Z</time>
      </trkpt>
      <trkpt lat="47.613988" lon="7.854392">
        <ele>412.268566</ele>
        <time>2021-11-17T22:45:34.362Z</time>
      </trkpt>
      <trkpt lat="47.614100" lon="7.854196">
        <ele>411.001995</ele>
        <time>2021-11-17T22:45:36.496Z</time>
      </trkpt>
      <trkpt lat="47.614301" lon="7.854162">
        <ele>409.522691</ele>
        <time>2021-11-17T22:45:39.317Z</time>
      </trkpt>
      <trkpt lat="47.614629" lon="7.854431">
        <ele>406.782103</ele>
        <time>2021-11-17T22:45:44.165Z</time>
      </trkpt>
      <trkpt lat="47.614801" lon="7.854465">
        <ele>405.513264</ele>
        <time>2021-11-17T22:45:46.345Z</time>
      </trkpt>
      <trkpt lat="47.615213" lon="7.854374">
        <ele>403.897313</ele>
        <time>2021-11-17T22:45:52.006Z</time>
      </trkpt>
      <trkpt lat="47.615794" lon="7.854262">
        <ele>402.592870</ele>
        <time>2021-11-17T22:46:00.180Z</time>
      </trkpt>
      <trkpt lat="47.615857" lon="7.854262">
        <ele>402.452604</ele>
        <time>2021-11-17T22:46:01.161Z</time>
      </trkpt>
      <trkpt lat="47.615860" lon="7.854339">
        <ele>402.336846</ele>
        <time>2021-11-17T22:46:01.960Z</time>
      </trkpt>
      <trkpt lat="47.616057" lon="7.854419">
        <ele>401.882099</ele>
        <time>2021-11-17T22:46:05.292Z</time>
      </trkpt>
      <trkpt lat="47.616213" lon="7.854635">
        <ele>401.406990</ele>
        <time>2021-11-17T22:46:09.424Z</time>
      </trkpt>
      <trkpt lat="47.616419" lon="7.854648">
        <ele>400.947926</ele>
        <time>2021-11-17T22:46:14.164Z</time>
      </trkpt>
      <trkpt lat="47.616561" lon="7.854545">
        <ele>400.596002</ele>
        <time>2021-11-17T22:46:17.653Z</time>
      </trkpt>
      <trkpt lat="47.616730" lon="7.854154">
        <ele>401.887685</ele>
        <time>2021-11-17T22:46:26.840Z</time>
      </trkpt>
      <trkpt lat="47.616902" lon="7.854158">
        <ele>402.733618</ele>
        <time>2021-11-17T22:46:31.861Z</time>
      </trkpt>
      <trkpt lat="47.617031" lon="7.853820">
        <ele>404.021169</ele>
        <time>2021-11-17T22:46:39.825Z</time>
      </trkpt>
      <trkpt lat="47.617121" lon="7.853582">
        <ele>404.925772</ele>
        <time>2021-11-17T22:46:46.522Z</time>
      </trkpt>
      <trkpt lat="47.617174" lon="7.853374">
        <ele>405.662880</ele>
        <time>2021-11-17T22:46:52.156Z</time>
      </trkpt>
      <trkpt lat="47.617401" lon="7.852985">
        <ele>407.368423</ele>
        <time>2021-11-17T22:47:06.560Z</time>
      </trkpt>
      <trkpt lat="47.617505" lon="7.852663">
        <ele>408.552004</ele>
        <time>2021-11-17T22:47:17.325Z</time>
      </trkpt>
      <trkpt lat="47.617527" lon="7.851427">
        <ele>413.385813</ele>
        <time>2021-11-17T22:47:55.752Z</time>
      </trkpt>
      <trkpt lat="47.618006" lon="7.850183">
        <ele>419.197115</ele>
        <time>2021-11-17T22:48:31.711Z</time>
      </trkpt>
      <trkpt lat="47.618035" lon="7.849984">
        <ele>420.022967</ele>
        <time>2021-11-17T22:48:36.300Z</time>
      </trkpt>
      <trkpt lat="47.618004" lon="7.848291">
        <ele>423.552460</ele>
        <time>2021-11-17T22:49:08.471Z</time>
      </trkpt>
      <trkpt lat="47.617988" lon="7.848055">
        <ele>424.035298</ele>
        <time>2021-11-17T22:49:12.467Z</time>
      </trkpt>
      <trkpt lat="47.617998" lon="7.847811">
        <ele>424.532915</ele>
        <time>2021-11-17T22:49:16.029Z</time>
      </trkpt>
      <trkpt lat="47.618233" lon="7.846599">
        <ele>426.829632</ele>
        <time>2021-11-17T22:49:34.482Z</time>
      </trkpt>
      <trkpt lat="47.618223" lon="7.845325">
        <ele>428.949474</ele>
        <time>2021-11-17T22:49:55.212Z</time>
      </trkpt>
      <trkpt lat="47.618134" lon="7.844973">
        <ele>429.574982</ele>
        <time>2021-11-17T22:50:01.709Z</time>
      </trkpt>
      <trkpt lat="47.617988" lon="7.844483">
        <ele>430.782201</ele>
        <time>2021-11-17T22:50:11.841Z</time>
      </trkpt>
      <trkpt lat="47.617607" lon="7.843840">
        <ele>433.310327</ele>
        <time>2021-11-17T22:50:29.879Z</time>
      </trkpt>
      <trkpt lat="47.617368" lon="7.843216">
        <ele>435.429725</ele>
        <time>2021-11-17T22:50:46.524Z</time>
      </trkpt>
      <trkpt lat="47.617228" lon="7.842570">
        <ele>437.433576</ele>
        <time>2021-11-17T22:51:02.895Z</time>
      </trkpt>
      <trkpt lat="47.617103" lon="7.841209">
        <ele>441.279992</ele>
        <time>2021-11-17T22:51:33.754Z</time>
      </trkpt>
      <trkpt lat="47.616766" lon="7.839183">
        <ele>446.731151</ele>
        <time>2021-11-17T22:52:15.302Z</time>
      </trkpt>
      <trkpt lat="47.616796" lon="7.838812">
        <ele>447.560576</ele>
        <time>2021-11-17T22:52:22.083Z</time>
      </trkpt>
      <trkpt lat="47.617290" lon="7.837217">
        <ele>451.469352</ele>
        <time>2021-11-17T22:52:54.477Z</time>
      </trkpt>
      <trkpt lat="47.617841" lon="7.835706">
        <ele>455.545041</ele>
        <time>2021-11-17T22:53:27.256Z</time>
      </trkpt>
      <trkpt lat="47.618319" lon="7.834959">
        <ele>458.014186</ele>
        <time>2021-11-17T22:53:48.411Z</time>
      </trkpt>
      <trkpt lat="47.618582" lon="7.834417">
        <ele>459.704432</ele>
        <time>2021-11-17T22:54:02.107Z</time>
      </trkpt>
      <trkpt lat="47.618883" lon="7.833744">
        <ele>461.748601</ele>
        <time>2021-11-17T22:54:18.630Z</time>
      </trkpt>
      <trkpt lat="47.619543" lon="7.832548">
        <ele>465.393885</ele>
        <time>2021-11-17T22:54:49.274Z</time>
      </trkpt>
      <trkpt lat="47.621202" lon="7.830405">
        <ele>472.222671</ele>
        <time>2021-11-17T22:55:46.317Z</time>
      </trkpt>
      <trkpt lat="47.621427" lon="7.829933">
        <ele>473.522495</ele>
        <time>2021-11-17T22:55:56.921Z</time>
      </trkpt>
      <trkpt lat="47.621534" lon="7.829734">
        <ele>474.094846</ele>
        <time>2021-11-17T22:56:01.747Z</time>
      </trkpt>
      <trkpt lat="47.621800" lon="7.829109">
        <ele>475.777676</ele>
        <time>2021-11-17T22:56:16.696Z</time>
      </trkpt>
      <trkpt lat="47.621973" lon="7.828724">
        <ele>477.584265</ele>
        <time>2021-11-17T22:56:26.560Z</time>
      </trkpt>
      <trkpt lat="47.622611" lon="7.827681">
        <ele>483.083427</ele>
        <time>2021-11-17T22:57:03.087Z</time>
      </trkpt>
      <trkpt lat="47.622929" lon="7.827233">
        <ele>485.623611</ele>
        <time>2021-11-17T22:57:22.328Z</time>
      </trkpt>
      <trkpt lat="47.623357" lon="7.826769">
        <ele>488.659763</ele>
        <time>2021-11-17T22:57:44.800Z</time>
      </trkpt>
      <trkpt lat="47.623651" lon="7.826499">
        <ele>490.635574</ele>
        <time>2021-11-17T22:57:58.709Z</time>
      </trkpt>
      <trkpt lat="47.624085" lon="7.826125">
        <ele>493.503562</ele>
        <time>2021-11-17T22:58:17.531Z</time>
      </trkpt>
      <trkpt lat="47.624738" lon="7.825514">
        <ele>497.237240</ele>
        <time>2021-11-17T22:58:43.833Z</time>
      </trkpt>
      <trkpt lat="47.625432" lon="7.824606">
        <ele>500.118977</ele>
        <time>2021-11-17T22:59:07.315Z</time>
      </trkpt>
      <trkpt lat="47.626017" lon="7.823389">
        <ele>503.243058</ele>
        <time>2021-11-17T22:59:32.813Z</time>
      </trkpt>
      <trkpt lat="47.626214" lon="7.823154">
        <ele>504.021586</ele>
        <time>2021-11-17T22:59:39.714Z</time>
      </trkpt>
      <trkpt lat="47.626961" lon="7.822577">
        <ele>506.615400</ele>
        <time>2021-11-17T23:00:03.886Z</time>
      </trkpt>
      <trkpt lat="47.627230" lon="7.822262">
        <ele>507.636246</ele>
        <time>2021-11-17T23:00:13.161Z</time>
      </trkpt>
      <trkpt lat="47.627436" lon="7.821903">
        <ele>508.289587</ele>
        <time>2021-11-17T23:00:21.400Z</time>
      </trkpt>
      <trkpt lat="47.627644" lon="7.821437">
        <ele>509.064084</ele>
        <time>2021-11-17T23:00:30.877Z</time>
      </trkpt>
      <trkpt lat="47.627725" lon="7.821287">
        <ele>509.330424</ele>
        <time>2021-11-17T23:00:33.984Z</time>
      </trkpt>
      <trkpt lat="47.628068" lon="7.820705">
        <ele>510.401734</ele>
        <time>2021-11-17T23:00:46.137Z</time>
      </trkpt>
      <trkpt lat="47.628223" lon="7.820316">
        <ele>511.027914</ele>
        <time>2021-11-17T23:00:52.877Z</time>
      </trkpt>
      <trkpt lat="47.628382" lon="7.819690">
        <ele>510.673553</ele>
        <time>2021-11-17T23:01:00.275Z</time>
      </trkpt>
      <trkpt lat="47.628652" lon="7.819012">
        <ele>509.738422</ele>
        <time>2021-11-17T23:01:06.726Z</time>
      </trkpt>
      <trkpt lat="47.628903" lon="7.818442">
        <ele>508.929911</ele>
        <time>2021-11-17T23:01:11.832Z</time>
      </trkpt>
      <trkpt lat="47.629046" lon="7.818276">
        <ele>508.610011</ele>
        <time>2021-11-17T23:01:13.677Z</time>
      </trkpt>
      <trkpt lat="47.629850" lon="7.816905">
        <ele>501.976532</ele>
        <time>2021-11-17T23:01:25.235Z</time>
      </trkpt>
      <trkpt lat="47.630743" lon="7.815987">
        <ele>494.459610</ele>
        <time>2021-11-17T23:01:34.742Z</time>
      </trkpt>
      <trkpt lat="47.631021" lon="7.815514">
        <ele>490.935368</ele>
        <time>2021-11-17T23:01:38.461Z</time>
      </trkpt>
      <trkpt lat="47.631083" lon="7.815420">
        <ele>490.196790</ele>
        <time>2021-11-17T23:01:39.244Z</time>
      </trkpt>
      <trkpt lat="47.631227" lon="7.815205">
        <ele>488.494669</ele>
        <time>2021-11-17T23:01:41.028Z</time>
      </trkpt>
      <trkpt lat="47.631677" lon="7.814692">
        <ele>483.766306</ele>
        <time>2021-11-17T23:01:46.013Z</time>
      </trkpt>
      <trkpt lat="47.631707" lon="7.814641">
        <ele>483.386178</ele>
        <time>2021-11-17T23:01:46.399Z</time>
      </trkpt>
      <trkpt lat="47.632099" lon="7.813963">
        <ele>478.788098</ele>
        <time>2021-11-17T23:01:51.760Z</time>
      </trkpt>
      <trkpt lat="47.632179" lon="7.813790">
        <ele>477.777474</ele>
        <time>2021-11-17T23:01:52.981Z</time>
      </trkpt>
      <trkpt lat="47.632515" lon="7.813155">
        <ele>473.888644</ele>
        <time>2021-11-17T23:01:57.982Z</time>
      </trkpt>
      <trkpt lat="47.632573" lon="7.813067">
        <ele>473.295742</ele>
        <time>2021-11-17T23:01:58.698Z</time>
      </trkpt>
      <trkpt lat="47.632601" lon="7.813004">
        <ele>472.932235</ele>
        <time>2021-11-17T23:01:59.136Z</time>
      </trkpt>
      <trkpt lat="47.632790" lon="7.812277">
        <ele>469.178948</ele>
        <time>2021-11-17T23:02:03.952Z</time>
      </trkpt>
      <trkpt lat="47.632845" lon="7.812246">
        <ele>468.758422</ele>
        <time>2021-11-17T23:02:04.487Z</time>
      </trkpt>
      <trkpt lat="47.632938" lon="7.812283">
        <ele>468.042164</ele>
        <time>2021-11-17T23:02:05.306Z</time>
      </trkpt>
      <trkpt lat="47.633151" lon="7.812590">
        <ele>465.764999</ele>
        <time>2021-11-17T23:02:08.031Z</time>
      </trkpt>
      <trkpt lat="47.633391" lon="7.813533">
        <ele>460.555654</ele>
        <time>2021-11-17T23:02:14.104Z</time>
      </trkpt>
      <trkpt lat="47.633759" lon="7.814194">
        <ele>456.124663</ele>
        <time>2021-11-17T23:02:19.112Z</time>
      </trkpt>
      <trkpt lat="47.633899" lon="7.814255">
        <ele>455.005681</ele>
        <time>2021-11-17T23:02:20.449Z</time>
      </trkpt>
      <trkpt lat="47.634025" lon="7.814248">
        <ele>454.020242</ele>
        <time>2021-11-17T23:02:21.541Z</time>
      </trkpt>
      <trkpt lat="47.634267" lon="7.814103">
        <ele>451.959375</ele>
        <time>2021-11-17T23:02:23.905Z</time>
      </trkpt>
      <trkpt lat="47.634603" lon="7.813838">
        <ele>448.954675</ele>
        <time>2021-11-17T23:02:27.282Z</time>
      </trkpt>
      <trkpt lat="47.634638" lon="7.813802">
        <ele>448.618397</ele>
        <time>2021-11-17T23:02:27.639Z</time>
      </trkpt>
      <trkpt lat="47.634810" lon="7.813677">
        <ele>447.106057</ele>
        <time>2021-11-17T23:02:29.354Z</time>
      </trkpt>
      <trkpt lat="47.635241" lon="7.813237">
        <ele>442.975067</ele>
        <time>2021-11-17T23:02:33.954Z</time>
      </trkpt>
      <trkpt lat="47.635461" lon="7.813093">
        <ele>441.076338</ele>
        <time>2021-11-17T23:02:36.094Z</time>
      </trkpt>
      <trkpt lat="47.635537" lon="7.813043">
        <ele>440.422130</ele>
        <time>2021-11-17T23:02:36.834Z</time>
      </trkpt>
      <trkpt lat="47.635617" lon="7.812948">
        <ele>439.661343</ele>
        <time>2021-11-17T23:02:37.735Z</time>
      </trkpt>
      <trkpt lat="47.635678" lon="7.812872">
        <ele>439.069942</ele>
        <time>2021-11-17T23:02:38.455Z</time>
      </trkpt>
      <trkpt lat="47.635984" lon="7.812598">
        <ele>436.416257</ele>
        <time>2021-11-17T23:02:41.659Z</time>
      </trkpt>
      <trkpt lat="47.636234" lon="7.812469">
        <ele>434.450935</ele>
        <time>2021-11-17T23:02:44.053Z</time>
      </trkpt>
      <trkpt lat="47.636362" lon="7.812419">
        <ele>433.468130</ele>
        <time>2021-11-17T23:02:45.257Z</time>
      </trkpt>
      <trkpt lat="47.636514" lon="7.812384">
        <ele>432.325987</ele>
        <time>2021-11-17T23:02:46.615Z</time>
      </trkpt>
      <trkpt lat="47.637056" lon="7.812257">
        <ele>428.251645</ele>
        <time>2021-11-17T23:02:51.534Z</time>
      </trkpt>
      <trkpt lat="47.637370" lon="7.812117">
        <ele>425.757671</ele>
        <time>2021-11-17T23:02:54.438Z</time>
      </trkpt>
      <trkpt lat="47.637893" lon="7.811811">
        <ele>421.390132</ele>
        <time>2021-11-17T23:02:59.332Z</time>
      </trkpt>
      <trkpt lat="47.638511" lon="7.811552">
        <ele>416.401138</ele>
        <time>2021-11-17T23:03:05.029Z</time>
      </trkpt>
      <trkpt lat="47.638925" lon="7.811482">
        <ele>413.163974</ele>
        <time>2021-11-17T23:03:08.735Z</time>
      </trkpt>
      <trkpt lat="47.639086" lon="7.811458">
        <ele>412.377772</ele>
        <time>2021-11-17T23:03:10.211Z</time>
      </trkpt>
      <trkpt lat="47.639195" lon="7.811442">
        <ele>411.854757</ele>
        <time>2021-11-17T23:03:11.178Z</time>
      </trkpt>
      <trkpt lat="47.639796" lon="7.811469">
        <ele>408.983661</ele>
        <time>2021-11-17T23:03:16.780Z</time>
      </trkpt>
      <trkpt lat="47.639913" lon="7.811500">
        <ele>408.416152</ele>
        <time>2021-11-17T23:03:17.865Z</time>
      </trkpt>
      <trkpt lat="47.640114" lon="7.811584">
        <ele>407.419051</ele>
        <time>2021-11-17T23:03:19.934Z</time>
      </trkpt>
      <trkpt lat="47.640311" lon="7.811772">
        <ele>406.300693</ele>
        <time>2021-11-17T23:03:22.213Z</time>
      </trkpt>
      <trkpt lat="47.640406" lon="7.811979">
        <ele>405.494894</ele>
        <time>2021-11-17T23:03:24.025Z</time>
      </trkpt>
      <trkpt lat="47.640965" lon="7.814694">
        <ele>399.834402</ele>
        <time>2021-11-17T23:03:44.501Z</time>
      </trkpt>
      <trkpt lat="47.641246" lon="7.815390">
        <ele>396.602935</ele>
        <time>2021-11-17T23:03:49.793Z</time>
      </trkpt>
      <trkpt lat="47.641404" lon="7.815775">
        <ele>394.628816</ele>
        <time>2021-11-17T23:03:52.582Z</time>
      </trkpt>
      <trkpt lat="47.641514" lon="7.816229">
        <ele>392.516023</ele>
        <time>2021-11-17T23:03:55.485Z</time>
      </trkpt>
      <trkpt lat="47.641687" lon="7.816751">
        <ele>389.968515</ele>
        <time>2021-11-17T23:03:58.947Z</time>
      </trkpt>
      <trkpt lat="47.641819" lon="7.816919">
        <ele>388.838332</ele>
        <time>2021-11-17T23:04:00.459Z</time>
      </trkpt>
      <trkpt lat="47.641916" lon="7.816921">
        <ele>388.207815</ele>
        <time>2021-11-17T23:04:01.306Z</time>
      </trkpt>
      <trkpt lat="47.642138" lon="7.816906">
        <ele>386.630771</ele>
        <time>2021-11-17T23:04:03.246Z</time>
      </trkpt>
      <trkpt lat="47.642758" lon="7.816795">
        <ele>382.101613</ele>
        <time>2021-11-17T23:04:08.723Z</time>
      </trkpt>
      <trkpt lat="47.642952" lon="7.816765">
        <ele>380.687008</ele>
        <time>2021-11-17T23:04:10.442Z</time>
      </trkpt>
      <trkpt lat="47.643638" lon="7.816626">
        <ele>375.665632</ele>
        <time>2021-11-17T23:04:16.674Z</time>
      </trkpt>
      <trkpt lat="47.643909" lon="7.816574">
        <ele>374.513463</ele>
        <time>2021-11-17T23:04:19.285Z</time>
      </trkpt>
      <trkpt lat="47.644357" lon="7.816478">
        <ele>373.538893</ele>
        <time>2021-11-17T23:04:23.871Z</time>
      </trkpt>
      <trkpt lat="47.644797" lon="7.816399">
        <ele>372.584641</ele>
        <time>2021-11-17T23:04:29.009Z</time>
      </trkpt>
      <trkpt lat="47.644927" lon="7.816376">
        <ele>372.302763</ele>
        <time>2021-11-17T23:04:30.607Z</time>
      </trkpt>
      <trkpt lat="47.645154" lon="7.816347">
        <ele>371.812212</ele>
        <time>2021-11-17T23:04:33.477Z</time>
      </trkpt>
      <trkpt lat="47.645328" lon="7.816364">
        <ele>371.436769</ele>
        <time>2021-11-17T23:04:35.776Z</time>
      </trkpt>
      <trkpt lat="47.645421" lon="7.816394">
        <ele>371.231860</ele>
        <time>2021-11-17T23:04:37.061Z</time>
      </trkpt>
      <trkpt lat="47.645433" lon="7.816418">
        <ele>371.188507</ele>
        <time>2021-11-17T23:04:37.343Z</time>
      </trkpt>
      <trkpt lat="47.645449" lon="7.816438">
        <ele>371.143470</ele>
        <time>2021-11-17T23:04:37.628Z</time>
      </trkpt>
      <trkpt lat="47.645479" lon="7.816460">
        <ele>371.071425</ele>
        <time>2021-11-17T23:04:38.092Z</time>
      </trkpt>
      <trkpt lat="47.645574" lon="7.816439">
        <ele>370.979905</ele>
        <time>2021-11-17T23:04:39.415Z</time>
      </trkpt>
      <trkpt lat="47.645598" lon="7.816405">
        <ele>370.973553</ele>
        <time>2021-11-17T23:04:39.886Z</time>
      </trkpt>
      <trkpt lat="47.645612" lon="7.816369">
        <ele>370.968191</ele>
        <time>2021-11-17T23:04:40.273Z</time>
      </trkpt>
      <trkpt lat="47.645701" lon="7.816302">
        <ele>370.949084</ele>
        <time>2021-11-17T23:04:41.640Z</time>
      </trkpt>
      <trkpt lat="47.645797" lon="7.816274">
        <ele>370.930352</ele>
        <time>2021-11-17T23:04:43.004Z</time>
      </trkpt>
      <trkpt lat="47.645844" lon="7.816242">
        <ele>370.920452</ele>
        <time>2021-11-17T23:04:43.715Z</time>
      </trkpt>
      <trkpt lat="47.645949" lon="7.816228">
        <ele>370.900268</ele>
        <time>2021-11-17T23:04:45.222Z</time>
      </trkpt>
      <trkpt lat="47.646346" lon="7.816173">
        <ele>370.823926</ele>
        <time>2021-11-17T23:04:51.030Z</time>
      </trkpt>
      <trkpt lat="47.646609" lon="7.816150">
        <ele>370.773484</ele>
        <time>2021-11-17T23:04:54.819Z</time>
      </trkpt>
      <trkpt lat="47.646940" lon="7.816087">
        <ele>370.709590</ele>
        <time>2021-11-17T23:04:59.506Z</time>
      </trkpt>
      <trkpt lat="47.647306" lon="7.815996">
        <ele>370.631144</ele>
        <time>2021-11-17T23:05:04.887Z</time>
      </trkpt>
      <trkpt lat="47.647662" lon="7.815885">
        <ele>370.499024</ele>
        <time>2021-11-17T23:05:10.316Z</time>
      </trkpt>
      <trkpt lat="47.647716" lon="7.815862">
        <ele>370.478620</ele>
        <time>2021-11-17T23:05:11.090Z</time>
      </trkpt>
      <trkpt lat="47.647785" lon="7.815818">
        <ele>370.451345</ele>
        <time>2021-11-17T23:05:12.174Z</time>
      </trkpt>
      <trkpt lat="47.647894" lon="7.815775">
        <ele>370.410382</ele>
        <time>2021-11-17T23:05:13.827Z</time>
      </trkpt>
      <trkpt lat="47.647965" lon="7.815741">
        <ele>370.383286</ele>
        <time>2021-11-17T23:05:14.923Z</time>
      </trkpt>
      <trkpt lat="47.648042" lon="7.815683">
        <ele>370.351925</ele>
        <time>2021-11-17T23:05:16.107Z</time>
      </trkpt>
      <trkpt lat="47.648065" lon="7.815705">
        <ele>370.341987</ele>
        <time>2021-11-17T23:05:16.458Z</time>
      </trkpt>
      <trkpt lat="47.648144" lon="7.815719">
        <ele>370.313091</ele>
        <time>2021-11-17T23:05:17.617Z</time>
      </trkpt>
      <trkpt lat="47.648170" lon="7.815706">
        <ele>370.303127</ele>
        <time>2021-11-17T23:05:17.988Z</time>
      </trkpt>
      <trkpt lat="47.648193" lon="7.815685">
        <ele>370.293319</ele>
        <time>2021-11-17T23:05:18.358Z</time>
      </trkpt>
      <trkpt lat="47.648227" lon="7.815625">
        <ele>370.274135</ele>
        <time>2021-11-17T23:05:19.179Z</time>
      </trkpt>
      <trkpt lat="47.648236" lon="7.815588">
        <ele>370.264510</ele>
        <time>2021-11-17T23:05:19.545Z</time>
      </trkpt>
      <trkpt lat="47.648240" lon="7.815548">
        <ele>370.254616</ele>
        <time>2021-11-17T23:05:19.925Z</time>
      </trkpt>
      <trkpt lat="47.648238" lon="7.815508">
        <ele>370.244802</ele>
        <time>2021-11-17T23:05:20.288Z</time>
      </trkpt>
      <trkpt lat="47.648231" lon="7.815470">
        <ele>370.235163</ele>
        <time>2021-11-17T23:05:20.636Z</time>
      </trkpt>
      <trkpt lat="47.648218" lon="7.815437">
        <ele>370.225809</ele>
        <time>2021-11-17T23:05:20.972Z</time>
      </trkpt>
      <trkpt lat="47.648201" lon="7.815408">
        <ele>370.216403</ele>
        <time>2021-11-17T23:05:21.291Z</time>
      </trkpt>
      <trkpt lat="47.648181" lon="7.815385">
        <ele>370.207214</ele>
        <time>2021-11-17T23:05:21.623Z</time>
      </trkpt>
      <trkpt lat="47.648157" lon="7.815369">
        <ele>370.197659</ele>
        <time>2021-11-17T23:05:21.984Z</time>
      </trkpt>
      <trkpt lat="47.648132" lon="7.815361">
        <ele>370.188370</ele>
        <time>2021-11-17T23:05:22.322Z</time>
      </trkpt>
      <trkpt lat="47.648106" lon="7.815361">
        <ele>370.178927</ele>
        <time>2021-11-17T23:05:22.668Z</time>
      </trkpt>
      <trkpt lat="47.648028" lon="7.815252">
        <ele>370.140019</ele>
        <time>2021-11-17T23:05:24.136Z</time>
      </trkpt>
      <trkpt lat="47.647991" lon="7.815199">
        <ele>370.121344</ele>
        <time>2021-11-17T23:05:24.819Z</time>
      </trkpt>
      <trkpt lat="47.647872" lon="7.814837">
        <ele>370.022787</ele>
        <time>2021-11-17T23:05:28.265Z</time>
      </trkpt>
      <trkpt lat="47.647819" lon="7.814667">
        <ele>369.930719</ele>
        <time>2021-11-17T23:05:29.888Z</time>
      </trkpt>
      <trkpt lat="47.647768" lon="7.814442">
        <ele>369.710514</ele>
        <time>2021-11-17T23:05:31.803Z</time>
      </trkpt>
      <trkpt lat="47.647731" lon="7.814277">
        <ele>369.549206</ele>
        <time>2021-11-17T23:05:33.265Z</time>
      </trkpt>
      <trkpt lat="47.647634" lon="7.813776">
        <ele>369.065671</ele>
        <time>2021-11-17T23:05:37.450Z</time>
      </trkpt>
      <trkpt lat="47.647557" lon="7.813314">
        <ele>368.624204</ele>
        <time>2021-11-17T23:05:41.271Z</time>
      </trkpt>
      <trkpt lat="47.647492" lon="7.812403">
        <ele>367.774439</ele>
        <time>2021-11-17T23:05:48.222Z</time>
      </trkpt>
      <trkpt lat="47.647437" lon="7.810945">
        <ele>366.200349</ele>
        <time>2021-11-17T23:05:59.067Z</time>
      </trkpt>
      <trkpt lat="47.647424" lon="7.810611">
        <ele>365.827916</ele>
        <time>2021-11-17T23:06:01.553Z</time>
      </trkpt>
      <trkpt lat="47.647363" lon="7.809040">
        <ele>364.314072</ele>
        <time>2021-11-17T23:06:13.916Z</time>
      </trkpt>
      <trkpt lat="47.647343" lon="7.808643">
        <ele>364.095837</ele>
        <time>2021-11-17T23:06:17.184Z</time>
      </trkpt>
      <trkpt lat="47.647326" lon="7.807899">
        <ele>363.687757</ele>
        <time>2021-11-17T23:06:23.508Z</time>
      </trkpt>
      <trkpt lat="47.647303" lon="7.806931">
        <ele>363.156789</ele>
        <time>2021-11-17T23:06:32.145Z</time>
      </trkpt>
      <trkpt lat="47.647290" lon="7.806277">
        <ele>362.930377</ele>
        <time>2021-11-17T23:06:38.098Z</time>
      </trkpt>
      <trkpt lat="47.647320" lon="7.804903">
        <ele>362.528680</ele>
        <time>2021-11-17T23:06:51.124Z</time>
      </trkpt>
      <trkpt lat="47.647349" lon="7.804754">
        <ele>362.483362</ele>
        <time>2021-11-17T23:06:52.458Z</time>
      </trkpt>
      <trkpt lat="47.647425" lon="7.804363">
        <ele>362.364451</ele>
        <time>2021-11-17T23:06:56.173Z</time>
      </trkpt>
      <trkpt lat="47.647509" lon="7.803929">
        <ele>362.095263</ele>
        <time>2021-11-17T23:07:00.076Z</time>
      </trkpt>
      <trkpt lat="47.647677" lon="7.803299">
        <ele>361.501835</ele>
        <time>2021-11-17T23:07:05.617Z</time>
      </trkpt>
      <trkpt lat="47.647780" lon="7.802900">
        <ele>361.127602</ele>
        <time>2021-11-17T23:07:09.018Z</time>
      </trkpt>
      <trkpt lat="47.647896" lon="7.802634">
        <ele>360.850081</ele>
        <time>2021-11-17T23:07:11.459Z</time>
      </trkpt>
      <trkpt lat="47.648032" lon="7.802295">
        <ele>360.504519</ele>
        <time>2021-11-17T23:07:14.542Z</time>
      </trkpt>
      <trkpt lat="47.648175" lon="7.801942">
        <ele>360.143762</ele>
        <time>2021-11-17T23:07:17.684Z</time>
      </trkpt>
      <trkpt lat="47.648191" lon="7.801903">
        <ele>360.103770</ele>
        <time>2021-11-17T23:07:18.024Z</time>
      </trkpt>
      <trkpt lat="47.648544" lon="7.801029">
        <ele>359.048547</ele>
        <time>2021-11-17T23:07:25.593Z</time>
      </trkpt>
      <trkpt lat="47.648712" lon="7.800751">
        <ele>358.650648</ele>
        <time>2021-11-17T23:07:28.389Z</time>
      </trkpt>
      <trkpt lat="47.648726" lon="7.800730">
        <ele>358.619170</ele>
        <time>2021-11-17T23:07:28.603Z</time>
      </trkpt>
      <trkpt lat="47.648813" lon="7.800640">
        <ele>358.451460</ele>
        <time>2021-11-17T23:07:29.774Z</time>
      </trkpt>
      <trkpt lat="47.648813" lon="7.800640">
        <ele>358.451460</ele>
        <time>2021-11-17T23:07:29.777Z</time>
      </trkpt>
      <trkpt lat="47.648842" lon="7.800639">
        <ele>358.405584</ele>
        <time>2021-11-17T23:07:30.108Z</time>
      </trkpt>
      <trkpt lat="47.648906" lon="7.800592">
        <ele>358.292657</ele>
        <time>2021-11-17T23:07:30.922Z</time>
      </trkpt>
      <trkpt lat="47.648922" lon="7.800561">
        <ele>358.251049</ele>
        <time>2021-11-17T23:07:31.217Z</time>
      </trkpt>
      <trkpt lat="47.649025" lon="7.800505">
        <ele>358.077569</ele>
        <time>2021-11-17T23:07:32.434Z</time>
      </trkpt>
      <trkpt lat="47.649108" lon="7.800464">
        <ele>357.939225</ele>
        <time>2021-11-17T23:07:33.395Z</time>
      </trkpt>
      <trkpt lat="47.649238" lon="7.800402">
        <ele>357.723275</ele>
        <time>2021-11-17T23:07:34.989Z</time>
      </trkpt>
      <trkpt lat="47.649415" lon="7.800336">
        <ele>357.434648</ele>
        <time>2021-11-17T23:07:37.057Z</time>
      </trkpt>
      <trkpt lat="47.649440" lon="7.800327">
        <ele>357.393964</ele>
        <time>2021-11-17T23:07:37.339Z</time>
      </trkpt>
      <trkpt lat="47.649625" lon="7.800258">
        <ele>357.122135</ele>
        <time>2021-11-17T23:07:39.634Z</time>
      </trkpt>
      <trkpt lat="47.649707" lon="7.800227">
        <ele>357.141989</ele>
        <time>2021-11-17T23:07:40.684Z</time>
      </trkpt>
      <trkpt lat="47.650046" lon="7.800072">
        <ele>357.225217</ele>
        <time>2021-11-17T23:07:45.536Z</time>
      </trkpt>
      <trkpt lat="47.650174" lon="7.800012">
        <ele>357.256712</ele>
        <time>2021-11-17T23:07:47.808Z</time>
      </trkpt>
      <trkpt lat="47.650489" lon="7.799868">
        <ele>357.334047</ele>
        <time>2021-11-17T23:07:53.227Z</time>
      </trkpt>
      <trkpt lat="47.650602" lon="7.799816">
        <ele>357.361806</ele>
        <time>2021-11-17T23:07:55.189Z</time>
      </trkpt>
      <trkpt lat="47.650980" lon="7.799643">
        <ele>357.454617</ele>
        <time>2021-11-17T23:08:02.462Z</time>
      </trkpt>
      <trkpt lat="47.651021" lon="7.799621">
        <ele>357.464846</ele>
        <time>2021-11-17T23:08:03.219Z</time>
      </trkpt>
      <trkpt lat="47.651401" lon="7.799445">
        <ele>357.563537</ele>
        <time>2021-11-17T23:08:10.487Z</time>
      </trkpt>
      <trkpt lat="47.651510" lon="7.799390">
        <ele>357.598515</ele>
        <time>2021-11-17T23:08:13.582Z</time>
      </trkpt>
      <trkpt lat="47.651827" lon="7.799068">
        <ele>357.715214</ele>
        <time>2021-11-17T23:08:22.346Z</time>
      </trkpt>
      <trkpt lat="47.651991" lon="7.798889">
        <ele>357.777059</ele>
        <time>2021-11-17T23:08:26.215Z</time>
      </trkpt>
      <trkpt lat="47.652373" lon="7.798474">
        <ele>357.920877</ele>
        <time>2021-11-17T23:08:36.953Z</time>
      </trkpt>
      <trkpt lat="47.652486" lon="7.798377">
        <ele>357.960535</ele>
        <time>2021-11-17T23:08:39.341Z</time>
      </trkpt>
      <trkpt lat="47.652590" lon="7.798305">
        <ele>357.995400</ele>
        <time>2021-11-17T23:08:41.658Z</time>
      </trkpt>
      <trkpt lat="47.652811" lon="7.798152">
        <ele>358.069486</ele>
        <time>2021-11-17T23:08:46.661Z</time>
      </trkpt>
      <trkpt lat="47.653088" lon="7.798043">
        <ele>358.029049</ele>
        <time>2021-11-17T23:08:52.170Z</time>
      </trkpt>
      <trkpt lat="47.653274" lon="7.797996">
        <ele>357.981640</ele>
        <time>2021-11-17T23:08:55.497Z</time>
      </trkpt>
      <trkpt lat="47.653601" lon="7.798001">
        <ele>357.899469</ele>
        <time>2021-11-17T23:09:01.479Z</time>
      </trkpt>
      <trkpt lat="47.653659" lon="7.798008">
        <ele>357.884847</ele>
        <time>2021-11-17T23:09:02.606Z</time>
      </trkpt>
      <trkpt lat="47.653906" lon="7.798052">
        <ele>357.822338</ele>
        <time>2021-11-17T23:09:07.078Z</time>
      </trkpt>
      <trkpt lat="47.654152" lon="7.798115">
        <ele>357.759611</ele>
        <time>2021-11-17T23:09:12.040Z</time>
      </trkpt>
      <trkpt lat="47.654972" lon="7.798325">
        <ele>357.744030</ele>
        <time>2021-11-17T23:09:28.848Z</time>
      </trkpt>
      <trkpt lat="47.655261" lon="7.798389">
        <ele>357.839162</ele>
        <time>2021-11-17T23:09:35.272Z</time>
      </trkpt>
      <trkpt lat="47.655580" lon="7.798469">
        <ele>357.944492</ele>
        <time>2021-11-17T23:09:42.353Z</time>
      </trkpt>
      <trkpt lat="47.656074" lon="7.798592">
        <ele>358.107573</ele>
        <time>2021-11-17T23:09:53.342Z</time>
      </trkpt>
      <trkpt lat="47.656097" lon="7.798598">
        <ele>358.115176</ele>
        <time>2021-11-17T23:09:53.873Z</time>
      </trkpt>
      <trkpt lat="47.656579" lon="7.798702">
        <ele>358.304614</ele>
        <time>2021-11-17T23:10:04.697Z</time>
      </trkpt>
      <trkpt lat="47.656780" lon="7.798744">
        <ele>358.408933</ele>
        <time>2021-11-17T23:10:09.235Z</time>
      </trkpt>
      <trkpt lat="47.656989" lon="7.798756">
        <ele>358.516427</ele>
        <time>2021-11-17T23:10:13.889Z</time>
      </trkpt>
      <trkpt lat="47.657806" lon="7.798860">
        <ele>358.937854</ele>
        <time>2021-11-17T23:10:32.298Z</time>
      </trkpt>
      <trkpt lat="47.658094" lon="7.798895">
        <ele>359.086364</ele>
        <time>2021-11-17T23:10:38.618Z</time>
      </trkpt>
      <trkpt lat="47.658412" lon="7.798888">
        <ele>359.243937</ele>
        <time>2021-11-17T23:10:45.551Z</time>
      </trkpt>
      <trkpt lat="47.658617" lon="7.798885">
        <ele>359.343403</ele>
        <time>2021-11-17T23:10:50.191Z</time>
      </trkpt>
      <trkpt lat="47.658702" lon="7.798884">
        <ele>359.384645</ele>
        <time>2021-11-17T23:10:52.071Z</time>
      </trkpt>
      <trkpt lat="47.658990" lon="7.798898">
        <ele>359.524451</ele>
        <time>2021-11-17T23:10:58.533Z</time>
      </trkpt>
      <trkpt lat="47.659142" lon="7.798947">
        <ele>359.599916</ele>
        <time>2021-11-17T23:11:01.932Z</time>
      </trkpt>
      <trkpt lat="47.659353" lon="7.799038">
        <ele>359.706520</ele>
        <time>2021-11-17T23:11:06.867Z</time>
      </trkpt>
      <trkpt lat="47.659617" lon="7.799151">
        <ele>359.839824</ele>
        <time>2021-11-17T23:11:12.936Z</time>
      </trkpt>
      <trkpt lat="47.659695" lon="7.799185">
        <ele>359.879265</ele>
        <time>2021-11-17T23:11:14.758Z</time>
      </trkpt>
      <trkpt lat="47.659866" lon="7.799258">
        <ele>359.965592</ele>
        <time>2021-11-17T23:11:18.753Z</time>
      </trkpt>
      <trkpt lat="47.660413" lon="7.799490">
        <ele>360.272996</ele>
        <time>2021-11-17T23:11:31.173Z</time>
      </trkpt>
      <trkpt lat="47.660755" lon="7.799654">
        <ele>360.471791</ele>
        <time>2021-11-17T23:11:39.017Z</time>
      </trkpt>
      <trkpt lat="47.660793" lon="7.799673">
        <ele>360.493970</ele>
        <time>2021-11-17T23:11:39.933Z</time>
      </trkpt>
      <trkpt lat="47.661187" lon="7.799870">
        <ele>360.723932</ele>
        <time>2021-11-17T23:11:49.240Z</time>
      </trkpt>
      <trkpt lat="47.661224" lon="7.799885">
        <ele>360.745148</ele>
        <time>2021-11-17T23:11:50.201Z</time>
      </trkpt>
      <trkpt lat="47.661603" lon="7.800090">
        <ele>360.968265</ele>
        <time>2021-11-17T23:11:59.455Z</time>
      </trkpt>
      <trkpt lat="47.662007" lon="7.800299">
        <ele>361.268279</ele>
        <time>2021-11-17T23:12:09.240Z</time>
      </trkpt>
      <trkpt lat="47.662416" lon="7.800534">
        <ele>361.590698</ele>
        <time>2021-11-17T23:12:19.857Z</time>
      </trkpt>
      <trkpt lat="47.663470" lon="7.800659">
        <ele>362.348455</ele>
        <time>2021-11-17T23:12:44.049Z</time>
      </trkpt>
      <trkpt lat="47.663623" lon="7.800669">
        <ele>362.394916</ele>
        <time>2021-11-17T23:12:47.634Z</time>
      </trkpt>
      <trkpt lat="47.663648" lon="7.800671">
        <ele>362.402512</ele>
        <time>2021-11-17T23:12:48.189Z</time>
      </trkpt>
      <trkpt lat="47.663842" lon="7.800716">
        <ele>362.462079</ele>
        <time>2021-11-17T23:12:52.440Z</time>
      </trkpt>
      <trkpt lat="47.664106" lon="7.800746">
        <ele>362.542404</ele>
        <time>2021-11-17T23:12:58.252Z</time>
      </trkpt>
      <trkpt lat="47.664689" lon="7.800933">
        <ele>362.723349</ele>
        <time>2021-11-17T23:13:11.101Z</time>
      </trkpt>
      <trkpt lat="47.664798" lon="7.800967">
        <ele>362.757138</ele>
        <time>2021-11-17T23:13:13.383Z</time>
      </trkpt>
      <trkpt lat="47.664905" lon="7.801009">
        <ele>362.790714</ele>
        <time>2021-11-17T23:13:15.055Z</time>
      </trkpt>
      <trkpt lat="47.664978" lon="7.801054">
        <ele>362.814693</ele>
        <time>2021-11-17T23:13:16.375Z</time>
      </trkpt>
      <trkpt lat="47.665172" lon="7.801118">
        <ele>362.874982</ele>
        <time>2021-11-17T23:13:19.412Z</time>
      </trkpt>
      <trkpt lat="47.665245" lon="7.801124">
        <ele>362.882456</ele>
        <time>2021-11-17T23:13:20.479Z</time>
      </trkpt>
      <trkpt lat="47.665316" lon="7.801149">
        <ele>362.885232</ele>
        <time>2021-11-17T23:13:21.513Z</time>
      </trkpt>
      <trkpt lat="47.665387" lon="7.801168">
        <ele>362.887977</ele>
        <time>2021-11-17T23:13:22.525Z</time>
      </trkpt>
      <trkpt lat="47.665445" lon="7.801185">
        <ele>362.890226</ele>
        <time>2021-11-17T23:13:23.357Z</time>
      </trkpt>
      <trkpt lat="47.665568" lon="7.801222">
        <ele>362.895000</ele>
        <time>2021-11-17T23:13:25.093Z</time>
      </trkpt>
      <trkpt lat="47.665926" lon="7.801299">
        <ele>362.908762</ele>
        <time>2021-11-17T23:13:30.274Z</time>
      </trkpt>
      <trkpt lat="47.667457" lon="7.801591">
        <ele>363.084530</ele>
        <time>2021-11-17T23:13:53.860Z</time>
      </trkpt>
      <trkpt lat="47.667683" lon="7.801634">
        <ele>363.147423</ele>
        <time>2021-11-17T23:13:57.478Z</time>
      </trkpt>
      <trkpt lat="47.668510" lon="7.801819">
        <ele>363.378273</ele>
        <time>2021-11-17T23:14:10.733Z</time>
      </trkpt>
      <trkpt lat="47.669163" lon="7.802025">
        <ele>363.689839</ele>
        <time>2021-11-17T23:14:21.913Z</time>
      </trkpt>
      <trkpt lat="47.669789" lon="7.802222">
        <ele>364.058165</ele>
        <time>2021-11-17T23:14:32.826Z</time>
      </trkpt>
      <trkpt lat="47.670454" lon="7.802523">
        <ele>364.458323</ele>
        <time>2021-11-17T23:14:45.083Z</time>
      </trkpt>
      <trkpt lat="47.671719" lon="7.803219">
        <ele>365.485888</ele>
        <time>2021-11-17T23:15:09.099Z</time>
      </trkpt>
      <trkpt lat="47.672584" lon="7.803691">
        <ele>366.250806</ele>
        <time>2021-11-17T23:15:25.624Z</time>
      </trkpt>
      <trkpt lat="47.672895" lon="7.803860">
        <ele>366.549138</ele>
        <time>2021-11-17T23:15:31.582Z</time>
      </trkpt>
      <trkpt lat="47.673196" lon="7.804045">
        <ele>366.842599</ele>
        <time>2021-11-17T23:15:37.487Z</time>
      </trkpt>
      <trkpt lat="47.673946" lon="7.804566">
        <ele>367.614734</ele>
        <time>2021-11-17T23:15:53.245Z</time>
      </trkpt>
      <trkpt lat="47.674603" lon="7.805215">
        <ele>368.498645</ele>
        <time>2021-11-17T23:16:08.515Z</time>
      </trkpt>
      <trkpt lat="47.674775" lon="7.805343">
        <ele>368.714156</ele>
        <time>2021-11-17T23:16:12.345Z</time>
      </trkpt>
      <trkpt lat="47.674984" lon="7.805448">
        <ele>368.961312</ele>
        <time>2021-11-17T23:16:16.518Z</time>
      </trkpt>
      <trkpt lat="47.675373" lon="7.805530">
        <ele>369.401439</ele>
        <time>2021-11-17T23:16:24.140Z</time>
      </trkpt>
      <trkpt lat="47.675967" lon="7.805369">
        <ele>370.123221</ele>
        <time>2021-11-17T23:16:35.874Z</time>
      </trkpt>
      <trkpt lat="47.676130" lon="7.805401">
        <ele>370.321761</ele>
        <time>2021-11-17T23:16:39.161Z</time>
      </trkpt>
      <trkpt lat="47.678058" lon="7.806976">
        <ele>373.368190</ele>
        <time>2021-11-17T23:17:22.666Z</time>
      </trkpt>
      <trkpt lat="47.678361" lon="7.807188">
        <ele>373.892734</ele>
        <time>2021-11-17T23:17:30.185Z</time>
      </trkpt>
      <trkpt lat="47.678488" lon="7.807276">
        <ele>374.112208</ele>
        <time>2021-11-17T23:17:33.526Z</time>
      </trkpt>
      <trkpt lat="47.678718" lon="7.807469">
        <ele>374.546030</ele>
        <time>2021-11-17T23:17:39.404Z</time>
      </trkpt>
      <trkpt lat="47.679035" lon="7.807798">
        <ele>375.444756</ele>
        <time>2021-11-17T23:17:48.719Z</time>
      </trkpt>
      <trkpt lat="47.679093" lon="7.807855">
        <ele>375.606379</ele>
        <time>2021-11-17T23:17:50.493Z</time>
      </trkpt>
      <trkpt lat="47.679211" lon="7.807962">
        <ele>375.927671</ele>
        <time>2021-11-17T23:17:53.796Z</time>
      </trkpt>
      <trkpt lat="47.679337" lon="7.808074">
        <ele>376.268921</ele>
        <time>2021-11-17T23:17:57.307Z</time>
      </trkpt>
      <trkpt lat="47.679509" lon="7.808150">
        <ele>376.685952</ele>
        <time>2021-11-17T23:18:01.649Z</time>
      </trkpt>
      <trkpt lat="47.679852" lon="7.808259">
        <ele>377.501105</ele>
        <time>2021-11-17T23:18:10.104Z</time>
      </trkpt>
      <trkpt lat="47.680002" lon="7.808310">
        <ele>377.858713</ele>
        <time>2021-11-17T23:18:13.888Z</time>
      </trkpt>
      <trkpt lat="47.680190" lon="7.808369">
        <ele>378.305260</ele>
        <time>2021-11-17T23:18:18.919Z</time>
      </trkpt>
      <trkpt lat="47.680296" lon="7.808398">
        <ele>378.555741</ele>
        <time>2021-11-17T23:18:21.773Z</time>
      </trkpt>
      <trkpt lat="47.680998" lon="7.808558">
        <ele>380.003833</ele>
        <time>2021-11-17T23:18:38.997Z</time>
      </trkpt>
      <trkpt lat="47.681112" lon="7.808625">
        <ele>380.251347</ele>
        <time>2021-11-17T23:18:41.679Z</time>
      </trkpt>
      <trkpt lat="47.681354" lon="7.808953">
        <ele>380.912752</ele>
        <time>2021-11-17T23:18:48.783Z</time>
      </trkpt>
      <trkpt lat="47.681416" lon="7.808985">
        <ele>381.045264</ele>
        <time>2021-11-17T23:18:50.530Z</time>
      </trkpt>
      <trkpt lat="47.681479" lon="7.808934">
        <ele>381.190116</ele>
        <time>2021-11-17T23:18:51.964Z</time>
      </trkpt>
      <trkpt lat="47.681525" lon="7.808831">
        <ele>381.358117</ele>
        <time>2021-11-17T23:18:53.675Z</time>
      </trkpt>
      <trkpt lat="47.681566" lon="7.808766">
        <ele>381.479183</ele>
        <time>2021-11-17T23:18:55.118Z</time>
      </trkpt>
      <trkpt lat="47.681743" lon="7.808468">
        <ele>382.019324</ele>
        <time>2021-11-17T23:19:00.720Z</time>
      </trkpt>
      <trkpt lat="47.681980" lon="7.808264">
        <ele>382.587931</ele>
        <time>2021-11-17T23:19:06.492Z</time>
      </trkpt>
      <trkpt lat="47.682788" lon="7.807894">
        <ele>384.391139</ele>
        <time>2021-11-17T23:19:25.307Z</time>
      </trkpt>
      <trkpt lat="47.683018" lon="7.807663">
        <ele>384.983252</ele>
        <time>2021-11-17T23:19:31.667Z</time>
      </trkpt>
      <trkpt lat="47.683100" lon="7.807543">
        <ele>385.228744</ele>
        <time>2021-11-17T23:19:34.545Z</time>
      </trkpt>
      <trkpt lat="47.683227" lon="7.807391">
        <ele>385.576572</ele>
        <time>2021-11-17T23:19:37.939Z</time>
      </trkpt>
      <trkpt lat="47.683298" lon="7.807196">
        <ele>385.894868</ele>
        <time>2021-11-17T23:19:42.371Z</time>
      </trkpt>
      <trkpt lat="47.683414" lon="7.806933">
        <ele>386.475710</ele>
        <time>2021-11-17T23:19:47.354Z</time>
      </trkpt>
      <trkpt lat="47.683440" lon="7.806883">
        <ele>386.621051</ele>
        <time>2021-11-17T23:19:49.062Z</time>
      </trkpt>
      <trkpt lat="47.683762" lon="7.806139">
        <ele>388.655777</ele>
        <time>2021-11-17T23:20:05.966Z</time>
      </trkpt>
      <trkpt lat="47.684002" lon="7.805825">
        <ele>389.748645</ele>
        <time>2021-11-17T23:20:16.113Z</time>
      </trkpt>
      <trkpt lat="47.685433" lon="7.804734">
        <ele>393.922971</ele>
        <time>2021-11-17T23:21:01.433Z</time>
      </trkpt>
      <trkpt lat="47.685474" lon="7.804690">
        <ele>394.018808</ele>
        <time>2021-11-17T23:21:03.125Z</time>
      </trkpt>
      <trkpt lat="47.685544" lon="7.804620">
        <ele>394.178694</ele>
        <time>2021-11-17T23:21:04.303Z</time>
      </trkpt>
      <trkpt lat="47.686085" lon="7.803707">
        <ele>395.657551</ele>
        <time>2021-11-17T23:21:18.762Z</time>
      </trkpt>
      <trkpt lat="47.686282" lon="7.803470">
        <ele>395.356053</ele>
        <time>2021-11-17T23:21:22.274Z</time>
      </trkpt>
      <trkpt lat="47.686515" lon="7.803165">
        <ele>394.986698</ele>
        <time>2021-11-17T23:21:26.359Z</time>
      </trkpt>
      <trkpt lat="47.686861" lon="7.802763">
        <ele>394.464273</ele>
        <time>2021-11-17T23:21:31.279Z</time>
      </trkpt>
      <trkpt lat="47.686988" lon="7.802664">
        <ele>394.293694</ele>
        <time>2021-11-17T23:21:32.931Z</time>
      </trkpt>
      <trkpt lat="47.687345" lon="7.802442">
        <ele>393.833404</ele>
        <time>2021-11-17T23:21:37.260Z</time>
      </trkpt>
      <trkpt lat="47.687529" lon="7.802242">
        <ele>393.562241</ele>
        <time>2021-11-17T23:21:39.774Z</time>
      </trkpt>
      <trkpt lat="47.688168" lon="7.801084">
        <ele>392.201128</ele>
        <time>2021-11-17T23:21:50.951Z</time>
      </trkpt>
      <trkpt lat="47.688515" lon="7.800635">
        <ele>391.578727</ele>
        <time>2021-11-17T23:21:56.330Z</time>
      </trkpt>
      <trkpt lat="47.688706" lon="7.800220">
        <ele>391.121015</ele>
        <time>2021-11-17T23:22:00.302Z</time>
      </trkpt>
      <trkpt lat="47.688835" lon="7.799732">
        <ele>392.506881</ele>
        <time>2021-11-17T23:22:06.430Z</time>
      </trkpt>
      <trkpt lat="47.688987" lon="7.799109">
        <ele>394.295387</ele>
        <time>2021-11-17T23:22:15.436Z</time>
      </trkpt>
      <trkpt lat="47.689229" lon="7.798474">
        <ele>396.264840</ele>
        <time>2021-11-17T23:22:27.964Z</time>
      </trkpt>
      <trkpt lat="47.689312" lon="7.798158">
        <ele>397.180340</ele>
        <time>2021-11-17T23:22:35.555Z</time>
      </trkpt>
      <trkpt lat="47.689375" lon="7.798016">
        <ele>397.639347</ele>
        <time>2021-11-17T23:22:39.046Z</time>
      </trkpt>
      <trkpt lat="47.689453" lon="7.798011">
        <ele>397.952375</ele>
        <time>2021-11-17T23:22:46.532Z</time>
      </trkpt>
      <trkpt lat="47.689913" lon="7.798189">
        <ele>403.611111</ele>
        <time>2021-11-17T23:23:20.012Z</time>
      </trkpt>
      <trkpt lat="47.690453" lon="7.798048">
        <ele>411.190827</ele>
        <time>2021-11-17T23:23:57.612Z</time>
      </trkpt>
      <trkpt lat="47.690750" lon="7.798123">
        <ele>415.355628</ele>
        <time>2021-11-17T23:24:22.641Z</time>
      </trkpt>
      <trkpt lat="47.690843" lon="7.798193">
        <ele>416.796919</ele>
        <time>2021-11-17T23:24:32.250Z</time>
      </trkpt>
      <trkpt lat="47.690896" lon="7.798268">
        <ele>417.808829</ele>
        <time>2021-11-17T23:24:40.132Z</time>
      </trkpt>
      <trkpt lat="47.691401" lon="7.799241">
        <ele>425.784354</ele>
        <time>2021-11-17T23:25:31.925Z</time>
      </trkpt>
      <trkpt lat="47.691651" lon="7.799515">
        <ele>427.625095</ele>
        <time>2021-11-17T23:25:51.657Z</time>
      </trkpt>
      <trkpt lat="47.691803" lon="7.799609">
        <ele>428.600617</ele>
        <time>2021-11-17T23:25:56.555Z</time>
      </trkpt>
      <trkpt lat="47.691891" lon="7.799651">
        <ele>429.148267</ele>
        <time>2021-11-17T23:26:02.899Z</time>
      </trkpt>
      <trkpt lat="47.691989" lon="7.799711">
        <ele>429.776298</ele>
        <time>2021-11-17T23:26:09.710Z</time>
      </trkpt>
      <trkpt lat="47.692114" lon="7.799774">
        <ele>430.558389</ele>
        <time>2021-11-17T23:26:11.745Z</time>
      </trkpt>
      <trkpt lat="47.692919" lon="7.800150">
        <ele>431.699337</ele>
        <time>2021-11-17T23:26:20.719Z</time>
      </trkpt>
      <trkpt lat="47.693323" lon="7.800215">
        <ele>428.674993</ele>
        <time>2021-11-17T23:26:24.261Z</time>
      </trkpt>
      <trkpt lat="47.693842" lon="7.800057">
        <ele>424.732084</ele>
        <time>2021-11-17T23:26:28.859Z</time>
      </trkpt>
      <trkpt lat="47.694177" lon="7.799825">
        <ele>421.981284</ele>
        <time>2021-11-17T23:26:32.072Z</time>
      </trkpt>
      <trkpt lat="47.694533" lon="7.799393">
        <ele>419.423416</ele>
        <time>2021-11-17T23:26:36.092Z</time>
      </trkpt>
      <trkpt lat="47.694748" lon="7.798935">
        <ele>417.896158</ele>
        <time>2021-11-17T23:26:39.400Z</time>
      </trkpt>
      <trkpt lat="47.694841" lon="7.798629">
        <ele>416.977849</ele>
        <time>2021-11-17T23:26:41.412Z</time>
      </trkpt>
      <trkpt lat="47.695210" lon="7.796547">
        <ele>416.132910</ele>
        <time>2021-11-17T23:27:00.899Z</time>
      </trkpt>
      <trkpt lat="47.695281" lon="7.796388">
        <ele>416.886777</ele>
        <time>2021-11-17T23:27:04.334Z</time>
      </trkpt>
      <trkpt lat="47.695384" lon="7.796279">
        <ele>417.629069</ele>
        <time>2021-11-17T23:27:10.587Z</time>
      </trkpt>
      <trkpt lat="47.695609" lon="7.796131">
        <ele>419.073448</ele>
        <time>2021-11-17T23:27:20.056Z</time>
      </trkpt>
      <trkpt lat="47.695641" lon="7.796119">
        <ele>419.267176</ele>
        <time>2021-11-17T23:27:21.892Z</time>
      </trkpt>
      <trkpt lat="47.695783" lon="7.796062">
        <ele>420.130589</ele>
        <time>2021-11-17T23:27:30.772Z</time>
      </trkpt>
      <trkpt lat="47.696810" lon="7.795970">
        <ele>426.276909</ele>
        <time>2021-11-17T23:28:27.750Z</time>
      </trkpt>
      <trkpt lat="47.697375" lon="7.796067">
        <ele>429.760682</ele>
        <time>2021-11-17T23:28:57.235Z</time>
      </trkpt>
      <trkpt lat="47.697776" lon="7.796266">
        <ele>432.350278</ele>
        <time>2021-11-17T23:29:11.864Z</time>
      </trkpt>
      <trkpt lat="47.698501" lon="7.797094">
        <ele>432.871678</ele>
        <time>2021-11-17T23:29:23.825Z</time>
      </trkpt>
      <trkpt lat="47.698783" lon="7.797250">
        <ele>431.810701</ele>
        <time>2021-11-17T23:29:27.240Z</time>
      </trkpt>
      <trkpt lat="47.699039" lon="7.797223">
        <ele>430.905803</ele>
        <time>2021-11-17T23:29:29.565Z</time>
      </trkpt>
      <trkpt lat="47.699769" lon="7.796637">
        <ele>427.781634</ele>
        <time>2021-11-17T23:29:37.203Z</time>
      </trkpt>
      <trkpt lat="47.699809" lon="7.796599">
        <ele>427.532200</ele>
        <time>2021-11-17T23:29:37.595Z</time>
      </trkpt>
      <trkpt lat="47.699950" lon="7.796524">
        <ele>426.745377</ele>
        <time>2021-11-17T23:29:39.322Z</time>
      </trkpt>
      <trkpt lat="47.700424" lon="7.796461">
        <ele>424.245133</ele>
        <time>2021-11-17T23:29:43.821Z</time>
      </trkpt>
      <trkpt lat="47.700757" lon="7.796605">
        <ele>422.423033</ele>
        <time>2021-11-17T23:29:47.010Z</time>
      </trkpt>
      <trkpt lat="47.701016" lon="7.796895">
        <ele>420.719210</ele>
        <time>2021-11-17T23:29:50.010Z</time>
      </trkpt>
      <trkpt lat="47.701286" lon="7.797436">
        <ele>418.574257</ele>
        <time>2021-11-17T23:29:54.376Z</time>
      </trkpt>
      <trkpt lat="47.701387" lon="7.797717">
        <ele>417.893197</ele>
        <time>2021-11-17T23:29:56.726Z</time>
      </trkpt>
      <trkpt lat="47.701603" lon="7.798419">
        <ele>416.242979</ele>
        <time>2021-11-17T23:30:02.051Z</time>
      </trkpt>
      <trkpt lat="47.701806" lon="7.798838">
        <ele>415.139229</ele>
        <time>2021-11-17T23:30:05.572Z</time>
      </trkpt>
      <trkpt lat="47.701995" lon="7.799018">
        <ele>414.426097</ele>
        <time>2021-11-17T23:30:07.877Z</time>
      </trkpt>
      <trkpt lat="47.702253" lon="7.799139">
        <ele>413.566656</ele>
        <time>2021-11-17T23:30:10.630Z</time>
      </trkpt>
      <trkpt lat="47.702720" lon="7.799231">
        <ele>413.016717</ele>
        <time>2021-11-17T23:30:15.458Z</time>
      </trkpt>
      <trkpt lat="47.703086" lon="7.799224">
        <ele>412.809315</ele>
        <time>2021-11-17T23:30:19.682Z</time>
      </trkpt>
      <trkpt lat="47.703295" lon="7.799223">
        <ele>412.690889</ele>
        <time>2021-11-17T23:30:22.585Z</time>
      </trkpt>
      <trkpt lat="47.703581" lon="7.799274">
        <ele>412.527672</ele>
        <time>2021-11-17T23:30:26.629Z</time>
      </trkpt>
      <trkpt lat="47.704415" lon="7.799599">
        <ele>412.962914</ele>
        <time>2021-11-17T23:30:43.586Z</time>
      </trkpt>
      <trkpt lat="47.704607" lon="7.799633">
        <ele>413.470787</ele>
        <time>2021-11-17T23:30:48.206Z</time>
      </trkpt>
      <trkpt lat="47.704720" lon="7.799644">
        <ele>413.768227</ele>
        <time>2021-11-17T23:30:50.975Z</time>
      </trkpt>
      <trkpt lat="47.705001" lon="7.799646">
        <ele>414.506306</ele>
        <time>2021-11-17T23:30:58.713Z</time>
      </trkpt>
      <trkpt lat="47.705257" lon="7.799632">
        <ele>415.179168</ele>
        <time>2021-11-17T23:31:05.630Z</time>
      </trkpt>
      <trkpt lat="47.706285" lon="7.799516">
        <ele>418.391306</ele>
        <time>2021-11-17T23:31:33.917Z</time>
      </trkpt>
      <trkpt lat="47.706361" lon="7.799500">
        <ele>418.698846</ele>
        <time>2021-11-17T23:31:36.682Z</time>
      </trkpt>
      <trkpt lat="47.706428" lon="7.799486">
        <ele>418.969927</ele>
        <time>2021-11-17T23:31:38.405Z</time>
      </trkpt>
      <trkpt lat="47.706866" lon="7.799207">
        <ele>420.879229</ele>
        <time>2021-11-17T23:31:52.163Z</time>
      </trkpt>
      <trkpt lat="47.707554" lon="7.798371">
        <ele>424.399476</ele>
        <time>2021-11-17T23:32:22.913Z</time>
      </trkpt>
      <trkpt lat="47.707833" lon="7.798146">
        <ele>425.503233</ele>
        <time>2021-11-17T23:32:33.018Z</time>
      </trkpt>
      <trkpt lat="47.708081" lon="7.797985">
        <ele>426.444250</ele>
        <time>2021-11-17T23:32:41.136Z</time>
      </trkpt>
      <trkpt lat="47.708492" lon="7.797738">
        <ele>427.985779</ele>
        <time>2021-11-17T23:32:53.940Z</time>
      </trkpt>
      <trkpt lat="47.708802" lon="7.797533">
        <ele>429.165587</ele>
        <time>2021-11-17T23:33:03.431Z</time>
      </trkpt>
      <trkpt lat="47.709006" lon="7.797377">
        <ele>429.963320</ele>
        <time>2021-11-17T23:33:09.250Z</time>
      </trkpt>
      <trkpt lat="47.710221" lon="7.795853">
        <ele>433.740236</ele>
        <time>2021-11-17T23:33:45.464Z</time>
      </trkpt>
      <trkpt lat="47.710566" lon="7.795581">
        <ele>434.652325</ele>
        <time>2021-11-17T23:33:55.369Z</time>
      </trkpt>
      <trkpt lat="47.710884" lon="7.795563">
        <ele>435.486368</ele>
        <time>2021-11-17T23:34:03.640Z</time>
      </trkpt>
      <trkpt lat="47.711006" lon="7.795566">
        <ele>435.806159</ele>
        <time>2021-11-17T23:34:07.605Z</time>
      </trkpt>
      <trkpt lat="47.711772" lon="7.795647">
        <ele>437.818825</ele>
        <time>2021-11-17T23:34:28.056Z</time>
      </trkpt>
      <trkpt lat="47.712384" lon="7.795687">
        <ele>439.217489</ele>
        <time>2021-11-17T23:34:43.621Z</time>
      </trkpt>
      <trkpt lat="47.713112" lon="7.795601">
        <ele>439.286038</ele>
        <time>2021-11-17T23:34:56.376Z</time>
      </trkpt>
      <trkpt lat="47.713674" lon="7.795304">
        <ele>439.342025</ele>
        <time>2021-11-17T23:35:03.577Z</time>
      </trkpt>
      <trkpt lat="47.714002" lon="7.794949">
        <ele>439.399884</ele>
        <time>2021-11-17T23:35:08.315Z</time>
      </trkpt>
      <trkpt lat="47.714257" lon="7.794564">
        <ele>439.890679</ele>
        <time>2021-11-17T23:35:13.024Z</time>
      </trkpt>
      <trkpt lat="47.714438" lon="7.794381">
        <ele>440.186255</ele>
        <time>2021-11-17T23:35:17.249Z</time>
      </trkpt>
      <trkpt lat="47.715017" lon="7.794043">
        <ele>441.026174</ele>
        <time>2021-11-17T23:35:30.988Z</time>
      </trkpt>
      <trkpt lat="47.715268" lon="7.793948">
        <ele>441.375896</ele>
        <time>2021-11-17T23:35:36.671Z</time>
      </trkpt>
      <trkpt lat="47.715366" lon="7.793911">
        <ele>441.512420</ele>
        <time>2021-11-17T23:35:39.457Z</time>
      </trkpt>
      <trkpt lat="47.715611" lon="7.793868">
        <ele>441.887719</ele>
        <time>2021-11-17T23:35:45.124Z</time>
      </trkpt>
      <trkpt lat="47.715801" lon="7.793881">
        <ele>442.427319</ele>
        <time>2021-11-17T23:35:51.304Z</time>
      </trkpt>
      <trkpt lat="47.715977" lon="7.793929">
        <ele>442.934966</ele>
        <time>2021-11-17T23:35:56.117Z</time>
      </trkpt>
      <trkpt lat="47.716155" lon="7.794018">
        <ele>443.467759</ele>
        <time>2021-11-17T23:36:02.024Z</time>
      </trkpt>
      <trkpt lat="47.716557" lon="7.794089">
        <ele>444.616255</ele>
        <time>2021-11-17T23:36:13.350Z</time>
      </trkpt>
      <trkpt lat="47.717221" lon="7.793652">
        <ele>446.676426</ele>
        <time>2021-11-17T23:36:33.152Z</time>
      </trkpt>
      <trkpt lat="47.717545" lon="7.793687">
        <ele>446.871314</ele>
        <time>2021-11-17T23:36:40.541Z</time>
      </trkpt>
      <trkpt lat="47.717592" lon="7.793730">
        <ele>446.862525</ele>
        <time>2021-11-17T23:36:41.088Z</time>
      </trkpt>
      <trkpt lat="47.717830" lon="7.793953">
        <ele>446.817717</ele>
        <time>2021-11-17T23:36:45.904Z</time>
      </trkpt>
      <trkpt lat="47.718606" lon="7.794776">
        <ele>446.665893</ele>
        <time>2021-11-17T23:36:56.408Z</time>
      </trkpt>
      <trkpt lat="47.718887" lon="7.795000">
        <ele>446.696979</ele>
        <time>2021-11-17T23:37:01.731Z</time>
      </trkpt>
      <trkpt lat="47.719001" lon="7.795097">
        <ele>446.880594</ele>
        <time>2021-11-17T23:37:04.654Z</time>
      </trkpt>
      <trkpt lat="47.719186" lon="7.795217">
        <ele>447.162744</ele>
        <time>2021-11-17T23:37:08.937Z</time>
      </trkpt>
      <trkpt lat="47.719349" lon="7.794722">
        <ele>447.681018</ele>
        <time>2021-11-17T23:37:16.778Z</time>
      </trkpt>
      <trkpt lat="47.719384" lon="7.794611">
        <ele>447.796300</ele>
        <time>2021-11-17T23:37:17.991Z</time>
      </trkpt>
      <trkpt lat="47.719403" lon="7.794476">
        <ele>447.926003</ele>
        <time>2021-11-17T23:37:20.848Z</time>
      </trkpt>
      <trkpt lat="47.719441" lon="7.794330">
        <ele>448.073220</ele>
        <time>2021-11-17T23:37:23.414Z</time>
      </trkpt>
      <trkpt lat="47.719485" lon="7.794058">
        <ele>448.336301</ele>
        <time>2021-11-17T23:37:26.520Z</time>
      </trkpt>
      <trkpt lat="47.719498" lon="7.793936">
        <ele>448.452461</ele>
        <time>2021-11-17T23:37:29.437Z</time>
      </trkpt>
      <trkpt lat="47.719505" lon="7.793705">
        <ele>448.669915</ele>
        <time>2021-11-17T23:37:32.472Z</time>
      </trkpt>
      <trkpt lat="47.719506" lon="7.793669">
        <ele>448.703799</ele>
        <time>2021-11-17T23:37:33.208Z</time>
      </trkpt>
      <trkpt lat="47.719513" lon="7.793427">
        <ele>448.931587</ele>
        <time>2021-11-17T23:37:36.609Z</time>
      </trkpt>
      <trkpt lat="47.719577" lon="7.792901">
        <ele>449.444210</ele>
        <time>2021-11-17T23:37:43.546Z</time>
      </trkpt>
      <trkpt lat="47.719746" lon="7.792264">
        <ele>450.109736</ele>
        <time>2021-11-17T23:37:54.691Z</time>
      </trkpt>
      <trkpt lat="47.719956" lon="7.791631">
        <ele>450.795707</ele>
        <time>2021-11-17T23:38:06.682Z</time>
      </trkpt>
      <trkpt lat="47.720080" lon="7.791306">
        <ele>451.158847</ele>
        <time>2021-11-17T23:38:11.362Z</time>
      </trkpt>
      <trkpt lat="47.720260" lon="7.790760">
        <ele>451.762678</ele>
        <time>2021-11-17T23:38:17.032Z</time>
      </trkpt>
      <trkpt lat="47.720444" lon="7.790286">
        <ele>452.797126</ele>
        <time>2021-11-17T23:38:22.111Z</time>
      </trkpt>
      <trkpt lat="47.720689" lon="7.789741">
        <ele>454.036153</ele>
        <time>2021-11-17T23:38:29.581Z</time>
      </trkpt>
      <trkpt lat="47.721462" lon="7.788062">
        <ele>460.396717</ele>
        <time>2021-11-17T23:39:15.413Z</time>
      </trkpt>
      <trkpt lat="47.721316" lon="7.787965">
        <ele>461.880893</ele>
        <time>2021-11-17T23:39:24.126Z</time>
      </trkpt>
      <trkpt lat="47.720927" lon="7.787920">
        <ele>465.502028</ele>
        <time>2021-11-17T23:39:42.134Z</time>
      </trkpt>
      <trkpt lat="47.720572" lon="7.788002">
        <ele>468.836241</ele>
        <time>2021-11-17T23:40:03.952Z</time>
      </trkpt>
      <trkpt lat="47.719941" lon="7.788596">
        <ele>477.131774</ele>
        <time>2021-11-17T23:40:53.323Z</time>
      </trkpt>
      <trkpt lat="47.719713" lon="7.788899">
        <ele>481.664069</ele>
        <time>2021-11-17T23:41:13.265Z</time>
      </trkpt>
      <trkpt lat="47.719622" lon="7.788913">
        <ele>483.019827</ele>
        <time>2021-11-17T23:41:18.174Z</time>
      </trkpt>
      <trkpt lat="47.719591" lon="7.788897">
        <ele>483.506131</ele>
        <time>2021-11-17T23:41:21.677Z</time>
      </trkpt>
      <trkpt lat="47.719556" lon="7.788860">
        <ele>484.142604</ele>
        <time>2021-11-17T23:41:25.737Z</time>
      </trkpt>
      <trkpt lat="47.719549" lon="7.788619">
        <ele>486.547567</ele>
        <time>2021-11-17T23:41:34.404Z</time>
      </trkpt>
      <trkpt lat="47.720170" lon="7.787318">
        <ele>502.653993</ele>
        <time>2021-11-17T23:43:03.131Z</time>
      </trkpt>
      <trkpt lat="47.720192" lon="7.786345">
        <ele>513.210187</ele>
        <time>2021-11-17T23:43:58.077Z</time>
      </trkpt>
      <trkpt lat="47.720180" lon="7.786161">
        <ele>515.214652</ele>
        <time>2021-11-17T23:44:10.916Z</time>
      </trkpt>
      <trkpt lat="47.720103" lon="7.785586">
        <ele>521.571697</ele>
        <time>2021-11-17T23:44:42.161Z</time>
      </trkpt>
      <trkpt lat="47.719725" lon="7.784277">
        <ele>532.654783</ele>
        <time>2021-11-17T23:45:48.511Z</time>
      </trkpt>
      <trkpt lat="47.719636" lon="7.783526">
        <ele>536.351715</ele>
        <time>2021-11-17T23:46:15.143Z</time>
      </trkpt>
      <trkpt lat="47.719521" lon="7.782997">
        <ele>539.046901</ele>
        <time>2021-11-17T23:46:25.558Z</time>
      </trkpt>
      <trkpt lat="47.719142" lon="7.782140">
        <ele>542.329155</ele>
        <time>2021-11-17T23:46:38.755Z</time>
      </trkpt>
      <trkpt lat="47.719145" lon="7.781869">
        <ele>542.493173</ele>
        <time>2021-11-17T23:46:41.004Z</time>
      </trkpt>
      <trkpt lat="47.719235" lon="7.781829">
        <ele>542.577669</ele>
        <time>2021-11-17T23:46:42.097Z</time>
      </trkpt>
      <trkpt lat="47.719644" lon="7.782051">
        <ele>542.969325</ele>
        <time>2021-11-17T23:46:46.902Z</time>
      </trkpt>
      <trkpt lat="47.720165" lon="7.782608">
        <ele>543.546589</ele>
        <time>2021-11-17T23:46:56.481Z</time>
      </trkpt>
      <trkpt lat="47.720242" lon="7.782580">
        <ele>543.617893</ele>
        <time>2021-11-17T23:46:59.051Z</time>
      </trkpt>
      <trkpt lat="47.720459" lon="7.782281">
        <ele>546.006622</ele>
        <time>2021-11-17T23:47:09.598Z</time>
      </trkpt>
      <trkpt lat="47.720753" lon="7.782158">
        <ele>549.556861</ele>
        <time>2021-11-17T23:47:22.504Z</time>
      </trkpt>
      <trkpt lat="47.720894" lon="7.782168">
        <ele>551.197711</ele>
        <time>2021-11-17T23:47:29.281Z</time>
      </trkpt>
      <trkpt lat="47.721120" lon="7.782321">
        <ele>554.084363</ele>
        <time>2021-11-17T23:47:47.899Z</time>
      </trkpt>
      <trkpt lat="47.721202" lon="7.782307">
        <ele>555.043798</ele>
        <time>2021-11-17T23:47:52.741Z</time>
      </trkpt>
      <trkpt lat="47.721295" lon="7.782262">
        <ele>556.180664</ele>
        <time>2021-11-17T23:47:58.096Z</time>
      </trkpt>
      <trkpt lat="47.721519" lon="7.781969">
        <ele>559.649004</ele>
        <time>2021-11-17T23:48:22.437Z</time>
      </trkpt>
      <trkpt lat="47.721582" lon="7.781487">
        <ele>563.488662</ele>
        <time>2021-11-17T23:48:49.250Z</time>
      </trkpt>
      <trkpt lat="47.721571" lon="7.780784">
        <ele>569.760674</ele>
        <time>2021-11-17T23:49:26.588Z</time>
      </trkpt>
      <trkpt lat="47.721589" lon="7.780626">
        <ele>571.235308</ele>
        <time>2021-11-17T23:49:38.093Z</time>
      </trkpt>
      <trkpt lat="47.721645" lon="7.780511">
        <ele>572.541692</ele>
        <time>2021-11-17T23:49:45.421Z</time>
      </trkpt>
      <trkpt lat="47.721966" lon="7.780079">
        <ele>578.464746</ele>
        <time>2021-11-17T23:50:20.408Z</time>
      </trkpt>
      <trkpt lat="47.722022" lon="7.779773">
        <ele>581.382901</ele>
        <time>2021-11-17T23:50:35.832Z</time>
      </trkpt>
      <trkpt lat="47.721917" lon="7.779478">
        <ele>584.454042</ele>
        <time>2021-11-17T23:50:45.916Z</time>
      </trkpt>
      <trkpt lat="47.721340" lon="7.778464">
        <ele>591.424528</ele>
        <time>2021-11-17T23:51:29.800Z</time>
      </trkpt>
      <trkpt lat="47.721261" lon="7.778061">
        <ele>592.567996</ele>
        <time>2021-11-17T23:51:36.803Z</time>
      </trkpt>
      <trkpt lat="47.721293" lon="7.777903">
        <ele>593.017485</ele>
        <time>2021-11-17T23:51:39.252Z</time>
      </trkpt>
      <trkpt lat="47.721397" lon="7.777779">
        <ele>593.557342</ele>
        <time>2021-11-17T23:51:42.007Z</time>
      </trkpt>
      <trkpt lat="47.721684" lon="7.777681">
        <ele>594.749750</ele>
        <time>2021-11-17T23:51:47.452Z</time>
      </trkpt>
      <trkpt lat="47.721955" lon="7.777421">
        <ele>596.055817</ele>
        <time>2021-11-17T23:51:53.579Z</time>
      </trkpt>
      <trkpt lat="47.722227" lon="7.777306">
        <ele>597.046314</ele>
        <time>2021-11-17T23:52:00.239Z</time>
      </trkpt>
      <trkpt lat="47.722319" lon="7.777194">
        <ele>597.421676</ele>
        <time>2021-11-17T23:52:03.654Z</time>
      </trkpt>
      <trkpt lat="47.722356" lon="7.776953">
        <ele>597.946594</ele>
        <time>2021-11-17T23:52:07.825Z</time>
      </trkpt>
      <trkpt lat="47.722337" lon="7.776682">
        <ele>598.525175</ele>
        <time>2021-11-17T23:52:13.205Z</time>
      </trkpt>
      <trkpt lat="47.722197" lon="7.776152">
        <ele>599.734275</ele>
        <time>2021-11-17T23:52:23.859Z</time>
      </trkpt>
      <trkpt lat="47.722265" lon="7.775737">
        <ele>600.641287</ele>
        <time>2021-11-17T23:52:31.706Z</time>
      </trkpt>
      <trkpt lat="47.722227" lon="7.775448">
        <ele>601.266587</ele>
        <time>2021-11-17T23:52:37.068Z</time>
      </trkpt>
      <trkpt lat="47.722103" lon="7.775053">
        <ele>602.206319</ele>
        <time>2021-11-17T23:52:46.134Z</time>
      </trkpt>
      <trkpt lat="47.722072" lon="7.774929">
        <ele>602.751889</ele>
        <time>2021-11-17T23:52:48.229Z</time>
      </trkpt>
      <trkpt lat="47.722086" lon="7.774741">
        <ele>603.531973</ele>
        <time>2021-11-17T23:52:52.263Z</time>
      </trkpt>
      <trkpt lat="47.722149" lon="7.774652">
        <ele>604.064793</ele>
        <time>2021-11-17T23:52:55.092Z</time>
      </trkpt>
      <trkpt lat="47.722570" lon="7.774580">
        <ele>606.662780</ele>
        <time>2021-11-17T23:53:11.251Z</time>
      </trkpt>
      <trkpt lat="47.722687" lon="7.774454">
        <ele>607.548506</ele>
        <time>2021-11-17T23:53:16.136Z</time>
      </trkpt>
      <trkpt lat="47.722742" lon="7.774200">
        <ele>608.648966</ele>
        <time>2021-11-17T23:53:25.484Z</time>
      </trkpt>
      <trkpt lat="47.722781" lon="7.774019">
        <ele>609.432790</ele>
        <time>2021-11-17T23:53:30.325Z</time>
      </trkpt>
      <trkpt lat="47.722790" lon="7.773534">
        <ele>611.433756</ele>
        <time>2021-11-17T23:53:45.967Z</time>
      </trkpt>
      <trkpt lat="47.722937" lon="7.772816">
        <ele>614.676671</ele>
        <time>2021-11-17T23:54:06.530Z</time>
      </trkpt>
      <trkpt lat="47.722964" lon="7.772694">
        <ele>615.265378</ele>
        <time>2021-11-17T23:54:11.689Z</time>
      </trkpt>
      <trkpt lat="47.722981" lon="7.772565">
        <ele>615.867926</ele>
        <time>2021-11-17T23:54:14.725Z</time>
      </trkpt>
      <trkpt lat="47.722988" lon="7.772465">
        <ele>616.328779</ele>
        <time>2021-11-17T23:54:17.465Z</time>
      </trkpt>
      <trkpt lat="47.722985" lon="7.772400">
        <ele>616.627426</ele>
        <time>2021-11-17T23:54:19.191Z</time>
      </trkpt>
      <trkpt lat="47.722954" lon="7.772317">
        <ele>617.062585</ele>
        <time>2021-11-17T23:54:21.758Z</time>
      </trkpt>
      <trkpt lat="47.722878" lon="7.772219">
        <ele>617.748123</ele>
        <time>2021-11-17T23:54:27.477Z</time>
      </trkpt>
      <trkpt lat="47.722556" lon="7.771899">
        <ele>620.387338</ele>
        <time>2021-11-17T23:54:43.697Z</time>
      </trkpt>
      <trkpt lat="47.722364" lon="7.771897">
        <ele>621.695630</ele>
        <time>2021-11-17T23:54:50.519Z</time>
      </trkpt>
      <trkpt lat="47.722282" lon="7.771884">
        <ele>622.257535</ele>
        <time>2021-11-17T23:54:54.583Z</time>
      </trkpt>
      <trkpt lat="47.721733" lon="7.771783">
        <ele>625.858665</ele>
        <time>2021-11-17T23:55:17.573Z</time>
      </trkpt>
      <trkpt lat="47.721698" lon="7.771772">
        <ele>626.030145</ele>
        <time>2021-11-17T23:55:19.368Z</time>
      </trkpt>
      <trkpt lat="47.721390" lon="7.771673">
        <ele>627.540649</ele>
        <time>2021-11-17T23:55:31.070Z</time>
      </trkpt>
      <trkpt lat="47.721123" lon="7.771461">
        <ele>628.991645</ele>
        <time>2021-11-17T23:55:41.685Z</time>
      </trkpt>
      <trkpt lat="47.720944" lon="7.771054">
        <ele>630.559700</ele>
        <time>2021-11-17T23:55:51.616Z</time>
      </trkpt>
      <trkpt lat="47.720938" lon="7.771036">
        <ele>630.624480</ele>
        <time>2021-11-17T23:55:52.257Z</time>
      </trkpt>
      <trkpt lat="47.720895" lon="7.770905">
        <ele>631.094526</ele>
        <time>2021-11-17T23:55:55.410Z</time>
      </trkpt>
      <trkpt lat="47.720827" lon="7.770667">
        <ele>631.928367</ele>
        <time>2021-11-17T23:56:00.029Z</time>
      </trkpt>
      <trkpt lat="47.720792" lon="7.770546">
        <ele>632.353103</ele>
        <time>2021-11-17T23:56:02.646Z</time>
      </trkpt>
      <trkpt lat="47.720662" lon="7.770082">
        <ele>633.973968</ele>
        <time>2021-11-17T23:56:12.303Z</time>
      </trkpt>
      <trkpt lat="47.720633" lon="7.769975">
        <ele>634.450277</ele>
        <time>2021-11-17T23:56:15.188Z</time>
      </trkpt>
      <trkpt lat="47.720539" lon="7.769857">
        <ele>635.272457</ele>
        <time>2021-11-17T23:56:19.397Z</time>
      </trkpt>
      <trkpt lat="47.720380" lon="7.769838">
        <ele>636.338392</ele>
        <time>2021-11-17T23:56:24.406Z</time>
      </trkpt>
      <trkpt lat="47.720036" lon="7.770012">
        <ele>638.766599</ele>
        <time>2021-11-17T23:56:38.461Z</time>
      </trkpt>
      <trkpt lat="47.719583" lon="7.770100">
        <ele>641.819486</ele>
        <time>2021-11-17T23:56:57.772Z</time>
      </trkpt>
      <trkpt lat="47.719268" lon="7.770319">
        <ele>644.143327</ele>
        <time>2021-11-17T23:57:14.199Z</time>
      </trkpt>
      <trkpt lat="47.719160" lon="7.770415">
        <ele>644.984234</ele>
        <time>2021-11-17T23:57:21.062Z</time>
      </trkpt>
      <trkpt lat="47.718812" lon="7.770740">
        <ele>648.201282</ele>
        <time>2021-11-17T23:57:41.276Z</time>
      </trkpt>
      <trkpt lat="47.718440" lon="7.771099">
        <ele>652.020898</ele>
        <time>2021-11-17T23:58:03.139Z</time>
      </trkpt>
      <trkpt lat="47.718117" lon="7.771397">
        <ele>655.294813</ele>
        <time>2021-11-17T23:58:22.674Z</time>
      </trkpt>
      <trkpt lat="47.717866" lon="7.771646">
        <ele>657.893609</ele>
        <time>2021-11-17T23:58:38.889Z</time>
      </trkpt>
      <trkpt lat="47.717588" lon="7.771853">
        <ele>660.571318</ele>
        <time>2021-11-17T23:58:54.164Z</time>
      </trkpt>
      <trkpt lat="47.716924" lon="7.772105">
        <ele>665.284743</ele>
        <time>2021-11-17T23:59:24.683Z</time>
      </trkpt>
      <trkpt lat="47.716188" lon="7.772153">
        <ele>670.085140</ele>
        <time>2021-11-17T23:59:53.310Z</time>
      </trkpt>
      <trkpt lat="47.715647" lon="7.772065">
        <ele>673.607671</ele>
        <time>2021-11-18T00:00:13.326Z</time>
      </trkpt>
      <trkpt lat="47.714966" lon="7.771742">
        <ele>677.922072</ele>
        <time>2021-11-18T00:00:40.857Z</time>
      </trkpt>
      <trkpt lat="47.713842" lon="7.770584">
        <ele>685.085579</ele>
        <time>2021-11-18T00:01:36.341Z</time>
      </trkpt>
      <trkpt lat="47.713579" lon="7.770443">
        <ele>685.857418</ele>
        <time>2021-11-18T00:01:45.426Z</time>
      </trkpt>
      <trkpt lat="47.712661" lon="7.770141">
        <ele>688.453021</ele>
        <time>2021-11-18T00:02:06.777Z</time>
      </trkpt>
      <trkpt lat="47.712561" lon="7.770086">
        <ele>688.747381</ele>
        <time>2021-11-18T00:02:09.549Z</time>
      </trkpt>
      <trkpt lat="47.712490" lon="7.770038">
        <ele>688.962712</ele>
        <time>2021-11-18T00:02:10.680Z</time>
      </trkpt>
      <trkpt lat="47.712406" lon="7.769971">
        <ele>689.081020</ele>
        <time>2021-11-18T00:02:12.071Z</time>
      </trkpt>
      <trkpt lat="47.712317" lon="7.769895">
        <ele>688.929975</ele>
        <time>2021-11-18T00:02:13.095Z</time>
      </trkpt>
      <trkpt lat="47.711976" lon="7.769448">
        <ele>688.260887</ele>
        <time>2021-11-18T00:02:18.365Z</time>
      </trkpt>
      <trkpt lat="47.711641" lon="7.768676">
        <ele>687.351329</ele>
        <time>2021-11-18T00:02:24.941Z</time>
      </trkpt>
      <trkpt lat="47.711558" lon="7.768253">
        <ele>686.915054</ele>
        <time>2021-11-18T00:02:28.269Z</time>
      </trkpt>
      <trkpt lat="47.711522" lon="7.767707">
        <ele>686.559123</ele>
        <time>2021-11-18T00:02:32.221Z</time>
      </trkpt>
      <trkpt lat="47.711535" lon="7.767521">
        <ele>686.681419</ele>
        <time>2021-11-18T00:02:33.574Z</time>
      </trkpt>
      <trkpt lat="47.711594" lon="7.766979">
        <ele>687.040487</ele>
        <time>2021-11-18T00:02:38.774Z</time>
      </trkpt>
      <trkpt lat="47.711544" lon="7.766597">
        <ele>687.294991</ele>
        <time>2021-11-18T00:02:43.551Z</time>
      </trkpt>
      <trkpt lat="47.711280" lon="7.766040">
        <ele>687.740560</ele>
        <time>2021-11-18T00:02:51.932Z</time>
      </trkpt>
      <trkpt lat="47.710793" lon="7.765513">
        <ele>688.620385</ele>
        <time>2021-11-18T00:03:08.192Z</time>
      </trkpt>
      <trkpt lat="47.709779" lon="7.764609">
        <ele>693.396020</ele>
        <time>2021-11-18T00:03:48.539Z</time>
      </trkpt>
      <trkpt lat="47.709606" lon="7.764460">
        <ele>694.203577</ele>
        <time>2021-11-18T00:03:55.153Z</time>
      </trkpt>
      <trkpt lat="47.709431" lon="7.764294">
        <ele>695.042058</ele>
        <time>2021-11-18T00:04:00.871Z</time>
      </trkpt>
      <trkpt lat="47.709325" lon="7.764019">
        <ele>695.669085</ele>
        <time>2021-11-18T00:04:07.211Z</time>
      </trkpt>
      <trkpt lat="47.709385" lon="7.763694">
        <ele>696.056884</ele>
        <time>2021-11-18T00:04:12.176Z</time>
      </trkpt>
      <trkpt lat="47.709432" lon="7.763572">
        <ele>696.218650</ele>
        <time>2021-11-18T00:04:15.907Z</time>
      </trkpt>
      <trkpt lat="47.709462" lon="7.763486">
        <ele>696.330118</ele>
        <time>2021-11-18T00:04:16.979Z</time>
      </trkpt>
      <trkpt lat="47.709753" lon="7.762866">
        <ele>697.199961</ele>
        <time>2021-11-18T00:04:27.272Z</time>
      </trkpt>
      <trkpt lat="47.710158" lon="7.762372">
        <ele>698.095952</ele>
        <time>2021-11-18T00:04:39.483Z</time>
      </trkpt>
      <trkpt lat="47.710244" lon="7.762179">
        <ele>698.362315</ele>
        <time>2021-11-18T00:04:41.088Z</time>
      </trkpt>
      <trkpt lat="47.710263" lon="7.762018">
        <ele>698.550403</ele>
        <time>2021-11-18T00:04:43.371Z</time>
      </trkpt>
      <trkpt lat="47.710195" lon="7.761616">
        <ele>698.812223</ele>
        <time>2021-11-18T00:04:47.271Z</time>
      </trkpt>
      <trkpt lat="47.710335" lon="7.761409">
        <ele>698.990066</ele>
        <time>2021-11-18T00:04:50.627Z</time>
      </trkpt>
      <trkpt lat="47.710427" lon="7.761335">
        <ele>699.084272</ele>
        <time>2021-11-18T00:04:51.826Z</time>
      </trkpt>
      <trkpt lat="47.710553" lon="7.761250">
        <ele>699.208883</ele>
        <time>2021-11-18T00:04:54.498Z</time>
      </trkpt>
      <trkpt lat="47.710690" lon="7.761172">
        <ele>699.341000</ele>
        <time>2021-11-18T00:04:57.244Z</time>
      </trkpt>
      <trkpt lat="47.711202" lon="7.760857">
        <ele>699.840022</ele>
        <time>2021-11-18T00:05:08.096Z</time>
      </trkpt>
      <trkpt lat="47.711645" lon="7.760532">
        <ele>699.998965</ele>
        <time>2021-11-18T00:05:18.844Z</time>
      </trkpt>
      <trkpt lat="47.711708" lon="7.760492">
        <ele>699.869480</ele>
        <time>2021-11-18T00:05:20.437Z</time>
      </trkpt>
      <trkpt lat="47.712488" lon="7.760312">
        <ele>698.377569</ele>
        <time>2021-11-18T00:05:36.350Z</time>
      </trkpt>
      <trkpt lat="47.712549" lon="7.760281">
        <ele>698.255722</ele>
        <time>2021-11-18T00:05:37.644Z</time>
      </trkpt>
      <trkpt lat="47.712622" lon="7.760244">
        <ele>698.109945</ele>
        <time>2021-11-18T00:05:38.410Z</time>
      </trkpt>
      <trkpt lat="47.712905" lon="7.760024">
        <ele>697.506307</ele>
        <time>2021-11-18T00:05:41.628Z</time>
      </trkpt>
      <trkpt lat="47.712940" lon="7.760005">
        <ele>697.435880</ele>
        <time>2021-11-18T00:05:41.941Z</time>
      </trkpt>
      <trkpt lat="47.713023" lon="7.759961">
        <ele>697.269325</ele>
        <time>2021-11-18T00:05:42.713Z</time>
      </trkpt>
      <trkpt lat="47.713181" lon="7.759935">
        <ele>696.968871</ele>
        <time>2021-11-18T00:05:44.339Z</time>
      </trkpt>
      <trkpt lat="47.713245" lon="7.759866">
        <ele>696.819432</ele>
        <time>2021-11-18T00:05:45.308Z</time>
      </trkpt>
      <trkpt lat="47.713375" lon="7.759775">
        <ele>695.183635</ele>
        <time>2021-11-18T00:05:47.044Z</time>
      </trkpt>
      <trkpt lat="47.713534" lon="7.759516">
        <ele>692.257810</ele>
        <time>2021-11-18T00:05:50.020Z</time>
      </trkpt>
      <trkpt lat="47.713603" lon="7.759357">
        <ele>690.678906</ele>
        <time>2021-11-18T00:05:51.540Z</time>
      </trkpt>
      <trkpt lat="47.713613" lon="7.759332">
        <ele>690.436197</ele>
        <time>2021-11-18T00:05:51.767Z</time>
      </trkpt>
      <trkpt lat="47.713803" lon="7.758954">
        <ele>686.498742</ele>
        <time>2021-11-18T00:05:55.644Z</time>
      </trkpt>
      <trkpt lat="47.713819" lon="7.758921">
        <ele>686.159306</ele>
        <time>2021-11-18T00:05:55.960Z</time>
      </trkpt>
      <trkpt lat="47.713925" lon="7.758755">
        <ele>684.249493</ele>
        <time>2021-11-18T00:05:57.886Z</time>
      </trkpt>
      <trkpt lat="47.714030" lon="7.758583">
        <ele>682.311415</ele>
        <time>2021-11-18T00:05:59.667Z</time>
      </trkpt>
      <trkpt lat="47.714195" lon="7.758215">
        <ele>678.621068</ele>
        <time>2021-11-18T00:06:03.125Z</time>
      </trkpt>
      <trkpt lat="47.714270" lon="7.758049">
        <ele>676.952467</ele>
        <time>2021-11-18T00:06:04.678Z</time>
      </trkpt>
      <trkpt lat="47.714377" lon="7.757266">
        <ele>670.450910</ele>
        <time>2021-11-18T00:06:10.944Z</time>
      </trkpt>
      <trkpt lat="47.714544" lon="7.756859">
        <ele>666.629943</ele>
        <time>2021-11-18T00:06:14.811Z</time>
      </trkpt>
      <trkpt lat="47.714578" lon="7.756703">
        <ele>665.315604</ele>
        <time>2021-11-18T00:06:16.077Z</time>
      </trkpt>
      <trkpt lat="47.714610" lon="7.756604">
        <ele>664.435279</ele>
        <time>2021-11-18T00:06:16.996Z</time>
      </trkpt>
      <trkpt lat="47.714651" lon="7.756431">
        <ele>662.965143</ele>
        <time>2021-11-18T00:06:19.045Z</time>
      </trkpt>
      <trkpt lat="47.714653" lon="7.756384">
        <ele>662.587676</ele>
        <time>2021-11-18T00:06:19.415Z</time>
      </trkpt>
      <trkpt lat="47.714423" lon="7.756207">
        <ele>659.502231</ele>
        <time>2021-11-18T00:06:22.573Z</time>
      </trkpt>
      <trkpt lat="47.714352" lon="7.756152">
        <ele>658.548434</ele>
        <time>2021-11-18T00:06:23.628Z</time>
      </trkpt>
      <trkpt lat="47.714158" lon="7.756030">
        <ele>656.038991</ele>
        <time>2021-11-18T00:06:26.100Z</time>
      </trkpt>
      <trkpt lat="47.714103" lon="7.756097">
        <ele>655.191828</ele>
        <time>2021-11-18T00:06:28.360Z</time>
      </trkpt>
      <trkpt lat="47.713944" lon="7.756392">
        <ele>652.661528</ele>
        <time>2021-11-18T00:06:30.484Z</time>
      </trkpt>
      <trkpt lat="47.713857" lon="7.756496">
        <ele>652.072769</ele>
        <time>2021-11-18T00:06:31.818Z</time>
      </trkpt>
      <trkpt lat="47.713811" lon="7.756520">
        <ele>651.815685</ele>
        <time>2021-11-18T00:06:32.278Z</time>
      </trkpt>
      <trkpt lat="47.713737" lon="7.756527">
        <ele>651.424670</ele>
        <time>2021-11-18T00:06:32.910Z</time>
      </trkpt>
      <trkpt lat="47.713689" lon="7.756505">
        <ele>651.159788</ele>
        <time>2021-11-18T00:06:33.320Z</time>
      </trkpt>
      <trkpt lat="47.713510" lon="7.756211">
        <ele>649.752975</ele>
        <time>2021-11-18T00:06:35.675Z</time>
      </trkpt>
      <trkpt lat="47.713197" lon="7.755119">
        <ele>645.541536</ele>
        <time>2021-11-18T00:06:43.947Z</time>
      </trkpt>
      <trkpt lat="47.713144" lon="7.754922">
        <ele>644.788753</ele>
        <time>2021-11-18T00:06:45.280Z</time>
      </trkpt>
      <trkpt lat="47.713125" lon="7.754853">
        <ele>644.524225</ele>
        <time>2021-11-18T00:06:45.972Z</time>
      </trkpt>
      <trkpt lat="47.713049" lon="7.754578">
        <ele>643.576365</ele>
        <time>2021-11-18T00:06:48.100Z</time>
      </trkpt>
      <trkpt lat="47.713010" lon="7.754423">
        <ele>643.593645</ele>
        <time>2021-11-18T00:06:49.139Z</time>
      </trkpt>
      <trkpt lat="47.712975" lon="7.754237">
        <ele>643.613813</ele>
        <time>2021-11-18T00:06:50.394Z</time>
      </trkpt>
      <trkpt lat="47.712900" lon="7.754244">
        <ele>643.625476</ele>
        <time>2021-11-18T00:06:53.395Z</time>
      </trkpt>
      <trkpt lat="47.712476" lon="7.753983">
        <ele>643.696702</ele>
        <time>2021-11-18T00:06:58.752Z</time>
      </trkpt>
      <trkpt lat="47.712263" lon="7.753775">
        <ele>643.736257</ele>
        <time>2021-11-18T00:07:02.999Z</time>
      </trkpt>
      <trkpt lat="47.712019" lon="7.753447">
        <ele>643.787318</ele>
        <time>2021-11-18T00:07:07.505Z</time>
      </trkpt>
      <trkpt lat="47.711847" lon="7.753168">
        <ele>643.826833</ele>
        <time>2021-11-18T00:07:14.790Z</time>
      </trkpt>
      <trkpt lat="47.711741" lon="7.752984">
        <ele>643.852128</ele>
        <time>2021-11-18T00:07:20.709Z</time>
      </trkpt>
      <trkpt lat="47.711669" lon="7.752890">
        <ele>643.981602</ele>
        <time>2021-11-18T00:07:24.175Z</time>
      </trkpt>
      <trkpt lat="47.711155" lon="7.752528">
        <ele>644.765312</ele>
        <time>2021-11-18T00:07:39.587Z</time>
      </trkpt>
      <trkpt lat="47.710511" lon="7.751627">
        <ele>645.983976</ele>
        <time>2021-11-18T00:07:57.034Z</time>
      </trkpt>
      <trkpt lat="47.709044" lon="7.750156">
        <ele>643.379020</ele>
        <time>2021-11-18T00:08:17.006Z</time>
      </trkpt>
      <trkpt lat="47.708929" lon="7.750070">
        <ele>643.128699</ele>
        <time>2021-11-18T00:08:18.312Z</time>
      </trkpt>
      <trkpt lat="47.708576" lon="7.749984">
        <ele>641.938870</ele>
        <time>2021-11-18T00:08:21.836Z</time>
      </trkpt>
      <trkpt lat="47.708305" lon="7.749635">
        <ele>640.380556</ele>
        <time>2021-11-18T00:08:25.333Z</time>
      </trkpt>
      <trkpt lat="47.707779" lon="7.749483">
        <ele>638.051970</ele>
        <time>2021-11-18T00:08:30.459Z</time>
      </trkpt>
      <trkpt lat="47.707471" lon="7.749320">
        <ele>636.631194</ele>
        <time>2021-11-18T00:08:33.579Z</time>
      </trkpt>
      <trkpt lat="47.707351" lon="7.748939">
        <ele>635.401071</ele>
        <time>2021-11-18T00:08:36.244Z</time>
      </trkpt>
      <trkpt lat="47.707482" lon="7.748411">
        <ele>633.415140</ele>
        <time>2021-11-18T00:08:39.764Z</time>
      </trkpt>
      <trkpt lat="47.707466" lon="7.748182">
        <ele>632.560304</ele>
        <time>2021-11-18T00:08:41.211Z</time>
      </trkpt>
      <trkpt lat="47.707380" lon="7.748055">
        <ele>631.891330</ele>
        <time>2021-11-18T00:08:42.384Z</time>
      </trkpt>
      <trkpt lat="47.706712" lon="7.747653">
        <ele>627.914746</ele>
        <time>2021-11-18T00:08:49.503Z</time>
      </trkpt>
      <trkpt lat="47.706422" lon="7.747032">
        <ele>625.108137</ele>
        <time>2021-11-18T00:08:54.032Z</time>
      </trkpt>
      <trkpt lat="47.705919" lon="7.746612">
        <ele>619.497510</ele>
        <time>2021-11-18T00:08:59.071Z</time>
      </trkpt>
      <trkpt lat="47.705677" lon="7.746246">
        <ele>616.132801</ele>
        <time>2021-11-18T00:09:02.053Z</time>
      </trkpt>
      <trkpt lat="47.705587" lon="7.745924">
        <ele>613.846392</ele>
        <time>2021-11-18T00:09:04.080Z</time>
      </trkpt>
      <trkpt lat="47.705553" lon="7.745607">
        <ele>611.741419</ele>
        <time>2021-11-18T00:09:05.894Z</time>
      </trkpt>
      <trkpt lat="47.705460" lon="7.745079">
        <ele>608.162406</ele>
        <time>2021-11-18T00:09:09.040Z</time>
      </trkpt>
      <trkpt lat="47.705268" lon="7.744654">
        <ele>604.954921</ele>
        <time>2021-11-18T00:09:11.974Z</time>
      </trkpt>
      <trkpt lat="47.705108" lon="7.744521">
        <ele>603.265025</ele>
        <time>2021-11-18T00:09:13.566Z</time>
      </trkpt>
      <trkpt lat="47.704856" lon="7.744524">
        <ele>600.942092</ele>
        <time>2021-11-18T00:09:15.694Z</time>
      </trkpt>
      <trkpt lat="47.704616" lon="7.744630">
        <ele>598.634199</ele>
        <time>2021-11-18T00:09:17.819Z</time>
      </trkpt>
      <trkpt lat="47.704406" lon="7.744599">
        <ele>596.688955</ele>
        <time>2021-11-18T00:09:19.674Z</time>
      </trkpt>
      <trkpt lat="47.704137" lon="7.744355">
        <ele>593.783947</ele>
        <time>2021-11-18T00:09:22.517Z</time>
      </trkpt>
      <trkpt lat="47.703795" lon="7.743814">
        <ele>589.736700</ele>
        <time>2021-11-18T00:09:27.044Z</time>
      </trkpt>
      <trkpt lat="47.703527" lon="7.743684">
        <ele>587.939256</ele>
        <time>2021-11-18T00:09:29.633Z</time>
      </trkpt>
      <trkpt lat="47.702991" lon="7.743557">
        <ele>584.478671</ele>
        <time>2021-11-18T00:09:34.674Z</time>
      </trkpt>
      <trkpt lat="47.702671" lon="7.743108">
        <ele>581.672576</ele>
        <time>2021-11-18T00:09:38.711Z</time>
      </trkpt>
      <trkpt lat="47.702318" lon="7.742478">
        <ele>577.397057</ele>
        <time>2021-11-18T00:09:43.669Z</time>
      </trkpt>
      <trkpt lat="47.701796" lon="7.741974">
        <ele>571.221739</ele>
        <time>2021-11-18T00:09:49.126Z</time>
      </trkpt>
      <trkpt lat="47.701499" lon="7.741494">
        <ele>566.868717</ele>
        <time>2021-11-18T00:09:52.897Z</time>
      </trkpt>
      <trkpt lat="47.701330" lon="7.740846">
        <ele>562.229176</ele>
        <time>2021-11-18T00:09:56.859Z</time>
      </trkpt>
      <trkpt lat="47.701140" lon="7.740394">
        <ele>557.303843</ele>
        <time>2021-11-18T00:09:59.861Z</time>
      </trkpt>
      <trkpt lat="47.700908" lon="7.740000">
        <ele>552.218349</ele>
        <time>2021-11-18T00:10:02.791Z</time>
      </trkpt>
      <trkpt lat="47.700601" lon="7.739641">
        <ele>546.579415</ele>
        <time>2021-11-18T00:10:06.030Z</time>
      </trkpt>
      <trkpt lat="47.700325" lon="7.739422">
        <ele>542.063181</ele>
        <time>2021-11-18T00:10:08.619Z</time>
      </trkpt>
      <trkpt lat="47.699587" lon="7.739406">
        <ele>533.077797</ele>
        <time>2021-11-18T00:10:14.765Z</time>
      </trkpt>
      <trkpt lat="47.699312" lon="7.739506">
        <ele>530.574633</ele>
        <time>2021-11-18T00:10:17.149Z</time>
      </trkpt>
      <trkpt lat="47.699065" lon="7.739769">
        <ele>527.887930</ele>
        <time>2021-11-18T00:10:19.757Z</time>
      </trkpt>
      <trkpt lat="47.698544" lon="7.740753">
        <ele>520.437813</ele>
        <time>2021-11-18T00:10:27.446Z</time>
      </trkpt>
      <trkpt lat="47.698424" lon="7.741090">
        <ele>519.291361</ele>
        <time>2021-11-18T00:10:30.115Z</time>
      </trkpt>
      <trkpt lat="47.698438" lon="7.741464">
        <ele>518.584812</ele>
        <time>2021-11-18T00:10:33.131Z</time>
      </trkpt>
      <trkpt lat="47.698492" lon="7.741684">
        <ele>518.143100</ele>
        <time>2021-11-18T00:10:34.989Z</time>
      </trkpt>
      <trkpt lat="47.698877" lon="7.742443">
        <ele>516.350362</ele>
        <time>2021-11-18T00:10:43.113Z</time>
      </trkpt>
      <trkpt lat="47.698930" lon="7.742636">
        <ele>515.957181</ele>
        <time>2021-11-18T00:10:44.664Z</time>
      </trkpt>
      <trkpt lat="47.698913" lon="7.742735">
        <ele>515.764461</ele>
        <time>2021-11-18T00:10:45.530Z</time>
      </trkpt>
      <trkpt lat="47.698831" lon="7.742825">
        <ele>515.478745</ele>
        <time>2021-11-18T00:10:46.778Z</time>
      </trkpt>
      <trkpt lat="47.698673" lon="7.742874">
        <ele>515.026388</ele>
        <time>2021-11-18T00:10:48.493Z</time>
      </trkpt>
      <trkpt lat="47.698468" lon="7.742827">
        <ele>513.544986</ele>
        <time>2021-11-18T00:10:50.573Z</time>
      </trkpt>
      <trkpt lat="47.697304" lon="7.742294">
        <ele>500.713411</ele>
        <time>2021-11-18T00:11:01.011Z</time>
      </trkpt>
      <trkpt lat="47.697102" lon="7.742280">
        <ele>498.583079</ele>
        <time>2021-11-18T00:11:02.708Z</time>
      </trkpt>
      <trkpt lat="47.696846" lon="7.742487">
        <ele>495.431320</ele>
        <time>2021-11-18T00:11:05.115Z</time>
      </trkpt>
      <trkpt lat="47.696358" lon="7.742892">
        <ele>487.999397</ele>
        <time>2021-11-18T00:11:09.752Z</time>
      </trkpt>
      <trkpt lat="47.696058" lon="7.743055">
        <ele>483.752330</ele>
        <time>2021-11-18T00:11:12.405Z</time>
      </trkpt>
      <trkpt lat="47.695845" lon="7.743170">
        <ele>480.739149</ele>
        <time>2021-11-18T00:11:14.292Z</time>
      </trkpt>
      <trkpt lat="47.695620" lon="7.743311">
        <ele>477.492390</ele>
        <time>2021-11-18T00:11:16.329Z</time>
      </trkpt>
      <trkpt lat="47.695539" lon="7.743420">
        <ele>476.039356</ele>
        <time>2021-11-18T00:11:17.252Z</time>
      </trkpt>
      <trkpt lat="47.695367" lon="7.743800">
        <ele>471.941320</ele>
        <time>2021-11-18T00:11:19.920Z</time>
      </trkpt>
      <trkpt lat="47.695292" lon="7.744029">
        <ele>470.849609</ele>
        <time>2021-11-18T00:11:21.401Z</time>
      </trkpt>
      <trkpt lat="47.695229" lon="7.744257">
        <ele>469.809723</ele>
        <time>2021-11-18T00:11:22.857Z</time>
      </trkpt>
      <trkpt lat="47.695051" lon="7.744847">
        <ele>467.081757</ele>
        <time>2021-11-18T00:11:26.774Z</time>
      </trkpt>
      <trkpt lat="47.694739" lon="7.745454">
        <ele>463.859303</ele>
        <time>2021-11-18T00:11:31.672Z</time>
      </trkpt>
      <trkpt lat="47.694590" lon="7.745707">
        <ele>462.440897</ele>
        <time>2021-11-18T00:11:33.854Z</time>
      </trkpt>
      <trkpt lat="47.694429" lon="7.745924">
        <ele>461.078236</ele>
        <time>2021-11-18T00:11:35.980Z</time>
      </trkpt>
      <trkpt lat="47.694308" lon="7.746107">
        <ele>460.152760</ele>
        <time>2021-11-18T00:11:37.717Z</time>
      </trkpt>
      <trkpt lat="47.694164" lon="7.746370">
        <ele>459.074053</ele>
        <time>2021-11-18T00:11:39.852Z</time>
      </trkpt>
      <trkpt lat="47.693962" lon="7.746719">
        <ele>457.609510</ele>
        <time>2021-11-18T00:11:42.833Z</time>
      </trkpt>
      <trkpt lat="47.693822" lon="7.746891">
        <ele>456.750742</ele>
        <time>2021-11-18T00:11:44.600Z</time>
      </trkpt>
      <trkpt lat="47.693736" lon="7.746950">
        <ele>456.302957</ele>
        <time>2021-11-18T00:11:45.606Z</time>
      </trkpt>
      <trkpt lat="47.693527" lon="7.747053">
        <ele>455.262047</ele>
        <time>2021-11-18T00:11:47.692Z</time>
      </trkpt>
      <trkpt lat="47.693031" lon="7.747176">
        <ele>452.884947</ele>
        <time>2021-11-18T00:11:52.493Z</time>
      </trkpt>
      <trkpt lat="47.692894" lon="7.747251">
        <ele>452.194760</ele>
        <time>2021-11-18T00:11:53.852Z</time>
      </trkpt>
      <trkpt lat="47.692710" lon="7.747392">
        <ele>450.831373</ele>
        <time>2021-11-18T00:11:55.770Z</time>
      </trkpt>
      <trkpt lat="47.692631" lon="7.747558">
        <ele>449.912634</ele>
        <time>2021-11-18T00:11:56.988Z</time>
      </trkpt>
      <trkpt lat="47.692512" lon="7.747832">
        <ele>448.439010</ele>
        <time>2021-11-18T00:11:58.957Z</time>
      </trkpt>
      <trkpt lat="47.692452" lon="7.747963">
        <ele>447.722946</ele>
        <time>2021-11-18T00:11:59.898Z</time>
      </trkpt>
      <trkpt lat="47.692404" lon="7.748017">
        <ele>447.318710</ele>
        <time>2021-11-18T00:12:00.431Z</time>
      </trkpt>
      <trkpt lat="47.692323" lon="7.748079">
        <ele>446.706953</ele>
        <time>2021-11-18T00:12:01.272Z</time>
      </trkpt>
      <trkpt lat="47.692230" lon="7.748087">
        <ele>446.081519</ele>
        <time>2021-11-18T00:12:02.076Z</time>
      </trkpt>
      <trkpt lat="47.691658" lon="7.748006">
        <ele>442.223795</ele>
        <time>2021-11-18T00:12:07.255Z</time>
      </trkpt>
      <trkpt lat="47.691424" lon="7.748027">
        <ele>440.649893</ele>
        <time>2021-11-18T00:12:09.364Z</time>
      </trkpt>
      <trkpt lat="47.691223" lon="7.748065">
        <ele>439.325968</ele>
        <time>2021-11-18T00:12:11.226Z</time>
      </trkpt>
      <trkpt lat="47.690972" lon="7.748136">
        <ele>437.692117</ele>
        <time>2021-11-18T00:12:13.546Z</time>
      </trkpt>
      <trkpt lat="47.690731" lon="7.748337">
        <ele>435.924797</ele>
        <time>2021-11-18T00:12:15.985Z</time>
      </trkpt>
      <trkpt lat="47.690496" lon="7.748600">
        <ele>434.043404</ele>
        <time>2021-11-18T00:12:18.623Z</time>
      </trkpt>
      <trkpt lat="47.690236" lon="7.748892">
        <ele>431.959211</ele>
        <time>2021-11-18T00:12:21.567Z</time>
      </trkpt>
      <trkpt lat="47.690126" lon="7.748987">
        <ele>431.145592</ele>
        <time>2021-11-18T00:12:22.728Z</time>
      </trkpt>
      <trkpt lat="47.690008" lon="7.749031">
        <ele>430.367637</ele>
        <time>2021-11-18T00:12:23.828Z</time>
      </trkpt>
      <trkpt lat="47.689867" lon="7.749064">
        <ele>429.454894</ele>
        <time>2021-11-18T00:12:25.186Z</time>
      </trkpt>
      <trkpt lat="47.689731" lon="7.749096">
        <ele>428.574403</ele>
        <time>2021-11-18T00:12:26.507Z</time>
      </trkpt>
      <trkpt lat="47.689504" lon="7.749160">
        <ele>427.615485</ele>
        <time>2021-11-18T00:12:28.728Z</time>
      </trkpt>
      <trkpt lat="47.689310" lon="7.749200">
        <ele>426.808708</ele>
        <time>2021-11-18T00:12:30.594Z</time>
      </trkpt>
      <trkpt lat="47.689421" lon="7.748621">
        <ele>425.139411</ele>
        <time>2021-11-18T00:12:34.551Z</time>
      </trkpt>
      <trkpt lat="47.689456" lon="7.748313">
        <ele>424.273303</ele>
        <time>2021-11-18T00:12:36.630Z</time>
      </trkpt>
      <trkpt lat="47.689387" lon="7.746843">
        <ele>420.178823</ele>
        <time>2021-11-18T00:12:46.414Z</time>
      </trkpt>
      <trkpt lat="47.689598" lon="7.745786">
        <ele>417.094515</ele>
        <time>2021-11-18T00:12:53.863Z</time>
      </trkpt>
      <trkpt lat="47.689494" lon="7.744812">
        <ele>414.335624</ele>
        <time>2021-11-18T00:13:00.288Z</time>
      </trkpt>
      <trkpt lat="47.689696" lon="7.743353">
        <ele>407.977498</ele>
        <time>2021-11-18T00:13:09.496Z</time>
      </trkpt>
      <trkpt lat="47.689694" lon="7.743050">
        <ele>406.599389</ele>
        <time>2021-11-18T00:13:11.294Z</time>
      </trkpt>
      <trkpt lat="47.689689" lon="7.742165">
        <ele>402.574270</ele>
        <time>2021-11-18T00:13:16.598Z</time>
      </trkpt>
      <trkpt lat="47.689662" lon="7.741645">
        <ele>400.195681</ele>
        <time>2021-11-18T00:13:19.720Z</time>
      </trkpt>
      <trkpt lat="47.689593" lon="7.741255">
        <ele>398.352512</ele>
        <time>2021-11-18T00:13:22.122Z</time>
      </trkpt>
      <trkpt lat="47.689525" lon="7.740902">
        <ele>396.674237</ele>
        <time>2021-11-18T00:13:24.296Z</time>
      </trkpt>
      <trkpt lat="47.689519" lon="7.740778">
        <ele>396.105990</ele>
        <time>2021-11-18T00:13:25.033Z</time>
      </trkpt>
      <trkpt lat="47.689508" lon="7.740589">
        <ele>395.238877</ele>
        <time>2021-11-18T00:13:26.189Z</time>
      </trkpt>
      <trkpt lat="47.689552" lon="7.740318">
        <ele>393.964657</ele>
        <time>2021-11-18T00:13:27.849Z</time>
      </trkpt>
      <trkpt lat="47.689653" lon="7.740135">
        <ele>392.882985</ele>
        <time>2021-11-18T00:13:29.319Z</time>
      </trkpt>
      <trkpt lat="47.689975" lon="7.739810">
        <ele>390.239621</ele>
        <time>2021-11-18T00:13:32.892Z</time>
      </trkpt>
      <trkpt lat="47.690181" lon="7.739276">
        <ele>388.458537</ele>
        <time>2021-11-18T00:13:36.768Z</time>
      </trkpt>
      <trkpt lat="47.690269" lon="7.739099">
        <ele>388.005409</ele>
        <time>2021-11-18T00:13:38.195Z</time>
      </trkpt>
      <trkpt lat="47.690374" lon="7.739013">
        <ele>387.638610</ele>
        <time>2021-11-18T00:13:39.490Z</time>
      </trkpt>
      <trkpt lat="47.690436" lon="7.738893">
        <ele>387.327101</ele>
        <time>2021-11-18T00:13:40.584Z</time>
      </trkpt>
      <trkpt lat="47.690534" lon="7.738217">
        <ele>385.903135</ele>
        <time>2021-11-18T00:13:45.502Z</time>
      </trkpt>
      <trkpt lat="47.690466" lon="7.738254">
        <ele>385.681596</ele>
        <time>2021-11-18T00:13:46.290Z</time>
      </trkpt>
      <trkpt lat="47.690414" lon="7.738257">
        <ele>385.522399</ele>
        <time>2021-11-18T00:13:46.880Z</time>
      </trkpt>
      <trkpt lat="47.690373" lon="7.738251">
        <ele>385.396365</ele>
        <time>2021-11-18T00:13:47.347Z</time>
      </trkpt>
      <trkpt lat="47.690188" lon="7.738141">
        <ele>384.786768</ele>
        <time>2021-11-18T00:13:49.491Z</time>
      </trkpt>
      <trkpt lat="47.689715" lon="7.737879">
        <ele>383.445874</ele>
        <time>2021-11-18T00:13:54.989Z</time>
      </trkpt>
      <trkpt lat="47.689192" lon="7.737735">
        <ele>382.409776</ele>
        <time>2021-11-18T00:14:00.937Z</time>
      </trkpt>
      <trkpt lat="47.688900" lon="7.737742">
        <ele>381.840917</ele>
        <time>2021-11-18T00:14:04.200Z</time>
      </trkpt>
      <trkpt lat="47.688795" lon="7.737743">
        <ele>381.636384</ele>
        <time>2021-11-18T00:14:05.352Z</time>
      </trkpt>
      <trkpt lat="47.688176" lon="7.737850">
        <ele>380.422502</ele>
        <time>2021-11-18T00:14:12.299Z</time>
      </trkpt>
      <trkpt lat="47.688003" lon="7.737904">
        <ele>380.062906</ele>
        <time>2021-11-18T00:14:14.196Z</time>
      </trkpt>
      <trkpt lat="47.686856" lon="7.738288">
        <ele>377.614352</ele>
        <time>2021-11-18T00:14:26.855Z</time>
      </trkpt>
      <trkpt lat="47.685871" lon="7.738439">
        <ele>375.741855</ele>
        <time>2021-11-18T00:14:37.846Z</time>
      </trkpt>
      <trkpt lat="47.685295" lon="7.738591">
        <ele>374.754401</ele>
        <time>2021-11-18T00:14:44.488Z</time>
      </trkpt>
      <trkpt lat="47.684782" lon="7.738700">
        <ele>373.879694</ele>
        <time>2021-11-18T00:14:50.344Z</time>
      </trkpt>
      <trkpt lat="47.684345" lon="7.738781">
        <ele>373.245332</ele>
        <time>2021-11-18T00:14:55.366Z</time>
      </trkpt>
      <trkpt lat="47.683955" lon="7.738770">
        <ele>372.775313</ele>
        <time>2021-11-18T00:14:59.904Z</time>
      </trkpt>
      <trkpt lat="47.683619" lon="7.738743">
        <ele>372.369854</ele>
        <time>2021-11-18T00:15:03.916Z</time>
      </trkpt>
      <trkpt lat="47.683198" lon="7.738684">
        <ele>371.860312</ele>
        <time>2021-11-18T00:15:09.043Z</time>
      </trkpt>
      <trkpt lat="47.681369" lon="7.738489">
        <ele>369.980854</ele>
        <time>2021-11-18T00:15:31.781Z</time>
      </trkpt>
      <trkpt lat="47.680533" lon="7.738227">
        <ele>368.995209</ele>
        <time>2021-11-18T00:15:42.008Z</time>
      </trkpt>
      <trkpt lat="47.680227" lon="7.738094">
        <ele>368.578823</ele>
        <time>2021-11-18T00:15:45.748Z</time>
      </trkpt>
      <trkpt lat="47.679681" lon="7.737780">
        <ele>367.814180</ele>
        <time>2021-11-18T00:15:52.582Z</time>
      </trkpt>
      <trkpt lat="47.679312" lon="7.737558">
        <ele>367.294244</ele>
        <time>2021-11-18T00:15:57.125Z</time>
      </trkpt>
      <trkpt lat="47.679182" lon="7.737480">
        <ele>367.219448</ele>
        <time>2021-11-18T00:15:58.665Z</time>
      </trkpt>
      <trkpt lat="47.678261" lon="7.737149">
        <ele>366.915673</ele>
        <time>2021-11-18T00:16:10.769Z</time>
      </trkpt>
      <trkpt lat="47.677732" lon="7.737060">
        <ele>366.745002</ele>
        <time>2021-11-18T00:16:18.911Z</time>
      </trkpt>
      <trkpt lat="47.676927" lon="7.737026">
        <ele>367.171056</ele>
        <time>2021-11-18T00:16:34.235Z</time>
      </trkpt>
      <trkpt lat="47.674982" lon="7.736550">
        <ele>367.581649</ele>
        <time>2021-11-18T00:17:10.118Z</time>
      </trkpt>
      <trkpt lat="47.674295" lon="7.736409">
        <ele>367.056173</ele>
        <time>2021-11-18T00:17:17.982Z</time>
      </trkpt>
      <trkpt lat="47.673855" lon="7.736387">
        <ele>366.561255</ele>
        <time>2021-11-18T00:17:22.720Z</time>
      </trkpt>
      <trkpt lat="47.673492" lon="7.736461">
        <ele>365.716727</ele>
        <time>2021-11-18T00:17:26.559Z</time>
      </trkpt>
      <trkpt lat="47.673344" lon="7.736511">
        <ele>365.366885</ele>
        <time>2021-11-18T00:17:28.132Z</time>
      </trkpt>
      <trkpt lat="47.673154" lon="7.736575">
        <ele>364.917829</ele>
        <time>2021-11-18T00:17:30.159Z</time>
      </trkpt>
      <trkpt lat="47.672890" lon="7.736693">
        <ele>364.282370</ele>
        <time>2021-11-18T00:17:33.014Z</time>
      </trkpt>
      <trkpt lat="47.671561" lon="7.737762">
        <ele>361.542673</ele>
        <time>2021-11-18T00:17:49.752Z</time>
      </trkpt>
      <trkpt lat="47.671278" lon="7.738030">
        <ele>361.078955</ele>
        <time>2021-11-18T00:17:53.361Z</time>
      </trkpt>
      <trkpt lat="47.671021" lon="7.738380">
        <ele>360.597191</ele>
        <time>2021-11-18T00:17:57.496Z</time>
      </trkpt>
      <trkpt lat="47.670753" lon="7.738859">
        <ele>360.340354</ele>
        <time>2021-11-18T00:18:03.088Z</time>
      </trkpt>
      <trkpt lat="47.670331" lon="7.739901">
        <ele>361.591786</ele>
        <time>2021-11-18T00:18:19.561Z</time>
      </trkpt>
      <trkpt lat="47.670203" lon="7.740193">
        <ele>361.950378</ele>
        <time>2021-11-18T00:18:25.736Z</time>
      </trkpt>
      <trkpt lat="47.669750" lon="7.740792">
        <ele>362.877426</ele>
        <time>2021-11-18T00:18:39.200Z</time>
      </trkpt>
      <trkpt lat="47.669494" lon="7.740943">
        <ele>363.652084</ele>
        <time>2021-11-18T00:18:46.161Z</time>
      </trkpt>
      <trkpt lat="47.669351" lon="7.740999">
        <ele>364.089320</ele>
        <time>2021-11-18T00:18:50.370Z</time>
      </trkpt>
      <trkpt lat="47.669055" lon="7.741049">
        <ele>364.970093</ele>
        <time>2021-11-18T00:18:59.008Z</time>
      </trkpt>
      <trkpt lat="47.668124" lon="7.740949">
        <ele>367.729804</ele>
        <time>2021-11-18T00:19:25.866Z</time>
      </trkpt>
      <trkpt lat="47.667361" lon="7.741151">
        <ele>369.909259</ele>
        <time>2021-11-18T00:19:43.071Z</time>
      </trkpt>
      <trkpt lat="47.666724" lon="7.741022">
        <ele>371.690698</ele>
        <time>2021-11-18T00:20:00.348Z</time>
      </trkpt>
      <trkpt lat="47.665679" lon="7.741103">
        <ele>374.089568</ele>
        <time>2021-11-18T00:20:28.895Z</time>
      </trkpt>
      <trkpt lat="47.665373" lon="7.741092">
        <ele>374.627430</ele>
        <time>2021-11-18T00:20:36.776Z</time>
      </trkpt>
      <trkpt lat="47.664884" lon="7.741112">
        <ele>375.487028</ele>
        <time>2021-11-18T00:20:47.292Z</time>
      </trkpt>
      <trkpt lat="47.664445" lon="7.741223">
        <ele>376.269545</ele>
        <time>2021-11-18T00:20:55.466Z</time>
      </trkpt>
      <trkpt lat="47.663991" lon="7.741248">
        <ele>375.201616</ele>
        <time>2021-11-18T00:21:01.947Z</time>
      </trkpt>
      <trkpt lat="47.663281" lon="7.741134">
        <ele>373.040857</ele>
        <time>2021-11-18T00:21:09.566Z</time>
      </trkpt>
      <trkpt lat="47.662726" lon="7.741265">
        <ele>371.340517</ele>
        <time>2021-11-18T00:21:14.716Z</time>
      </trkpt>
      <trkpt lat="47.661687" lon="7.741310">
        <ele>365.744632</ele>
        <time>2021-11-18T00:21:24.343Z</time>
      </trkpt>
      <trkpt lat="47.661674" lon="7.741304">
        <ele>365.666659</ele>
        <time>2021-11-18T00:21:24.458Z</time>
      </trkpt>
      <trkpt lat="47.661611" lon="7.741276">
        <ele>365.290004</ele>
        <time>2021-11-18T00:21:25.041Z</time>
      </trkpt>
      <trkpt lat="47.661483" lon="7.741188">
        <ele>364.482099</ele>
        <time>2021-11-18T00:21:26.412Z</time>
      </trkpt>
      <trkpt lat="47.661424" lon="7.741131">
        <ele>364.078935</ele>
        <time>2021-11-18T00:21:27.123Z</time>
      </trkpt>
      <trkpt lat="47.661298" lon="7.741035">
        <ele>363.267793</ele>
        <time>2021-11-18T00:21:28.412Z</time>
      </trkpt>
      <trkpt lat="47.660437" lon="7.740780">
        <ele>358.900502</ele>
        <time>2021-11-18T00:21:36.598Z</time>
      </trkpt>
      <trkpt lat="47.660092" lon="7.740956">
        <ele>357.387037</ele>
        <time>2021-11-18T00:21:39.955Z</time>
      </trkpt>
      <trkpt lat="47.659914" lon="7.741102">
        <ele>356.543355</ele>
        <time>2021-11-18T00:21:42.048Z</time>
      </trkpt>
      <trkpt lat="47.659389" lon="7.741651">
        <ele>353.879218</ele>
        <time>2021-11-18T00:21:48.654Z</time>
      </trkpt>
      <trkpt lat="47.658430" lon="7.742636">
        <ele>352.888167</ele>
        <time>2021-11-18T00:22:00.370Z</time>
      </trkpt>
      <trkpt lat="47.657946" lon="7.742967">
        <ele>352.734225</ele>
        <time>2021-11-18T00:22:12.220Z</time>
      </trkpt>
      <trkpt lat="47.657396" lon="7.743356">
        <ele>354.446075</ele>
        <time>2021-11-18T00:22:33.353Z</time>
      </trkpt>
      <trkpt lat="47.656895" lon="7.743736">
        <ele>357.406459</ele>
        <time>2021-11-18T00:22:55.990Z</time>
      </trkpt>
      <trkpt lat="47.656798" lon="7.743812">
        <ele>357.983592</ele>
        <time>2021-11-18T00:22:59.758Z</time>
      </trkpt>
      <trkpt lat="47.656699" lon="7.743927">
        <ele>358.645040</ele>
        <time>2021-11-18T00:23:04.982Z</time>
      </trkpt>
      <trkpt lat="47.656638" lon="7.744059">
        <ele>359.212417</ele>
        <time>2021-11-18T00:23:10.120Z</time>
      </trkpt>
      <trkpt lat="47.656592" lon="7.744040">
        <ele>359.463662</ele>
        <time>2021-11-18T00:23:11.688Z</time>
      </trkpt>
      <trkpt lat="47.656129" lon="7.743833">
        <ele>362.008047</ele>
        <time>2021-11-18T00:23:31.363Z</time>
      </trkpt>
      <trkpt lat="47.654324" lon="7.743075">
        <ele>366.100830</ele>
        <time>2021-11-18T00:24:14.852Z</time>
      </trkpt>
      <trkpt lat="47.653639" lon="7.742914">
        <ele>365.518985</ele>
        <time>2021-11-18T00:24:22.836Z</time>
      </trkpt>
      <trkpt lat="47.653011" lon="7.743041">
        <ele>364.987251</ele>
        <time>2021-11-18T00:24:30.258Z</time>
      </trkpt>
      <trkpt lat="47.652352" lon="7.743329">
        <ele>364.110630</ele>
        <time>2021-11-18T00:24:38.527Z</time>
      </trkpt>
      <trkpt lat="47.651664" lon="7.743365">
        <ele>362.771301</ele>
        <time>2021-11-18T00:24:46.917Z</time>
      </trkpt>
      <trkpt lat="47.650941" lon="7.743251">
        <ele>361.356799</ele>
        <time>2021-11-18T00:24:54.823Z</time>
      </trkpt>
      <trkpt lat="47.650238" lon="7.743181">
        <ele>357.586707</ele>
        <time>2021-11-18T00:25:01.657Z</time>
      </trkpt>
      <trkpt lat="47.649349" lon="7.742957">
        <ele>352.182807</ele>
        <time>2021-11-18T00:25:09.784Z</time>
      </trkpt>
      <trkpt lat="47.648726" lon="7.742773">
        <ele>348.050934</ele>
        <time>2021-11-18T00:25:15.385Z</time>
      </trkpt>
      <trkpt lat="47.648686" lon="7.742761">
        <ele>347.766300</ele>
        <time>2021-11-18T00:25:15.742Z</time>
      </trkpt>
      <trkpt lat="47.648430" lon="7.742708">
        <ele>345.963459</ele>
        <time>2021-11-18T00:25:18.012Z</time>
      </trkpt>
      <trkpt lat="47.647923" lon="7.742761">
        <ele>342.418459</ele>
        <time>2021-11-18T00:25:22.524Z</time>
      </trkpt>
      <trkpt lat="47.647668" lon="7.742782">
        <ele>340.637141</ele>
        <time>2021-11-18T00:25:24.817Z</time>
      </trkpt>
      <trkpt lat="47.647263" lon="7.742628">
        <ele>337.777171</ele>
        <time>2021-11-18T00:25:28.683Z</time>
      </trkpt>
      <trkpt lat="47.647031" lon="7.742584">
        <ele>337.119761</ele>
        <time>2021-11-18T00:25:30.972Z</time>
      </trkpt>
      <trkpt lat="47.646932" lon="7.742608">
        <ele>336.837803</ele>
        <time>2021-11-18T00:25:31.916Z</time>
      </trkpt>
      <trkpt lat="47.646840" lon="7.742630">
        <ele>336.575874</ele>
        <time>2021-11-18T00:25:32.884Z</time>
      </trkpt>
      <trkpt lat="47.646642" lon="7.742762">
        <ele>335.965777</ele>
        <time>2021-11-18T00:25:35.108Z</time>
      </trkpt>
      <trkpt lat="47.646406" lon="7.742933">
        <ele>335.227609</ele>
        <time>2021-11-18T00:25:37.891Z</time>
      </trkpt>
      <trkpt lat="47.646017" lon="7.743245">
        <ele>333.984786</ele>
        <time>2021-11-18T00:25:42.717Z</time>
      </trkpt>
      <trkpt lat="47.645911" lon="7.743330">
        <ele>333.646141</ele>
        <time>2021-11-18T00:25:44.035Z</time>
      </trkpt>
      <trkpt lat="47.645734" lon="7.743440">
        <ele>333.106779</ele>
        <time>2021-11-18T00:25:46.375Z</time>
      </trkpt>
      <trkpt lat="47.645188" lon="7.743513">
        <ele>332.326235</ele>
        <time>2021-11-18T00:25:52.888Z</time>
      </trkpt>
      <trkpt lat="47.645131" lon="7.743484">
        <ele>332.264772</ele>
        <time>2021-11-18T00:25:53.620Z</time>
      </trkpt>
      <trkpt lat="47.645054" lon="7.743433">
        <ele>332.178763</ele>
        <time>2021-11-18T00:25:54.642Z</time>
      </trkpt>
      <trkpt lat="47.644925" lon="7.743203">
        <ele>331.973097</ele>
        <time>2021-11-18T00:25:57.107Z</time>
      </trkpt>
      <trkpt lat="47.644734" lon="7.742487">
        <ele>331.443873</ele>
        <time>2021-11-18T00:26:03.510Z</time>
      </trkpt>
      <trkpt lat="47.644669" lon="7.742280">
        <ele>331.286923</ele>
        <time>2021-11-18T00:26:05.416Z</time>
      </trkpt>
      <trkpt lat="47.644599" lon="7.742155">
        <ele>331.175219</ele>
        <time>2021-11-18T00:26:06.768Z</time>
      </trkpt>
      <trkpt lat="47.644397" lon="7.741849">
        <ele>330.900316</ele>
        <time>2021-11-18T00:26:10.401Z</time>
      </trkpt>
      <trkpt lat="47.644276" lon="7.741683">
        <ele>330.807028</ele>
        <time>2021-11-18T00:26:12.496Z</time>
      </trkpt>
      <trkpt lat="47.644182" lon="7.741417">
        <ele>330.692453</ele>
        <time>2021-11-18T00:26:15.053Z</time>
      </trkpt>
      <trkpt lat="47.644157" lon="7.741340">
        <ele>330.659848</ele>
        <time>2021-11-18T00:26:15.795Z</time>
      </trkpt>
      <trkpt lat="47.644056" lon="7.741009">
        <ele>330.521243</ele>
        <time>2021-11-18T00:26:19.028Z</time>
      </trkpt>
      <trkpt lat="47.644034" lon="7.740945">
        <ele>330.493836</ele>
        <time>2021-11-18T00:26:19.661Z</time>
      </trkpt>
      <trkpt lat="47.643938" lon="7.740664">
        <ele>330.373656</ele>
        <time>2021-11-18T00:26:22.508Z</time>
      </trkpt>
      <trkpt lat="47.643881" lon="7.740570">
        <ele>330.325416</ele>
        <time>2021-11-18T00:26:23.634Z</time>
      </trkpt>
      <trkpt lat="47.643783" lon="7.740468">
        <ele>330.257648</ele>
        <time>2021-11-18T00:26:25.193Z</time>
      </trkpt>
      <trkpt lat="47.643656" lon="7.740319">
        <ele>330.165994</ele>
        <time>2021-11-18T00:26:27.383Z</time>
      </trkpt>
      <trkpt lat="47.643591" lon="7.740215">
        <ele>330.111882</ele>
        <time>2021-11-18T00:26:28.664Z</time>
      </trkpt>
      <trkpt lat="47.643475" lon="7.739785">
        <ele>329.935197</ele>
        <time>2021-11-18T00:26:32.777Z</time>
      </trkpt>
      <trkpt lat="47.643301" lon="7.739935">
        <ele>329.866567</ele>
        <time>2021-11-18T00:26:35.458Z</time>
      </trkpt>
      <trkpt lat="47.643256" lon="7.739959">
        <ele>329.853914</ele>
        <time>2021-11-18T00:26:36.129Z</time>
      </trkpt>
      <trkpt lat="47.643168" lon="7.740007">
        <ele>329.829105</ele>
        <time>2021-11-18T00:26:37.392Z</time>
      </trkpt>
      <trkpt lat="47.643121" lon="7.740032">
        <ele>329.815893</ele>
        <time>2021-11-18T00:26:38.081Z</time>
      </trkpt>
      <trkpt lat="47.642972" lon="7.740117">
        <ele>329.773653</ele>
        <time>2021-11-18T00:26:40.254Z</time>
      </trkpt>
      <trkpt lat="47.642922" lon="7.740181">
        <ele>329.756181</ele>
        <time>2021-11-18T00:26:41.170Z</time>
      </trkpt>
      <trkpt lat="47.642911" lon="7.740194">
        <ele>329.752460</ele>
        <time>2021-11-18T00:26:41.351Z</time>
      </trkpt>
      <trkpt lat="47.642862" lon="7.740256">
        <ele>329.735422</ele>
        <time>2021-11-18T00:26:42.218Z</time>
      </trkpt>
      <trkpt lat="47.642822" lon="7.740329">
        <ele>329.718646</ele>
        <time>2021-11-18T00:26:43.031Z</time>
      </trkpt>
      <trkpt lat="47.642798" lon="7.740374">
        <ele>329.708414</ele>
        <time>2021-11-18T00:26:43.588Z</time>
      </trkpt>
      <trkpt lat="47.642647" lon="7.740709">
        <ele>329.636554</ele>
        <time>2021-11-18T00:26:47.348Z</time>
      </trkpt>
      <trkpt lat="47.642519" lon="7.740966">
        <ele>329.579573</ele>
        <time>2021-11-18T00:26:50.455Z</time>
      </trkpt>
      <trkpt lat="47.642394" lon="7.741202">
        <ele>329.526052</ele>
        <time>2021-11-18T00:26:53.285Z</time>
      </trkpt>
      <trkpt lat="47.642274" lon="7.741453">
        <ele>329.471180</ele>
        <time>2021-11-18T00:26:56.367Z</time>
      </trkpt>
      <trkpt lat="47.642209" lon="7.741595">
        <ele>329.440573</ele>
        <time>2021-11-18T00:26:57.965Z</time>
      </trkpt>
      <trkpt lat="47.642066" lon="7.741908">
        <ele>329.476566</ele>
        <time>2021-11-18T00:27:01.745Z</time>
      </trkpt>
      <trkpt lat="47.641997" lon="7.741966">
        <ele>329.493514</ele>
        <time>2021-11-18T00:27:02.907Z</time>
      </trkpt>
      <trkpt lat="47.641954" lon="7.741976">
        <ele>329.502816</ele>
        <time>2021-11-18T00:27:03.481Z</time>
      </trkpt>
      <trkpt lat="47.641958" lon="7.742061">
        <ele>329.515086</ele>
        <time>2021-11-18T00:27:04.355Z</time>
      </trkpt>
      <trkpt lat="47.641960" lon="7.742153">
        <ele>329.528341</ele>
        <time>2021-11-18T00:27:05.330Z</time>
      </trkpt>
      <trkpt lat="47.641952" lon="7.742244">
        <ele>329.541556</ele>
        <time>2021-11-18T00:27:06.312Z</time>
      </trkpt>
      <trkpt lat="47.641935" lon="7.742324">
        <ele>329.553635</ele>
        <time>2021-11-18T00:27:07.188Z</time>
      </trkpt>
      <trkpt lat="47.641903" lon="7.742471">
        <ele>329.575881</ele>
        <time>2021-11-18T00:27:08.711Z</time>
      </trkpt>
      <trkpt lat="47.641887" lon="7.742564">
        <ele>329.589703</ele>
        <time>2021-11-18T00:27:09.613Z</time>
      </trkpt>
      <trkpt lat="47.641875" lon="7.742622">
        <ele>329.598440</ele>
        <time>2021-11-18T00:27:10.288Z</time>
      </trkpt>
      <trkpt lat="47.641858" lon="7.742708">
        <ele>329.611346</ele>
        <time>2021-11-18T00:27:11.313Z</time>
      </trkpt>
      <trkpt lat="47.641802" lon="7.742982">
        <ele>329.652577</ele>
        <time>2021-11-18T00:27:14.373Z</time>
      </trkpt>
      <trkpt lat="47.641773" lon="7.743087">
        <ele>329.668918</ele>
        <time>2021-11-18T00:27:15.506Z</time>
      </trkpt>
      <trkpt lat="47.641651" lon="7.743319">
        <ele>329.711298</ele>
        <time>2021-11-18T00:27:18.855Z</time>
      </trkpt>
      <trkpt lat="47.641543" lon="7.743498">
        <ele>329.745898</ele>
        <time>2021-11-18T00:27:21.288Z</time>
      </trkpt>
      <trkpt lat="47.641440" lon="7.743669">
        <ele>329.778928</ele>
        <time>2021-11-18T00:27:23.911Z</time>
      </trkpt>
      <trkpt lat="47.641133" lon="7.744182">
        <ele>329.946703</ele>
        <time>2021-11-18T00:27:31.772Z</time>
      </trkpt>
      <trkpt lat="47.641118" lon="7.744203">
        <ele>329.955938</ele>
        <time>2021-11-18T00:27:32.161Z</time>
      </trkpt>
      <trkpt lat="47.641021" lon="7.744322">
        <ele>330.012301</ele>
        <time>2021-11-18T00:27:34.318Z</time>
      </trkpt>
      <trkpt lat="47.641089" lon="7.744504">
        <ele>330.075099</ele>
        <time>2021-11-18T00:27:36.836Z</time>
      </trkpt>
      <trkpt lat="47.641098" lon="7.744530">
        <ele>330.083920</ele>
        <time>2021-11-18T00:27:37.117Z</time>
      </trkpt>
      <trkpt lat="47.641149" lon="7.744754">
        <ele>330.155269</ele>
        <time>2021-11-18T00:27:39.784Z</time>
      </trkpt>
      <trkpt lat="47.641056" lon="7.744855">
        <ele>330.206880</ele>
        <time>2021-11-18T00:27:41.781Z</time>
      </trkpt>
      <trkpt lat="47.640998" lon="7.744824">
        <ele>330.234489</ele>
        <time>2021-11-18T00:27:42.774Z</time>
      </trkpt>
      <trkpt lat="47.640958" lon="7.744746">
        <ele>330.264068</ele>
        <time>2021-11-18T00:27:43.800Z</time>
      </trkpt>
      <trkpt lat="47.640859" lon="7.744671">
        <ele>330.313848</ele>
        <time>2021-11-18T00:27:45.628Z</time>
      </trkpt>
      <trkpt lat="47.640802" lon="7.744697">
        <ele>330.340555</ele>
        <time>2021-11-18T00:27:46.562Z</time>
      </trkpt>
      <trkpt lat="47.640698" lon="7.744798">
        <ele>330.396218</ele>
        <time>2021-11-18T00:27:48.602Z</time>
      </trkpt>
      <trkpt lat="47.640175" lon="7.745392">
        <ele>331.172253</ele>
        <time>2021-11-18T00:27:58.901Z</time>
      </trkpt>
      <trkpt lat="47.639760" lon="7.744752">
        <ele>333.260462</ele>
        <time>2021-11-18T00:28:09.622Z</time>
      </trkpt>
      <trkpt lat="47.639661" lon="7.744599">
        <ele>333.759166</ele>
        <time>2021-11-18T00:28:12.711Z</time>
      </trkpt>
      <trkpt lat="47.639286" lon="7.744230">
        <ele>335.329073</ele>
        <time>2021-11-18T00:28:24.142Z</time>
      </trkpt>
      <trkpt lat="47.639124" lon="7.743936">
        <ele>336.221965</ele>
        <time>2021-11-18T00:28:34.467Z</time>
      </trkpt>
      <trkpt lat="47.639034" lon="7.743640">
        <ele>337.188737</ele>
        <time>2021-11-18T00:28:45.245Z</time>
      </trkpt>
      <trkpt lat="47.638834" lon="7.743716">
        <ele>339.548741</ele>
        <time>2021-11-18T00:28:57.478Z</time>
      </trkpt>
      <trkpt lat="47.638586" lon="7.743801">
        <ele>342.458310</ele>
        <time>2021-11-18T00:29:13.642Z</time>
      </trkpt>
      <trkpt lat="47.638337" lon="7.743810">
        <ele>345.305537</ele>
        <time>2021-11-18T00:29:28.016Z</time>
      </trkpt>
      <trkpt lat="47.638011" lon="7.743662">
        <ele>349.202589</ele>
        <time>2021-11-18T00:29:49.361Z</time>
      </trkpt>
      <trkpt lat="47.637785" lon="7.743491">
        <ele>352.102439</ele>
        <time>2021-11-18T00:30:06.292Z</time>
      </trkpt>
      <trkpt lat="47.637644" lon="7.743238">
        <ele>354.631381</ele>
        <time>2021-11-18T00:30:22.241Z</time>
      </trkpt>
      <trkpt lat="47.637552" lon="7.742900">
        <ele>357.439244</ele>
        <time>2021-11-18T00:30:38.007Z</time>
      </trkpt>
      <trkpt lat="47.637523" lon="7.742385">
        <ele>360.719642</ele>
        <time>2021-11-18T00:31:00.863Z</time>
      </trkpt>
      <trkpt lat="47.637556" lon="7.741902">
        <ele>363.798316</ele>
        <time>2021-11-18T00:31:21.549Z</time>
      </trkpt>
      <trkpt lat="47.637528" lon="7.741566">
        <ele>365.945309</ele>
        <time>2021-11-18T00:31:35.799Z</time>
      </trkpt>
      <trkpt lat="47.637507" lon="7.741319">
        <ele>367.524092</ele>
        <time>2021-11-18T00:31:45.512Z</time>
      </trkpt>
      <trkpt lat="47.637359" lon="7.740737">
        <ele>371.468968</ele>
        <time>2021-11-18T00:32:02.864Z</time>
      </trkpt>
      <trkpt lat="47.637115" lon="7.740401">
        <ele>374.498053</ele>
        <time>2021-11-18T00:32:13.617Z</time>
      </trkpt>
      <trkpt lat="47.636771" lon="7.740116">
        <ele>376.436741</ele>
        <time>2021-11-18T00:32:26.739Z</time>
      </trkpt>
      <trkpt lat="47.636317" lon="7.740109">
        <ele>378.670929</ele>
        <time>2021-11-18T00:32:42.244Z</time>
      </trkpt>
      <trkpt lat="47.636139" lon="7.739987">
        <ele>379.635745</ele>
        <time>2021-11-18T00:32:48.719Z</time>
      </trkpt>
      <trkpt lat="47.635963" lon="7.739717">
        <ele>380.881379</ele>
        <time>2021-11-18T00:32:57.320Z</time>
      </trkpt>
      <trkpt lat="47.635790" lon="7.739028">
        <ele>383.312499</ele>
        <time>2021-11-18T00:33:14.645Z</time>
      </trkpt>
      <trkpt lat="47.635441" lon="7.738683">
        <ele>385.204935</ele>
        <time>2021-11-18T00:33:29.749Z</time>
      </trkpt>
      <trkpt lat="47.634316" lon="7.737920">
        <ele>390.787027</ele>
        <time>2021-11-18T00:34:10.911Z</time>
      </trkpt>
      <trkpt lat="47.632595" lon="7.737266">
        <ele>396.593827</ele>
        <time>2021-11-18T00:34:59.553Z</time>
      </trkpt>
      <trkpt lat="47.632395" lon="7.737249">
        <ele>397.202926</ele>
        <time>2021-11-18T00:35:04.596Z</time>
      </trkpt>
      <trkpt lat="47.632230" lon="7.737357">
        <ele>397.684084</ele>
        <time>2021-11-18T00:35:09.236Z</time>
      </trkpt>
      <trkpt lat="47.631655" lon="7.738144">
        <ele>399.771168</ele>
        <time>2021-11-18T00:35:28.276Z</time>
      </trkpt>
      <trkpt lat="47.631444" lon="7.738356">
        <ele>400.451042</ele>
        <time>2021-11-18T00:35:35.079Z</time>
      </trkpt>
      <trkpt lat="47.631083" lon="7.738808">
        <ele>401.711283</ele>
        <time>2021-11-18T00:35:46.933Z</time>
      </trkpt>
      <trkpt lat="47.630948" lon="7.739058">
        <ele>402.397409</ele>
        <time>2021-11-18T00:35:53.008Z</time>
      </trkpt>
      <trkpt lat="47.630898" lon="7.739304">
        <ele>402.978645</ele>
        <time>2021-11-18T00:35:57.142Z</time>
      </trkpt>
      <trkpt lat="47.630891" lon="7.739335">
        <ele>403.052602</ele>
        <time>2021-11-18T00:35:57.725Z</time>
      </trkpt>
      <trkpt lat="47.630944" lon="7.739673">
        <ele>403.837616</ele>
        <time>2021-11-18T00:36:04.619Z</time>
      </trkpt>
      <trkpt lat="47.630907" lon="7.739873">
        <ele>404.306774</ele>
        <time>2021-11-18T00:36:08.058Z</time>
      </trkpt>
      <trkpt lat="47.630897" lon="7.740046">
        <ele>404.699555</ele>
        <time>2021-11-18T00:36:11.904Z</time>
      </trkpt>
      <trkpt lat="47.630863" lon="7.740423">
        <ele>405.559970</ele>
        <time>2021-11-18T00:36:18.492Z</time>
      </trkpt>
      <trkpt lat="47.630897" lon="7.740602">
        <ele>405.980663</ele>
        <time>2021-11-18T00:36:22.353Z</time>
      </trkpt>
      <trkpt lat="47.631280" lon="7.741275">
        <ele>408.002994</ele>
        <time>2021-11-18T00:36:39.307Z</time>
      </trkpt>
      <trkpt lat="47.631424" lon="7.741490">
        <ele>408.960202</ele>
        <time>2021-11-18T00:36:46.117Z</time>
      </trkpt>
      <trkpt lat="47.631477" lon="7.741795">
        <ele>409.954832</ele>
        <time>2021-11-18T00:36:53.041Z</time>
      </trkpt>
      <trkpt lat="47.631282" lon="7.742608">
        <ele>412.679879</ele>
        <time>2021-11-18T00:37:12.577Z</time>
      </trkpt>
      <trkpt lat="47.631260" lon="7.742819">
        <ele>413.354102</ele>
        <time>2021-11-18T00:37:17.552Z</time>
      </trkpt>
      <trkpt lat="47.631202" lon="7.744011">
        <ele>417.180440</ele>
        <time>2021-11-18T00:37:45.853Z</time>
      </trkpt>
      <trkpt lat="47.631185" lon="7.744218">
        <ele>417.882020</ele>
        <time>2021-11-18T00:37:50.641Z</time>
      </trkpt>
      <trkpt lat="47.631075" lon="7.745596">
        <ele>422.550555</ele>
        <time>2021-11-18T00:38:24.692Z</time>
      </trkpt>
      <trkpt lat="47.631034" lon="7.745824">
        <ele>423.344476</ele>
        <time>2021-11-18T00:38:29.777Z</time>
      </trkpt>
      <trkpt lat="47.630948" lon="7.746031">
        <ele>424.162616</ele>
        <time>2021-11-18T00:38:35.632Z</time>
      </trkpt>
      <trkpt lat="47.630697" lon="7.746375">
        <ele>425.759685</ele>
        <time>2021-11-18T00:38:46.910Z</time>
      </trkpt>
      <trkpt lat="47.629711" lon="7.747557">
        <ele>430.864643</ele>
        <time>2021-11-18T00:39:25.529Z</time>
      </trkpt>
      <trkpt lat="47.629452" lon="7.747871">
        <ele>432.211623</ele>
        <time>2021-11-18T00:39:35.766Z</time>
      </trkpt>
      <trkpt lat="47.629212" lon="7.748211">
        <ele>433.520136</ele>
        <time>2021-11-18T00:39:45.831Z</time>
      </trkpt>
      <trkpt lat="47.628729" lon="7.749001">
        <ele>436.334466</ele>
        <time>2021-11-18T00:40:07.911Z</time>
      </trkpt>
      <trkpt lat="47.628604" lon="7.749202">
        <ele>437.056096</ele>
        <time>2021-11-18T00:40:13.189Z</time>
      </trkpt>
      <trkpt lat="47.628584" lon="7.749233">
        <ele>437.169326</ele>
        <time>2021-11-18T00:40:14.864Z</time>
      </trkpt>
      <trkpt lat="47.627609" lon="7.750299">
        <ele>441.271619</ele>
        <time>2021-11-18T00:40:51.183Z</time>
      </trkpt>
      <trkpt lat="47.625761" lon="7.752304">
        <ele>446.270411</ele>
        <time>2021-11-18T00:41:46.437Z</time>
      </trkpt>
      <trkpt lat="47.624838" lon="7.753339">
        <ele>447.183664</ele>
        <time>2021-11-18T00:42:04.527Z</time>
      </trkpt>
      <trkpt lat="47.624277" lon="7.754101">
        <ele>446.961114</ele>
        <time>2021-11-18T00:42:14.404Z</time>
      </trkpt>
      <trkpt lat="47.622712" lon="7.756863">
        <ele>445.909556</ele>
        <time>2021-11-18T00:42:47.439Z</time>
      </trkpt>
      <trkpt lat="47.622511" lon="7.757074">
        <ele>445.643163</ele>
        <time>2021-11-18T00:42:50.520Z</time>
      </trkpt>
      <trkpt lat="47.622401" lon="7.757191">
        <ele>445.496729</ele>
        <time>2021-11-18T00:42:52.051Z</time>
      </trkpt>
      <trkpt lat="47.621775" lon="7.757496">
        <ele>444.783866</ele>
        <time>2021-11-18T00:42:59.647Z</time>
      </trkpt>
      <trkpt lat="47.621392" lon="7.757689">
        <ele>444.346243</ele>
        <time>2021-11-18T00:43:04.340Z</time>
      </trkpt>
      <trkpt lat="47.621012" lon="7.757974">
        <ele>444.095130</ele>
        <time>2021-11-18T00:43:09.655Z</time>
      </trkpt>
      <trkpt lat="47.620828" lon="7.758215">
        <ele>444.302262</ele>
        <time>2021-11-18T00:43:12.989Z</time>
      </trkpt>
      <trkpt lat="47.620566" lon="7.758657">
        <ele>444.637072</ele>
        <time>2021-11-18T00:43:18.695Z</time>
      </trkpt>
      <trkpt lat="47.620058" lon="7.759513">
        <ele>445.285818</ele>
        <time>2021-11-18T00:43:32.932Z</time>
      </trkpt>
      <trkpt lat="47.619245" lon="7.761370">
        <ele>448.841756</ele>
        <time>2021-11-18T00:44:15.419Z</time>
      </trkpt>
      <trkpt lat="47.618940" lon="7.761783">
        <ele>449.971568</ele>
        <time>2021-11-18T00:44:25.964Z</time>
      </trkpt>
      <trkpt lat="47.618742" lon="7.761992">
        <ele>450.409551</ele>
        <time>2021-11-18T00:44:31.229Z</time>
      </trkpt>
      <trkpt lat="47.618586" lon="7.762088">
        <ele>450.331746</ele>
        <time>2021-11-18T00:44:34.640Z</time>
      </trkpt>
      <trkpt lat="47.618125" lon="7.762615">
        <ele>450.063631</ele>
        <time>2021-11-18T00:44:43.998Z</time>
      </trkpt>
      <trkpt lat="47.617894" lon="7.763136">
        <ele>449.869980</ele>
        <time>2021-11-18T00:44:49.248Z</time>
      </trkpt>
      <trkpt lat="47.617858" lon="7.763622">
        <ele>449.718151</ele>
        <time>2021-11-18T00:44:53.002Z</time>
      </trkpt>
      <trkpt lat="47.617849" lon="7.763863">
        <ele>449.643197</ele>
        <time>2021-11-18T00:44:54.753Z</time>
      </trkpt>
      <trkpt lat="47.617934" lon="7.764271">
        <ele>449.086511</ele>
        <time>2021-11-18T00:44:57.688Z</time>
      </trkpt>
      <trkpt lat="47.618136" lon="7.764529">
        <ele>448.458379</ele>
        <time>2021-11-18T00:45:00.371Z</time>
      </trkpt>
      <trkpt lat="47.617927" lon="7.765048">
        <ele>447.498052</ele>
        <time>2021-11-18T00:45:04.575Z</time>
      </trkpt>
      <trkpt lat="47.617756" lon="7.765839">
        <ele>446.178536</ele>
        <time>2021-11-18T00:45:10.546Z</time>
      </trkpt>
      <trkpt lat="47.617587" lon="7.766558">
        <ele>445.148343</ele>
        <time>2021-11-18T00:45:16.337Z</time>
      </trkpt>
      <trkpt lat="47.617431" lon="7.767002">
        <ele>444.704282</ele>
        <time>2021-11-18T00:45:20.468Z</time>
      </trkpt>
      <trkpt lat="47.617229" lon="7.767356">
        <ele>444.292934</ele>
        <time>2021-11-18T00:45:24.328Z</time>
      </trkpt>
      <trkpt lat="47.616591" lon="7.768154">
        <ele>443.194962</ele>
        <time>2021-11-18T00:45:34.328Z</time>
      </trkpt>
      <trkpt lat="47.616428" lon="7.768317">
        <ele>442.870619</ele>
        <time>2021-11-18T00:45:36.753Z</time>
      </trkpt>
      <trkpt lat="47.616270" lon="7.768392">
        <ele>442.453876</ele>
        <time>2021-11-18T00:45:38.574Z</time>
      </trkpt>
      <trkpt lat="47.615847" lon="7.768379">
        <ele>441.391011</ele>
        <time>2021-11-18T00:45:43.266Z</time>
      </trkpt>
      <trkpt lat="47.615686" lon="7.768286">
        <ele>440.956976</ele>
        <time>2021-11-18T00:45:45.140Z</time>
      </trkpt>
      <trkpt lat="47.615034" lon="7.767629">
        <ele>438.976915</ele>
        <time>2021-11-18T00:45:53.221Z</time>
      </trkpt>
      <trkpt lat="47.614847" lon="7.767530">
        <ele>438.473856</ele>
        <time>2021-11-18T00:45:55.196Z</time>
      </trkpt>
      <trkpt lat="47.614663" lon="7.767520">
        <ele>437.846903</ele>
        <time>2021-11-18T00:45:57.057Z</time>
      </trkpt>
      <trkpt lat="47.614123" lon="7.767665">
        <ele>435.978285</ele>
        <time>2021-11-18T00:46:02.419Z</time>
      </trkpt>
      <trkpt lat="47.613763" lon="7.767578">
        <ele>434.736300</ele>
        <time>2021-11-18T00:46:06.052Z</time>
      </trkpt>
      <trkpt lat="47.613205" lon="7.767665">
        <ele>432.825806</ele>
        <time>2021-11-18T00:46:11.803Z</time>
      </trkpt>
      <trkpt lat="47.613003" lon="7.767758">
        <ele>432.142599</ele>
        <time>2021-11-18T00:46:13.922Z</time>
      </trkpt>
      <trkpt lat="47.612771" lon="7.767909">
        <ele>431.402631</ele>
        <time>2021-11-18T00:46:16.521Z</time>
      </trkpt>
      <trkpt lat="47.612502" lon="7.768119">
        <ele>430.514790</ele>
        <time>2021-11-18T00:46:19.650Z</time>
      </trkpt>
      <trkpt lat="47.611960" lon="7.768717">
        <ele>428.541865</ele>
        <time>2021-11-18T00:46:26.683Z</time>
      </trkpt>
      <trkpt lat="47.611843" lon="7.768871">
        <ele>428.085002</ele>
        <time>2021-11-18T00:46:28.287Z</time>
      </trkpt>
      <trkpt lat="47.611735" lon="7.769126">
        <ele>427.492038</ele>
        <time>2021-11-18T00:46:30.349Z</time>
      </trkpt>
      <trkpt lat="47.611495" lon="7.770538">
        <ele>424.591574</ele>
        <time>2021-11-18T00:46:40.457Z</time>
      </trkpt>
      <trkpt lat="47.611349" lon="7.770818">
        <ele>423.885276</ele>
        <time>2021-11-18T00:46:42.796Z</time>
      </trkpt>
      <trkpt lat="47.610490" lon="7.771899">
        <ele>420.745061</ele>
        <time>2021-11-18T00:46:54.523Z</time>
      </trkpt>
      <trkpt lat="47.610258" lon="7.772352">
        <ele>419.787761</ele>
        <time>2021-11-18T00:46:58.658Z</time>
      </trkpt>
      <trkpt lat="47.610187" lon="7.772679">
        <ele>419.209664</ele>
        <time>2021-11-18T00:47:01.262Z</time>
      </trkpt>
      <trkpt lat="47.610132" lon="7.773138">
        <ele>418.425170</ele>
        <time>2021-11-18T00:47:04.601Z</time>
      </trkpt>
      <trkpt lat="47.610139" lon="7.773592">
        <ele>417.660994</ele>
        <time>2021-11-18T00:47:07.805Z</time>
      </trkpt>
      <trkpt lat="47.610312" lon="7.774653">
        <ele>414.858495</ele>
        <time>2021-11-18T00:47:15.435Z</time>
      </trkpt>
      <trkpt lat="47.610473" lon="7.775477">
        <ele>412.469872</ele>
        <time>2021-11-18T00:47:21.139Z</time>
      </trkpt>
      <trkpt lat="47.610502" lon="7.776042">
        <ele>410.892226</ele>
        <time>2021-11-18T00:47:24.736Z</time>
      </trkpt>
      <trkpt lat="47.610448" lon="7.776605">
        <ele>408.886552</ele>
        <time>2021-11-18T00:47:28.263Z</time>
      </trkpt>
      <trkpt lat="47.610341" lon="7.777059">
        <ele>406.541452</ele>
        <time>2021-11-18T00:47:31.209Z</time>
      </trkpt>
      <trkpt lat="47.610133" lon="7.777501">
        <ele>403.913110</ele>
        <time>2021-11-18T00:47:34.470Z</time>
      </trkpt>
      <trkpt lat="47.609368" lon="7.778574">
        <ele>396.243261</ele>
        <time>2021-11-18T00:47:43.782Z</time>
      </trkpt>
      <trkpt lat="47.608894" lon="7.779407">
        <ele>390.411331</ele>
        <time>2021-11-18T00:47:50.240Z</time>
      </trkpt>
      <trkpt lat="47.608573" lon="7.780374">
        <ele>384.644541</ele>
        <time>2021-11-18T00:47:56.643Z</time>
      </trkpt>
      <trkpt lat="47.608399" lon="7.780950">
        <ele>381.738949</ele>
        <time>2021-11-18T00:48:00.424Z</time>
      </trkpt>
      <trkpt lat="47.608295" lon="7.781364">
        <ele>380.218698</ele>
        <time>2021-11-18T00:48:03.137Z</time>
      </trkpt>
      <trkpt lat="47.608309" lon="7.781587">
        <ele>379.448035</ele>
        <time>2021-11-18T00:48:04.541Z</time>
      </trkpt>
      <trkpt lat="47.608437" lon="7.781938">
        <ele>378.074881</ele>
        <time>2021-11-18T00:48:07.044Z</time>
      </trkpt>
      <trkpt lat="47.608448" lon="7.782041">
        <ele>377.716039</ele>
        <time>2021-11-18T00:48:07.713Z</time>
      </trkpt>
      <trkpt lat="47.608319" lon="7.782746">
        <ele>375.202377</ele>
        <time>2021-11-18T00:48:12.453Z</time>
      </trkpt>
      <trkpt lat="47.608293" lon="7.782840">
        <ele>374.852759</ele>
        <time>2021-11-18T00:48:13.111Z</time>
      </trkpt>
      <trkpt lat="47.608067" lon="7.783679">
        <ele>372.842236</ele>
        <time>2021-11-18T00:48:19.289Z</time>
      </trkpt>
      <trkpt lat="47.608000" lon="7.783873">
        <ele>372.587113</ele>
        <time>2021-11-18T00:48:20.847Z</time>
      </trkpt>
      <trkpt lat="47.607811" lon="7.784422">
        <ele>371.865619</ele>
        <time>2021-11-18T00:48:25.590Z</time>
      </trkpt>
      <trkpt lat="47.607784" lon="7.784501">
        <ele>371.761952</ele>
        <time>2021-11-18T00:48:26.269Z</time>
      </trkpt>
      <trkpt lat="47.607357" lon="7.785276">
        <ele>370.590486</ele>
        <time>2021-11-18T00:48:35.099Z</time>
      </trkpt>
      <trkpt lat="47.607244" lon="7.785405">
        <ele>370.342935</ele>
        <time>2021-11-18T00:48:36.751Z</time>
      </trkpt>
      <trkpt lat="47.607090" lon="7.785536">
        <ele>369.992532</ele>
        <time>2021-11-18T00:48:38.983Z</time>
      </trkpt>
      <trkpt lat="47.606894" lon="7.785802">
        <ele>369.453827</ele>
        <time>2021-11-18T00:48:42.088Z</time>
      </trkpt>
      <trkpt lat="47.606482" lon="7.786756">
        <ele>367.904952</ele>
        <time>2021-11-18T00:48:50.779Z</time>
      </trkpt>
      <trkpt lat="47.606236" lon="7.787573">
        <ele>366.681668</ele>
        <time>2021-11-18T00:48:57.014Z</time>
      </trkpt>
      <trkpt lat="47.606058" lon="7.787870">
        <ele>365.691694</ele>
        <time>2021-11-18T00:48:59.732Z</time>
      </trkpt>
      <trkpt lat="47.605245" lon="7.789093">
        <ele>361.247244</ele>
        <time>2021-11-18T00:49:10.882Z</time>
      </trkpt>
      <trkpt lat="47.604933" lon="7.789879">
        <ele>359.176339</ele>
        <time>2021-11-18T00:49:16.986Z</time>
      </trkpt>
      <trkpt lat="47.604861" lon="7.790465">
        <ele>358.160768</ele>
        <time>2021-11-18T00:49:21.111Z</time>
      </trkpt>
      <trkpt lat="47.604776" lon="7.790738">
        <ele>357.648076</ele>
        <time>2021-11-18T00:49:23.240Z</time>
      </trkpt>
      <trkpt lat="47.604673" lon="7.790747">
        <ele>357.387164</ele>
        <time>2021-11-18T00:49:24.335Z</time>
      </trkpt>
      <trkpt lat="47.604312" lon="7.790667">
        <ele>356.464154</ele>
        <time>2021-11-18T00:49:28.308Z</time>
      </trkpt>
      <trkpt lat="47.604020" lon="7.790669">
        <ele>355.725754</ele>
        <time>2021-11-18T00:49:31.555Z</time>
      </trkpt>
      <trkpt lat="47.603500" lon="7.790696">
        <ele>354.806517</ele>
        <time>2021-11-18T00:49:37.401Z</time>
      </trkpt>
      <trkpt lat="47.603379" lon="7.790683">
        <ele>354.656291</ele>
        <time>2021-11-18T00:49:38.749Z</time>
      </trkpt>
      <trkpt lat="47.603218" lon="7.790665">
        <ele>354.456361</ele>
        <time>2021-11-18T00:49:40.595Z</time>
      </trkpt>
      <trkpt lat="47.602292" lon="7.790564">
        <ele>353.306608</ele>
        <time>2021-11-18T00:49:51.873Z</time>
      </trkpt>
      <trkpt lat="47.601954" lon="7.790533">
        <ele>352.894774</ele>
        <time>2021-11-18T00:49:56.085Z</time>
      </trkpt>
      <trkpt lat="47.601768" lon="7.790511">
        <ele>352.687649</ele>
        <time>2021-11-18T00:49:58.464Z</time>
      </trkpt>
      <trkpt lat="47.601359" lon="7.790478">
        <ele>352.232966</ele>
        <time>2021-11-18T00:50:03.575Z</time>
      </trkpt>
      <trkpt lat="47.601073" lon="7.790573">
        <ele>351.907626</ele>
        <time>2021-11-18T00:50:07.211Z</time>
      </trkpt>
      <trkpt lat="47.600304" lon="7.790832">
        <ele>351.032260</ele>
        <time>2021-11-18T00:50:16.600Z</time>
      </trkpt>
      <trkpt lat="47.600211" lon="7.790869">
        <ele>350.885217</ele>
        <time>2021-11-18T00:50:17.722Z</time>
      </trkpt>
      <trkpt lat="47.600151" lon="7.790895">
        <ele>350.742114</ele>
        <time>2021-11-18T00:50:18.439Z</time>
      </trkpt>
      <trkpt lat="47.599667" lon="7.791105">
        <ele>349.587636</ele>
        <time>2021-11-18T00:50:24.145Z</time>
      </trkpt>
      <trkpt lat="47.598592" lon="7.791580">
        <ele>347.019701</ele>
        <time>2021-11-18T00:50:35.903Z</time>
      </trkpt>
      <trkpt lat="47.598252" lon="7.791731">
        <ele>346.138102</ele>
        <time>2021-11-18T00:50:39.529Z</time>
      </trkpt>
      <trkpt lat="47.598017" lon="7.791913">
        <ele>345.465486</ele>
        <time>2021-11-18T00:50:42.238Z</time>
      </trkpt>
      <trkpt lat="47.597848" lon="7.792115">
        <ele>344.914792</ele>
        <time>2021-11-18T00:50:44.502Z</time>
      </trkpt>
      <trkpt lat="47.597646" lon="7.792396">
        <ele>344.212118</ele>
        <time>2021-11-18T00:50:47.396Z</time>
      </trkpt>
      <trkpt lat="47.596504" lon="7.792669">
        <ele>341.487552</ele>
        <time>2021-11-18T00:50:59.922Z</time>
      </trkpt>
      <trkpt lat="47.595750" lon="7.792802">
        <ele>339.964013</ele>
        <time>2021-11-18T00:51:08.310Z</time>
      </trkpt>
      <trkpt lat="47.595245" lon="7.792802">
        <ele>338.950749</ele>
        <time>2021-11-18T00:51:13.839Z</time>
      </trkpt>
      <trkpt lat="47.595133" lon="7.792800">
        <ele>338.726009</ele>
        <time>2021-11-18T00:51:15.080Z</time>
      </trkpt>
      <trkpt lat="47.594154" lon="7.792816">
        <ele>337.077151</ele>
        <time>2021-11-18T00:51:25.894Z</time>
      </trkpt>
      <trkpt lat="47.594082" lon="7.792808">
        <ele>336.956195</ele>
        <time>2021-11-18T00:51:26.705Z</time>
      </trkpt>
      <trkpt lat="47.593971" lon="7.792763">
        <ele>336.763418</ele>
        <time>2021-11-18T00:51:28.479Z</time>
      </trkpt>
      <trkpt lat="47.593728" lon="7.792495">
        <ele>336.256082</ele>
        <time>2021-11-18T00:51:33.371Z</time>
      </trkpt>
      <trkpt lat="47.593198" lon="7.791524">
        <ele>335.801262</ele>
        <time>2021-11-18T00:51:47.892Z</time>
      </trkpt>
      <trkpt lat="47.592913" lon="7.791301">
        <ele>335.894670</ele>
        <time>2021-11-18T00:51:55.252Z</time>
      </trkpt>
      <trkpt lat="47.592574" lon="7.791231">
        <ele>335.993883</ele>
        <time>2021-11-18T00:52:04.113Z</time>
      </trkpt>
      <trkpt lat="47.592294" lon="7.791165">
        <ele>336.076064</ele>
        <time>2021-11-18T00:52:10.956Z</time>
      </trkpt>
      <trkpt lat="47.592223" lon="7.791117">
        <ele>336.098683</ele>
        <time>2021-11-18T00:52:12.781Z</time>
      </trkpt>
      <trkpt lat="47.592139" lon="7.791043">
        <ele>336.127005</ele>
        <time>2021-11-18T00:52:14.199Z</time>
      </trkpt>
      <trkpt lat="47.592020" lon="7.790907">
        <ele>336.170556</ele>
        <time>2021-11-18T00:52:17.392Z</time>
      </trkpt>
      <trkpt lat="47.591651" lon="7.790400">
        <ele>336.311213</ele>
        <time>2021-11-18T00:52:25.588Z</time>
      </trkpt>
      <trkpt lat="47.591450" lon="7.790091">
        <ele>336.391924</ele>
        <time>2021-11-18T00:52:30.353Z</time>
      </trkpt>
      <trkpt lat="47.591284" lon="7.789842">
        <ele>336.457748</ele>
        <time>2021-11-18T00:52:33.806Z</time>
      </trkpt>
      <trkpt lat="47.590789" lon="7.789356">
        <ele>336.623245</ele>
        <time>2021-11-18T00:52:44.441Z</time>
      </trkpt>
      <trkpt lat="47.590653" lon="7.789281">
        <ele>336.663694</ele>
        <time>2021-11-18T00:52:46.191Z</time>
      </trkpt>
      <trkpt lat="47.590583" lon="7.789238">
        <ele>336.674354</ele>
        <time>2021-11-18T00:52:47.534Z</time>
      </trkpt>
      <trkpt lat="47.590436" lon="7.789150">
        <ele>336.472042</ele>
        <time>2021-11-18T00:52:49.628Z</time>
      </trkpt>
      <trkpt lat="47.590142" lon="7.788907">
        <ele>336.042488</ele>
        <time>2021-11-18T00:52:53.877Z</time>
      </trkpt>
      <trkpt lat="47.590060" lon="7.788799">
        <ele>335.902518</ele>
        <time>2021-11-18T00:52:55.085Z</time>
      </trkpt>
      <trkpt lat="47.590023" lon="7.788867">
        <ele>335.827318</ele>
        <time>2021-11-18T00:52:55.864Z</time>
      </trkpt>
      <trkpt lat="47.589889" lon="7.789013">
        <ele>335.615104</ele>
        <time>2021-11-18T00:52:57.672Z</time>
      </trkpt>
      <trkpt lat="47.589648" lon="7.789139">
        <ele>335.288983</ele>
        <time>2021-11-18T00:53:00.592Z</time>
      </trkpt>
      <trkpt lat="47.588924" lon="7.789149">
        <ele>334.352640</ele>
        <time>2021-11-18T00:53:08.802Z</time>
      </trkpt>
      <trkpt lat="47.588623" lon="7.789048">
        <ele>333.743204</ele>
        <time>2021-11-18T00:53:12.420Z</time>
      </trkpt>
      <trkpt lat="47.588438" lon="7.788977">
        <ele>333.365833</ele>
        <time>2021-11-18T00:53:14.391Z</time>
      </trkpt>
      <trkpt lat="47.587697" lon="7.788612">
        <ele>331.823893</ele>
        <time>2021-11-18T00:53:22.945Z</time>
      </trkpt>
      <trkpt lat="47.587461" lon="7.788566">
        <ele>331.353839</ele>
        <time>2021-11-18T00:53:25.485Z</time>
      </trkpt>
      <trkpt lat="47.586929" lon="7.788594">
        <ele>330.653357</ele>
        <time>2021-11-18T00:53:31.215Z</time>
      </trkpt>
      <trkpt lat="47.586760" lon="7.788656">
        <ele>330.535785</ele>
        <time>2021-11-18T00:53:33.242Z</time>
      </trkpt>
      <trkpt lat="47.586591" lon="7.788719">
        <ele>330.418103</ele>
        <time>2021-11-18T00:53:35.437Z</time>
      </trkpt>
      <trkpt lat="47.586523" lon="7.788744">
        <ele>330.370790</ele>
        <time>2021-11-18T00:53:36.243Z</time>
      </trkpt>
      <trkpt lat="47.585521" lon="7.789426">
        <ele>329.626214</ele>
        <time>2021-11-18T00:53:52.780Z</time>
      </trkpt>
      <trkpt lat="47.584464" lon="7.789827">
        <ele>328.756391</ele>
        <time>2021-11-18T00:54:09.213Z</time>
      </trkpt>
      <trkpt lat="47.584293" lon="7.789957">
        <ele>328.603019</ele>
        <time>2021-11-18T00:54:11.657Z</time>
      </trkpt>
      <trkpt lat="47.584137" lon="7.790106">
        <ele>328.454915</ele>
        <time>2021-11-18T00:54:13.843Z</time>
      </trkpt>
      <trkpt lat="47.584135" lon="7.790107">
        <ele>328.453230</ele>
        <time>2021-11-18T00:54:13.862Z</time>
      </trkpt>
      <trkpt lat="47.584036" lon="7.790216">
        <ele>328.354813</ele>
        <time>2021-11-18T00:54:15.236Z</time>
      </trkpt>
      <trkpt lat="47.583511" lon="7.790796">
        <ele>326.494509</ele>
        <time>2021-11-18T00:54:21.999Z</time>
      </trkpt>
      <trkpt lat="47.583202" lon="7.791051">
        <ele>325.143264</ele>
        <time>2021-11-18T00:54:25.406Z</time>
      </trkpt>
      <trkpt lat="47.582779" lon="7.791262">
        <ele>323.437992</ele>
        <time>2021-11-18T00:54:29.613Z</time>
      </trkpt>
      <trkpt lat="47.582261" lon="7.791284">
        <ele>321.457955</ele>
        <time>2021-11-18T00:54:34.659Z</time>
      </trkpt>
      <trkpt lat="47.582013" lon="7.791256">
        <ele>320.773812</ele>
        <time>2021-11-18T00:54:37.048Z</time>
      </trkpt>
      <trkpt lat="47.581708" lon="7.791259">
        <ele>319.993566</ele>
        <time>2021-11-18T00:54:40.157Z</time>
      </trkpt>
      <trkpt lat="47.581189" lon="7.791372">
        <ele>318.651657</ele>
        <time>2021-11-18T00:54:45.819Z</time>
      </trkpt>
      <trkpt lat="47.580737" lon="7.791705">
        <ele>317.360474</ele>
        <time>2021-11-18T00:54:51.533Z</time>
      </trkpt>
      <trkpt lat="47.580645" lon="7.791792">
        <ele>317.081322</ele>
        <time>2021-11-18T00:54:52.705Z</time>
      </trkpt>
      <trkpt lat="47.579608" lon="7.792763">
        <ele>313.335175</ele>
        <time>2021-11-18T00:55:06.215Z</time>
      </trkpt>
      <trkpt lat="47.579133" lon="7.793208">
        <ele>311.581780</ele>
        <time>2021-11-18T00:55:11.673Z</time>
      </trkpt>
      <trkpt lat="47.578861" lon="7.793502">
        <ele>309.994586</ele>
        <time>2021-11-18T00:55:14.820Z</time>
      </trkpt>
      <trkpt lat="47.578748" lon="7.793671">
        <ele>309.020304</ele>
        <time>2021-11-18T00:55:16.261Z</time>
      </trkpt>
      <trkpt lat="47.578632" lon="7.793843">
        <ele>308.024470</ele>
        <time>2021-11-18T00:55:17.800Z</time>
      </trkpt>
      <trkpt lat="47.578556" lon="7.793956">
        <ele>307.371127</ele>
        <time>2021-11-18T00:55:18.760Z</time>
      </trkpt>
      <trkpt lat="47.578357" lon="7.794270">
        <ele>305.607084</ele>
        <time>2021-11-18T00:55:21.398Z</time>
      </trkpt>
      <trkpt lat="47.578308" lon="7.794357">
        <ele>305.143030</ele>
        <time>2021-11-18T00:55:22.066Z</time>
      </trkpt>
      <trkpt lat="47.578242" lon="7.794472">
        <ele>304.524814</ele>
        <time>2021-11-18T00:55:22.971Z</time>
      </trkpt>
      <trkpt lat="47.578016" lon="7.794883">
        <ele>302.353732</ele>
        <time>2021-11-18T00:55:26.213Z</time>
      </trkpt>
      <trkpt lat="47.577627" lon="7.795646">
        <ele>299.072880</ele>
        <time>2021-11-18T00:55:32.160Z</time>
      </trkpt>
      <trkpt lat="47.577551" lon="7.795780">
        <ele>298.617047</ele>
        <time>2021-11-18T00:55:33.308Z</time>
      </trkpt>
      <trkpt lat="47.577456" lon="7.795967">
        <ele>298.007517</ele>
        <time>2021-11-18T00:55:34.807Z</time>
      </trkpt>
      <trkpt lat="47.577380" lon="7.796116">
        <ele>297.521139</ele>
        <time>2021-11-18T00:55:36.034Z</time>
      </trkpt>
      <trkpt lat="47.577291" lon="7.796229">
        <ele>297.068840</ele>
        <time>2021-11-18T00:55:37.182Z</time>
      </trkpt>
      <trkpt lat="47.577222" lon="7.796219">
        <ele>296.801247</ele>
        <time>2021-11-18T00:55:37.845Z</time>
      </trkpt>
      <trkpt lat="47.577124" lon="7.796239">
        <ele>296.419422</ele>
        <time>2021-11-18T00:55:38.818Z</time>
      </trkpt>
      <trkpt lat="47.576960" lon="7.796396">
        <ele>295.665896</ele>
        <time>2021-11-18T00:55:40.819Z</time>
      </trkpt>
      <trkpt lat="47.576906" lon="7.796519">
        <ele>295.283780</ele>
        <time>2021-11-18T00:55:41.785Z</time>
      </trkpt>
      <trkpt lat="47.576884" lon="7.796617">
        <ele>295.014850</ele>
        <time>2021-11-18T00:55:42.527Z</time>
      </trkpt>
      <trkpt lat="47.576845" lon="7.796669">
        <ele>294.812385</ele>
        <time>2021-11-18T00:55:43.080Z</time>
      </trkpt>
      <trkpt lat="47.576565" lon="7.796902">
        <ele>293.573010</ele>
        <time>2021-11-18T00:55:46.445Z</time>
      </trkpt>
      <trkpt lat="47.576087" lon="7.797118">
        <ele>292.708370</ele>
        <time>2021-11-18T00:55:51.959Z</time>
      </trkpt>
      <trkpt lat="47.575978" lon="7.797131">
        <ele>292.567786</ele>
        <time>2021-11-18T00:55:53.135Z</time>
      </trkpt>
      <trkpt lat="47.575955" lon="7.797114">
        <ele>292.534745</ele>
        <time>2021-11-18T00:55:53.413Z</time>
      </trkpt>
      <trkpt lat="47.575928" lon="7.797105">
        <ele>292.499166</ele>
        <time>2021-11-18T00:55:53.727Z</time>
      </trkpt>
      <trkpt lat="47.575913" lon="7.797101">
        <ele>292.479573</ele>
        <time>2021-11-18T00:55:53.915Z</time>
      </trkpt>
      <trkpt lat="47.575798" lon="7.797141">
        <ele>292.327712</ele>
        <time>2021-11-18T00:55:55.288Z</time>
      </trkpt>
      <trkpt lat="47.575766" lon="7.797180">
        <ele>292.274452</ele>
        <time>2021-11-18T00:55:55.851Z</time>
      </trkpt>
      <trkpt lat="47.575752" lon="7.797206">
        <ele>292.245600</ele>
        <time>2021-11-18T00:55:56.142Z</time>
      </trkpt>
      <trkpt lat="47.575736" lon="7.797256">
        <ele>292.197605</ele>
        <time>2021-11-18T00:55:56.604Z</time>
      </trkpt>
      <trkpt lat="47.575731" lon="7.797285">
        <ele>292.171645</ele>
        <time>2021-11-18T00:55:56.826Z</time>
      </trkpt>
      <trkpt lat="47.575703" lon="7.797314">
        <ele>292.127731</ele>
        <time>2021-11-18T00:55:57.206Z</time>
      </trkpt>
      <trkpt lat="47.575578" lon="7.797427">
        <ele>291.939503</ele>
        <time>2021-11-18T00:55:58.940Z</time>
      </trkpt>
      <trkpt lat="47.575499" lon="7.797497">
        <ele>291.821178</ele>
        <time>2021-11-18T00:56:00.088Z</time>
      </trkpt>
      <trkpt lat="47.575391" lon="7.797551">
        <ele>291.674645</ele>
        <time>2021-11-18T00:56:01.490Z</time>
      </trkpt>
      <trkpt lat="47.575240" lon="7.797626">
        <ele>291.469910</ele>
        <time>2021-11-18T00:56:03.558Z</time>
      </trkpt>
      <trkpt lat="47.575135" lon="7.797677">
        <ele>291.327859</ele>
        <time>2021-11-18T00:56:05.027Z</time>
      </trkpt>
      <trkpt lat="47.574910" lon="7.797787">
        <ele>291.023269</ele>
        <time>2021-11-18T00:56:08.124Z</time>
      </trkpt>
      <trkpt lat="47.574296" lon="7.798050">
        <ele>290.625276</ele>
        <time>2021-11-18T00:56:16.914Z</time>
      </trkpt>
      <trkpt lat="47.573813" lon="7.798212">
        <ele>290.360218</ele>
        <time>2021-11-18T00:56:23.398Z</time>
      </trkpt>
      <trkpt lat="47.573410" lon="7.798344">
        <ele>290.139312</ele>
        <time>2021-11-18T00:56:28.781Z</time>
      </trkpt>
      <trkpt lat="47.573055" lon="7.798459">
        <ele>289.934739</ele>
        <time>2021-11-18T00:56:33.453Z</time>
      </trkpt>
      <trkpt lat="47.572628" lon="7.798599">
        <ele>289.582475</ele>
        <time>2021-11-18T00:56:39.109Z</time>
      </trkpt>
      <trkpt lat="47.572527" lon="7.798632">
        <ele>289.499166</ele>
        <time>2021-11-18T00:56:40.418Z</time>
      </trkpt>
      <trkpt lat="47.572308" lon="7.798703">
        <ele>289.318590</ele>
        <time>2021-11-18T00:56:43.366Z</time>
      </trkpt>
      <trkpt lat="47.571985" lon="7.798809">
        <ele>289.052112</ele>
        <time>2021-11-18T00:56:47.607Z</time>
      </trkpt>
      <trkpt lat="47.571921" lon="7.798830">
        <ele>288.999311</ele>
        <time>2021-11-18T00:56:48.385Z</time>
      </trkpt>
      <trkpt lat="47.571202" lon="7.799089">
        <ele>288.398123</ele>
        <time>2021-11-18T00:56:57.226Z</time>
      </trkpt>
      <trkpt lat="47.569912" lon="7.799564">
        <ele>287.278277</ele>
        <time>2021-11-18T00:57:13.995Z</time>
      </trkpt>
      <trkpt lat="47.569327" lon="7.799762">
        <ele>286.899390</ele>
        <time>2021-11-18T00:57:21.444Z</time>
      </trkpt>
      <trkpt lat="47.569185" lon="7.799810">
        <ele>286.844883</ele>
        <time>2021-11-18T00:57:23.480Z</time>
      </trkpt>
      <trkpt lat="47.568384" lon="7.800059">
        <ele>286.538591</ele>
        <time>2021-11-18T00:57:35.024Z</time>
      </trkpt>
      <trkpt lat="47.568315" lon="7.800179">
        <ele>286.498780</ele>
        <time>2021-11-18T00:57:36.439Z</time>
      </trkpt>
      <trkpt lat="47.568185" lon="7.800003">
        <ele>286.432886</ele>
        <time>2021-11-18T00:57:39.304Z</time>
      </trkpt>
      <trkpt lat="47.567987" lon="7.799745">
        <ele>286.334220</ele>
        <time>2021-11-18T00:57:42.947Z</time>
      </trkpt>
      <trkpt lat="47.567927" lon="7.799668">
        <ele>286.279148</ele>
        <time>2021-11-18T00:57:44.152Z</time>
      </trkpt>
      <trkpt lat="47.567788" lon="7.799488">
        <ele>286.133780</ele>
        <time>2021-11-18T00:57:46.519Z</time>
      </trkpt>
      <trkpt lat="47.567386" lon="7.798946">
        <ele>285.705787</ele>
        <time>2021-11-18T00:57:53.441Z</time>
      </trkpt>
      <trkpt lat="47.567213" lon="7.798707">
        <ele>285.519530</ele>
        <time>2021-11-18T00:57:56.319Z</time>
      </trkpt>
      <trkpt lat="47.567200" lon="7.798690">
        <ele>285.505876</ele>
        <time>2021-11-18T00:57:56.517Z</time>
      </trkpt>
      <trkpt lat="47.567008" lon="7.798425">
        <ele>285.299253</ele>
        <time>2021-11-18T00:57:59.834Z</time>
      </trkpt>
      <trkpt lat="47.566478" lon="7.797694">
        <ele>284.646447</ele>
        <time>2021-11-18T00:58:08.625Z</time>
      </trkpt>
      <trkpt lat="47.566034" lon="7.797091">
        <ele>283.956741</ele>
        <time>2021-11-18T00:58:15.647Z</time>
      </trkpt>
      <trkpt lat="47.565783" lon="7.796749">
        <ele>283.566255</ele>
        <time>2021-11-18T00:58:19.647Z</time>
      </trkpt>
      <trkpt lat="47.565062" lon="7.795783">
        <ele>282.563589</ele>
        <time>2021-11-18T00:58:31.661Z</time>
      </trkpt>
      <trkpt lat="47.564953" lon="7.795641">
        <ele>282.443524</ele>
        <time>2021-11-18T00:58:33.523Z</time>
      </trkpt>
      <trkpt lat="47.564352" lon="7.794822">
        <ele>281.768056</ele>
        <time>2021-11-18T00:58:43.854Z</time>
      </trkpt>
      <trkpt lat="47.563816" lon="7.794115">
        <ele>281.248990</ele>
        <time>2021-11-18T00:58:52.768Z</time>
      </trkpt>
      <trkpt lat="47.563536" lon="7.793741">
        <ele>281.060457</ele>
        <time>2021-11-18T00:58:57.571Z</time>
      </trkpt>
      <trkpt lat="47.563214" lon="7.793312">
        <ele>280.843893</ele>
        <time>2021-11-18T00:59:03.079Z</time>
      </trkpt>
      <trkpt lat="47.562862" lon="7.792861">
        <ele>280.611162</ele>
        <time>2021-11-18T00:59:09.279Z</time>
      </trkpt>
      <trkpt lat="47.562390" lon="7.792229">
        <ele>280.583865</ele>
        <time>2021-11-18T00:59:19.080Z</time>
      </trkpt>
      <trkpt lat="47.562130" lon="7.791878">
        <ele>280.708227</ele>
        <time>2021-11-18T00:59:24.887Z</time>
      </trkpt>
      <trkpt lat="47.561593" lon="7.791131">
        <ele>280.968656</ele>
        <time>2021-11-18T00:59:37.579Z</time>
      </trkpt>
      <trkpt lat="47.561363" lon="7.790838">
        <ele>281.075902</ele>
        <time>2021-11-18T00:59:42.598Z</time>
      </trkpt>
      <trkpt lat="47.561126" lon="7.790525">
        <ele>281.063307</ele>
        <time>2021-11-18T00:59:47.607Z</time>
      </trkpt>
      <trkpt lat="47.560580" lon="7.789953">
        <ele>280.967192</ele>
        <time>2021-11-18T00:59:57.665Z</time>
      </trkpt>
      <trkpt lat="47.560493" lon="7.789865">
        <ele>280.952051</ele>
        <time>2021-11-18T00:59:59.130Z</time>
      </trkpt>
      <trkpt lat="47.559770" lon="7.789125">
        <ele>280.727691</ele>
        <time>2021-11-18T01:00:11.058Z</time>
      </trkpt>
      <trkpt lat="47.559689" lon="7.789033">
        <ele>280.617777</ele>
        <time>2021-11-18T01:00:12.389Z</time>
      </trkpt>
      <trkpt lat="47.559136" lon="7.788426">
        <ele>279.876603</ele>
        <time>2021-11-18T01:00:20.859Z</time>
      </trkpt>
      <trkpt lat="47.559038" lon="7.788318">
        <ele>279.745069</ele>
        <time>2021-11-18T01:00:22.267Z</time>
      </trkpt>
      <trkpt lat="47.558938" lon="7.788209">
        <ele>279.611370</ele>
        <time>2021-11-18T01:00:23.833Z</time>
      </trkpt>
      <trkpt lat="47.558870" lon="7.788106">
        <ele>279.506645</ele>
        <time>2021-11-18T01:00:25.106Z</time>
      </trkpt>
      <trkpt lat="47.558737" lon="7.787923">
        <ele>279.311176</ele>
        <time>2021-11-18T01:00:27.189Z</time>
      </trkpt>
      <trkpt lat="47.558569" lon="7.787725">
        <ele>279.079990</ele>
        <time>2021-11-18T01:00:29.843Z</time>
      </trkpt>
      <trkpt lat="47.558519" lon="7.787666">
        <ele>279.011153</ele>
        <time>2021-11-18T01:00:30.532Z</time>
      </trkpt>
      <trkpt lat="47.558139" lon="7.787200">
        <ele>277.573134</ele>
        <time>2021-11-18T01:00:36.069Z</time>
      </trkpt>
      <trkpt lat="47.558113" lon="7.787162">
        <ele>277.449647</ele>
        <time>2021-11-18T01:00:36.469Z</time>
      </trkpt>
      <trkpt lat="47.558016" lon="7.786910">
        <ele>276.787620</ele>
        <time>2021-11-18T01:00:38.526Z</time>
      </trkpt>
      <trkpt lat="47.557963" lon="7.786759">
        <ele>276.399221</ele>
        <time>2021-11-18T01:00:39.693Z</time>
      </trkpt>
      <trkpt lat="47.557910" lon="7.786611">
        <ele>276.016882</ele>
        <time>2021-11-18T01:00:40.864Z</time>
      </trkpt>
      <trkpt lat="47.557893" lon="7.786568">
        <ele>275.903158</ele>
        <time>2021-11-18T01:00:41.209Z</time>
      </trkpt>
      <trkpt lat="47.557859" lon="7.786519">
        <ele>275.742779</ele>
        <time>2021-11-18T01:00:41.676Z</time>
      </trkpt>
      <trkpt lat="47.557823" lon="7.786486">
        <ele>275.599636</ele>
        <time>2021-11-18T01:00:42.082Z</time>
      </trkpt>
      <trkpt lat="47.557711" lon="7.786536">
        <ele>275.204095</ele>
        <time>2021-11-18T01:00:43.220Z</time>
      </trkpt>
      <trkpt lat="47.557562" lon="7.786575">
        <ele>274.692452</ele>
        <time>2021-11-18T01:00:44.685Z</time>
      </trkpt>
      <trkpt lat="47.557490" lon="7.786586">
        <ele>274.447694</ele>
        <time>2021-11-18T01:00:45.377Z</time>
      </trkpt>
      <trkpt lat="47.557180" lon="7.786638">
        <ele>273.392736</ele>
        <time>2021-11-18T01:00:48.320Z</time>
      </trkpt>
      <trkpt lat="47.557118" lon="7.786638">
        <ele>273.183084</ele>
        <time>2021-11-18T01:00:48.901Z</time>
      </trkpt>
      <trkpt lat="47.557035" lon="7.786628">
        <ele>272.901494</ele>
        <time>2021-11-18T01:00:49.678Z</time>
      </trkpt>
      <trkpt lat="47.556958" lon="7.786609">
        <ele>272.638330</ele>
        <time>2021-11-18T01:00:50.418Z</time>
      </trkpt>
      <trkpt lat="47.556914" lon="7.786662">
        <ele>272.447417</ele>
        <time>2021-11-18T01:00:50.956Z</time>
      </trkpt>
      <trkpt lat="47.556883" lon="7.786718">
        <ele>272.282846</ele>
        <time>2021-11-18T01:00:51.411Z</time>
      </trkpt>
      <trkpt lat="47.556812" lon="7.787001">
        <ele>271.596831</ele>
        <time>2021-11-18T01:00:53.358Z</time>
      </trkpt>
      <trkpt lat="47.556783" lon="7.787207">
        <ele>271.118692</ele>
        <time>2021-11-18T01:00:54.720Z</time>
      </trkpt>
      <trkpt lat="47.556658" lon="7.787468">
        <ele>270.391500</ele>
        <time>2021-11-18T01:00:56.804Z</time>
      </trkpt>
      <trkpt lat="47.556539" lon="7.787710">
        <ele>269.711151</ele>
        <time>2021-11-18T01:00:58.774Z</time>
      </trkpt>
      <trkpt lat="47.556357" lon="7.788058">
        <ele>268.710794</ele>
        <time>2021-11-18T01:01:01.741Z</time>
      </trkpt>
      <trkpt lat="47.556249" lon="7.788270">
        <ele>268.107258</ele>
        <time>2021-11-18T01:01:03.560Z</time>
      </trkpt>
      <trkpt lat="47.556137" lon="7.788488">
        <ele>267.484721</ele>
        <time>2021-11-18T01:01:05.468Z</time>
      </trkpt>
      <trkpt lat="47.556111" lon="7.788537">
        <ele>267.343092</ele>
        <time>2021-11-18T01:01:05.893Z</time>
      </trkpt>
      <trkpt lat="47.556069" lon="7.788614">
        <ele>267.118133</ele>
        <time>2021-11-18T01:01:06.637Z</time>
      </trkpt>
      <trkpt lat="47.555936" lon="7.788828">
        <ele>266.887914</ele>
        <time>2021-11-18T01:01:08.881Z</time>
      </trkpt>
      <trkpt lat="47.555085" lon="7.789685">
        <ele>268.257726</ele>
        <time>2021-11-18T01:01:51.213Z</time>
      </trkpt>
      <trkpt lat="47.555062" lon="7.789726">
        <ele>268.305628</ele>
        <time>2021-11-18T01:01:52.937Z</time>
      </trkpt>
      <trkpt lat="47.555052" lon="7.789771">
        <ele>268.348194</ele>
        <time>2021-11-18T01:01:54.390Z</time>
      </trkpt>
      <trkpt lat="47.555031" lon="7.789894">
        <ele>268.462186</ele>
        <time>2021-11-18T01:01:58.620Z</time>
      </trkpt>
      <trkpt lat="47.554999" lon="7.790090">
        <ele>268.643365</ele>
        <time>2021-11-18T01:02:05.772Z</time>
      </trkpt>
      <trkpt lat="47.554865" lon="7.790678">
        <ele>269.233332</ele>
        <time>2021-11-18T01:02:26.928Z</time>
      </trkpt>
      <trkpt lat="47.554858" lon="7.790696">
        <ele>269.266870</ele>
        <time>2021-11-18T01:02:27.926Z</time>
      </trkpt>
      <trkpt lat="47.554788" lon="7.790844">
        <ele>269.558633</ele>
        <time>2021-11-18T01:02:33.491Z</time>
      </trkpt>
      <trkpt lat="47.554756" lon="7.790897">
        <ele>269.673439</ele>
        <time>2021-11-18T01:02:36.057Z</time>
      </trkpt>
      <trkpt lat="47.554911" lon="7.791459">
        <ele>270.653561</ele>
        <time>2021-11-18T01:02:55.892Z</time>
      </trkpt>
      <trkpt lat="47.555027" lon="7.791948">
        <ele>271.490341</ele>
        <time>2021-11-18T01:03:12.131Z</time>
      </trkpt>
      <trkpt lat="47.555085" lon="7.792163">
        <ele>271.864135</ele>
        <time>2021-11-18T01:03:19.411Z</time>
      </trkpt>
      <trkpt lat="47.555127" lon="7.792307">
        <ele>272.117387</ele>
        <time>2021-11-18T01:03:23.810Z</time>
      </trkpt>
      <trkpt lat="47.555237" lon="7.792734">
        <ele>272.855239</ele>
        <time>2021-11-18T01:03:37.940Z</time>
      </trkpt>
      <trkpt lat="47.555277" lon="7.793131">
        <ele>273.495531</ele>
        <time>2021-11-18T01:03:50.081Z</time>
      </trkpt>
      <trkpt lat="47.555274" lon="7.793423">
        <ele>273.876861</ele>
        <time>2021-11-18T01:03:58.739Z</time>
      </trkpt>
      <trkpt lat="47.555281" lon="7.793955">
        <ele>274.571664</ele>
        <time>2021-11-18T01:04:14.262Z</time>
      </trkpt>
      <trkpt lat="47.555282" lon="7.794033">
        <ele>274.673532</ele>
        <time>2021-11-18T01:04:16.544Z</time>
      </trkpt>
      <trkpt lat="47.555288" lon="7.794318">
        <ele>275.045859</ele>
        <time>2021-11-18T01:04:25.058Z</time>
      </trkpt>
      <trkpt lat="47.555288" lon="7.794496">
        <ele>275.278286</ele>
        <time>2021-11-18T01:04:30.109Z</time>
      </trkpt>
      <trkpt lat="47.555141" lon="7.794516">
        <ele>275.563902</ele>
        <time>2021-11-18T01:04:36.509Z</time>
      </trkpt>
      <trkpt lat="47.555010" lon="7.794553">
        <ele>275.821928</ele>
        <time>2021-11-18T01:04:42.361Z</time>
      </trkpt>
      <trkpt lat="47.555010" lon="7.794553">
        <ele>275.821928</ele>
        <time>2021-11-18T01:04:42.423Z</time>
      </trkpt>
      <trkpt lat="47.554864" lon="7.794599">
        <ele>276.110728</ele>
        <time>2021-11-18T01:04:48.779Z</time>
      </trkpt>
      <trkpt lat="47.554495" lon="7.794723">
        <ele>276.842810</ele>
        <time>2021-11-18T01:05:06.182Z</time>
      </trkpt>
      <trkpt lat="47.554352" lon="7.794791">
        <ele>277.284841</ele>
        <time>2021-11-18T01:05:13.432Z</time>
      </trkpt>
      <trkpt lat="47.554254" lon="7.794823">
        <ele>277.633408</ele>
        <time>2021-11-18T01:05:18.171Z</time>
      </trkpt>
      <trkpt lat="47.554004" lon="7.794824">
        <ele>278.501777</ele>
        <time>2021-11-18T01:05:30.374Z</time>
      </trkpt>
      <trkpt lat="47.553930" lon="7.794811">
        <ele>278.760613</ele>
        <time>2021-11-18T01:05:34.235Z</time>
      </trkpt>
      <trkpt lat="47.553883" lon="7.794947">
        <ele>279.118795</ele>
        <time>2021-11-18T01:05:37.644Z</time>
      </trkpt>
      <trkpt lat="47.553854" lon="7.795042">
        <ele>279.363218</ele>
        <time>2021-11-18T01:05:39.993Z</time>
      </trkpt>
      <trkpt lat="47.553847" lon="7.795063">
        <ele>279.418124</ele>
        <time>2021-11-18T01:05:40.550Z</time>
      </trkpt>
      <trkpt lat="47.553724" lon="7.795281">
        <ele>280.084228</ele>
        <time>2021-11-18T01:05:47.618Z</time>
      </trkpt>
      <trkpt lat="47.553702" lon="7.795313">
        <ele>280.191311</ele>
        <time>2021-11-18T01:05:48.776Z</time>
      </trkpt>
      <trkpt lat="47.553628" lon="7.795414">
        <ele>280.540777</ele>
        <time>2021-11-18T01:05:52.183Z</time>
      </trkpt>
      <trkpt lat="47.553580" lon="7.795460">
        <ele>280.739337</ele>
        <time>2021-11-18T01:05:54.253Z</time>
      </trkpt>
      <trkpt lat="47.553379" lon="7.795607">
        <ele>281.517917</ele>
        <time>2021-11-18T01:06:02.399Z</time>
      </trkpt>
      <trkpt lat="47.553256" lon="7.795697">
        <ele>281.994409</ele>
        <time>2021-11-18T01:06:07.224Z</time>
      </trkpt>
      <trkpt lat="47.553218" lon="7.795662">
        <ele>282.149824</ele>
        <time>2021-11-18T01:06:08.414Z</time>
      </trkpt>
      <trkpt lat="47.553188" lon="7.795642">
        <ele>282.264089</ele>
        <time>2021-11-18T01:06:09.350Z</time>
      </trkpt>
      <trkpt lat="47.553162" lon="7.795633">
        <ele>282.356831</ele>
        <time>2021-11-18T01:06:10.284Z</time>
      </trkpt>
      <trkpt lat="47.553139" lon="7.795630">
        <ele>282.437030</ele>
        <time>2021-11-18T01:06:10.968Z</time>
      </trkpt>
      <trkpt lat="47.552930" lon="7.795600">
        <ele>283.166382</ele>
        <time>2021-11-18T01:06:17.233Z</time>
      </trkpt>
      <trkpt lat="47.552899" lon="7.795863">
        <ele>283.958509</ele>
        <time>2021-11-18T01:06:22.523Z</time>
      </trkpt>
      <trkpt lat="47.552886" lon="7.795976">
        <ele>284.301470</ele>
        <time>2021-11-18T01:06:24.976Z</time>
      </trkpt>
      <trkpt lat="47.552817" lon="7.796239">
        <ele>285.145701</ele>
        <time>2021-11-18T01:06:31.048Z</time>
      </trkpt>
      <trkpt lat="47.552762" lon="7.796425">
        <ele>285.753263</ele>
        <time>2021-11-18T01:06:35.736Z</time>
      </trkpt>
      <trkpt lat="47.552493" lon="7.797048">
        <ele>287.966038</ele>
        <time>2021-11-18T01:06:52.612Z</time>
      </trkpt>
      <trkpt lat="47.552152" lon="7.797876">
        <ele>290.868145</ele>
        <time>2021-11-18T01:07:14.679Z</time>
      </trkpt>
      <trkpt lat="47.552084" lon="7.798083">
        <ele>291.453202</ele>
        <time>2021-11-18T01:07:20.218Z</time>
      </trkpt>
      <trkpt lat="47.551948" lon="7.798607">
        <ele>292.689560</ele>
        <time>2021-11-18T01:07:32.028Z</time>
      </trkpt>
      <trkpt lat="47.551805" lon="7.799326">
        <ele>294.340293</ele>
        <time>2021-11-18T01:07:45.915Z</time>
      </trkpt>
      <trkpt lat="47.551793" lon="7.799434">
        <ele>294.581337</ele>
        <time>2021-11-18T01:07:48.199Z</time>
      </trkpt>
      <trkpt lat="47.551754" lon="7.799766">
        <ele>295.323476</ele>
        <time>2021-11-18T01:07:54.550Z</time>
      </trkpt>
      <trkpt lat="47.551712" lon="7.800249">
        <ele>296.395955</ele>
        <time>2021-11-18T01:08:03.469Z</time>
      </trkpt>
      <trkpt lat="47.551704" lon="7.800451">
        <ele>296.841576</ele>
        <time>2021-11-18T01:08:06.655Z</time>
      </trkpt>
      <trkpt lat="47.551672" lon="7.801147">
        <ele>297.482275</ele>
        <time>2021-11-18T01:08:15.678Z</time>
      </trkpt>
      <trkpt lat="47.551669" lon="7.801438">
        <ele>297.696445</ele>
        <time>2021-11-18T01:08:20.257Z</time>
      </trkpt>
      <trkpt lat="47.551666" lon="7.801632">
        <ele>297.839246</ele>
        <time>2021-11-18T01:08:22.270Z</time>
      </trkpt>
      <trkpt lat="47.551669" lon="7.801853">
        <ele>298.001912</ele>
        <time>2021-11-18T01:08:25.528Z</time>
      </trkpt>
      <trkpt lat="47.551671" lon="7.802077">
        <ele>298.166766</ele>
        <time>2021-11-18T01:08:27.845Z</time>
      </trkpt>
      <trkpt lat="47.551679" lon="7.802228">
        <ele>298.278228</ele>
        <time>2021-11-18T01:08:28.964Z</time>
      </trkpt>
      <trkpt lat="47.551688" lon="7.802394">
        <ele>298.400780</ele>
        <time>2021-11-18T01:08:31.921Z</time>
      </trkpt>
      <trkpt lat="47.551700" lon="7.802648">
        <ele>298.588155</ele>
        <time>2021-11-18T01:08:34.201Z</time>
      </trkpt>
      <trkpt lat="47.551732" lon="7.803125">
        <ele>298.940906</ele>
        <time>2021-11-18T01:08:40.351Z</time>
      </trkpt>
      <trkpt lat="47.551744" lon="7.803277">
        <ele>299.046511</ele>
        <time>2021-11-18T01:08:41.559Z</time>
      </trkpt>
      <trkpt lat="47.551751" lon="7.803369">
        <ele>299.106623</ele>
        <time>2021-11-18T01:08:43.234Z</time>
      </trkpt>
      <trkpt lat="47.551692" lon="7.803510">
        <ele>299.214339</ele>
        <time>2021-11-18T01:08:46.821Z</time>
      </trkpt>
      <trkpt lat="47.551741" lon="7.804294">
        <ele>299.725557</ele>
        <time>2021-11-18T01:08:59.419Z</time>
      </trkpt>
      <trkpt lat="47.551744" lon="7.804473">
        <ele>299.841814</ele>
        <time>2021-11-18T01:09:02.454Z</time>
      </trkpt>
      <trkpt lat="47.551731" lon="7.804667">
        <ele>299.968395</ele>
        <time>2021-11-18T01:09:06.554Z</time>
      </trkpt>
      <trkpt lat="47.551709" lon="7.805000">
        <ele>300.185640</ele>
        <time>2021-11-18T01:09:11.094Z</time>
      </trkpt>
      <trkpt lat="47.551681" lon="7.805477">
        <ele>300.496518</ele>
        <time>2021-11-18T01:09:18.841Z</time>
      </trkpt>
      <trkpt lat="47.551671" lon="7.806117">
        <ele>300.732230</ele>
        <time>2021-11-18T01:09:28.930Z</time>
      </trkpt>
      <trkpt lat="47.551651" lon="7.806246">
        <ele>300.735882</ele>
        <time>2021-11-18T01:09:31.833Z</time>
      </trkpt>
      <trkpt lat="47.551895" lon="7.806278">
        <ele>300.745894</ele>
        <time>2021-11-18T01:09:35.358Z</time>
      </trkpt>
      <trkpt lat="47.552015" lon="7.806307">
        <ele>300.750864</ele>
        <time>2021-11-18T01:09:38.228Z</time>
      </trkpt>
      <trkpt lat="47.552068" lon="7.806445">
        <ele>300.755245</ele>
        <time>2021-11-18T01:09:39.685Z</time>
      </trkpt>
      <trkpt lat="47.552398" lon="7.808880">
        <ele>300.388350</ele>
        <time>2021-11-18T01:10:01.828Z</time>
      </trkpt>
      <trkpt lat="47.552566" lon="7.810386">
        <ele>299.725135</ele>
        <time>2021-11-18T01:10:14.839Z</time>
      </trkpt>
      <trkpt lat="47.552711" lon="7.812955">
        <ele>298.600759</ele>
        <time>2021-11-18T01:10:37.448Z</time>
      </trkpt>
      <trkpt lat="47.552844" lon="7.816432">
        <ele>297.418117</ele>
        <time>2021-11-18T01:11:07.941Z</time>
      </trkpt>
      <trkpt lat="47.552948" lon="7.819358">
        <ele>297.809167</ele>
        <time>2021-11-18T01:11:39.171Z</time>
      </trkpt>
      <trkpt lat="47.552896" lon="7.820699">
        <ele>298.358439</ele>
        <time>2021-11-18T01:11:55.255Z</time>
      </trkpt>
      <trkpt lat="47.552567" lon="7.824508">
        <ele>300.244160</ele>
        <time>2021-11-18T01:12:41.740Z</time>
      </trkpt>
      <trkpt lat="47.552491" lon="7.827227">
        <ele>301.763505</ele>
        <time>2021-11-18T01:13:13.479Z</time>
      </trkpt>
      <trkpt lat="47.552515" lon="7.828094">
        <ele>302.512949</ele>
        <time>2021-11-18T01:13:25.189Z</time>
      </trkpt>
      <trkpt lat="47.552477" lon="7.828294">
        <ele>302.692401</ele>
        <time>2021-11-18T01:13:27.806Z</time>
      </trkpt>
      <trkpt lat="47.552421" lon="7.828481">
        <ele>302.869095</ele>
        <time>2021-11-18T01:13:30.738Z</time>
      </trkpt>
      <trkpt lat="47.552404" lon="7.828582">
        <ele>302.958999</ele>
        <time>2021-11-18T01:13:32.422Z</time>
      </trkpt>
      <trkpt lat="47.552416" lon="7.828822">
        <ele>303.166851</ele>
        <time>2021-11-18T01:13:35.656Z</time>
      </trkpt>
      <trkpt lat="47.552554" lon="7.829266">
        <ele>303.728121</ele>
        <time>2021-11-18T01:13:43.008Z</time>
      </trkpt>
      <trkpt lat="47.552645" lon="7.830686">
        <ele>306.219156</ele>
        <time>2021-11-18T01:14:06.313Z</time>
      </trkpt>
      <trkpt lat="47.552690" lon="7.832598">
        <ele>309.755853</ele>
        <time>2021-11-18T01:14:41.790Z</time>
      </trkpt>
      <trkpt lat="47.552616" lon="7.832891">
        <ele>310.375724</ele>
        <time>2021-11-18T01:14:47.154Z</time>
      </trkpt>
      <trkpt lat="47.552556" lon="7.832977">
        <ele>310.620806</ele>
        <time>2021-11-18T01:14:49.886Z</time>
      </trkpt>
      <trkpt lat="47.552511" lon="7.833072">
        <ele>310.850775</ele>
        <time>2021-11-18T01:14:51.911Z</time>
      </trkpt>
      <trkpt lat="47.552467" lon="7.833198">
        <ele>311.131873</ele>
        <time>2021-11-18T01:14:54.313Z</time>
      </trkpt>
      <trkpt lat="47.552452" lon="7.833284">
        <ele>311.307873</ele>
        <time>2021-11-18T01:14:55.924Z</time>
      </trkpt>
      <trkpt lat="47.552696" lon="7.833789">
        <ele>312.538471</ele>
        <time>2021-11-18T01:15:06.956Z</time>
      </trkpt>
      <trkpt lat="47.552700" lon="7.833938">
        <ele>312.833935</ele>
        <time>2021-11-18T01:15:09.900Z</time>
      </trkpt>
      <trkpt lat="47.552714" lon="7.835010">
        <ele>314.417439</ele>
        <time>2021-11-18T01:15:28.377Z</time>
      </trkpt>
      <trkpt lat="47.552719" lon="7.836790">
        <ele>316.729768</ele>
        <time>2021-11-18T01:15:53.660Z</time>
      </trkpt>
      <trkpt lat="47.552697" lon="7.838068">
        <ele>318.042243</ele>
        <time>2021-11-18T01:16:11.378Z</time>
      </trkpt>
      <trkpt lat="47.552736" lon="7.838578">
        <ele>318.558313</ele>
        <time>2021-11-18T01:16:18.508Z</time>
      </trkpt>
      <trkpt lat="47.552802" lon="7.839009">
        <ele>319.002684</ele>
        <time>2021-11-18T01:16:24.652Z</time>
      </trkpt>
      <trkpt lat="47.552812" lon="7.839047">
        <ele>319.043694</ele>
        <time>2021-11-18T01:16:25.282Z</time>
      </trkpt>
      <trkpt lat="47.552939" lon="7.839526">
        <ele>319.563308</ele>
        <time>2021-11-18T01:16:32.486Z</time>
      </trkpt>
      <trkpt lat="47.553231" lon="7.841529">
        <ele>321.763047</ele>
        <time>2021-11-18T01:17:02.582Z</time>
      </trkpt>
      <trkpt lat="47.553216" lon="7.841849">
        <ele>322.107382</ele>
        <time>2021-11-18T01:17:07.092Z</time>
      </trkpt>
      <trkpt lat="47.553123" lon="7.842222">
        <ele>322.449828</ele>
        <time>2021-11-18T01:17:12.321Z</time>
      </trkpt>
      <trkpt lat="47.553133" lon="7.842431">
        <ele>322.543184</ele>
        <time>2021-11-18T01:17:15.451Z</time>
      </trkpt>
      <trkpt lat="47.552833" lon="7.842495">
        <ele>322.743281</ele>
        <time>2021-11-18T01:17:22.695Z</time>
      </trkpt>
      <trkpt lat="47.552380" lon="7.842592">
        <ele>323.045451</ele>
        <time>2021-11-18T01:17:33.202Z</time>
      </trkpt>
      <trkpt lat="47.551922" lon="7.842704">
        <ele>323.351905</ele>
        <time>2021-11-18T01:17:43.124Z</time>
      </trkpt>
      <trkpt lat="47.551668" lon="7.842770">
        <ele>323.522151</ele>
        <time>2021-11-18T01:17:48.678Z</time>
      </trkpt>
      <trkpt lat="47.551454" lon="7.842815">
        <ele>323.659803</ele>
        <time>2021-11-18T01:17:52.857Z</time>
      </trkpt>
      <trkpt lat="47.551243" lon="7.842849">
        <ele>323.791846</ele>
        <time>2021-11-18T01:17:56.847Z</time>
      </trkpt>
      <trkpt lat="47.549927" lon="7.842747">
        <ele>324.611684</ele>
        <time>2021-11-18T01:18:26.554Z</time>
      </trkpt>
      <trkpt lat="47.549582" lon="7.842702">
        <ele>325.121303</ele>
        <time>2021-11-18T01:18:35.472Z</time>
      </trkpt>
      <trkpt lat="47.549188" lon="7.842622">
        <ele>325.925123</ele>
        <time>2021-11-18T01:18:46.905Z</time>
      </trkpt>
      <trkpt lat="47.548105" lon="7.842284">
        <ele>328.162187</ele>
        <time>2021-11-18T01:19:19.973Z</time>
      </trkpt>
      <trkpt lat="47.547674" lon="7.842266">
        <ele>328.799930</ele>
        <time>2021-11-18T01:19:32.264Z</time>
      </trkpt>
      <trkpt lat="47.547549" lon="7.842268">
        <ele>328.968441</ele>
        <time>2021-11-18T01:19:35.461Z</time>
      </trkpt>
      <trkpt lat="47.547448" lon="7.842262">
        <ele>329.104699</ele>
        <time>2021-11-18T01:19:38.045Z</time>
      </trkpt>
      <trkpt lat="47.547354" lon="7.842839">
        <ele>329.644775</ele>
        <time>2021-11-18T01:19:48.059Z</time>
      </trkpt>
      <trkpt lat="47.547313" lon="7.843735">
        <ele>330.461899</ele>
        <time>2021-11-18T01:20:03.190Z</time>
      </trkpt>
      <trkpt lat="47.547295" lon="7.844722">
        <ele>331.310194</ele>
        <time>2021-11-18T01:20:18.545Z</time>
      </trkpt>
      <trkpt lat="47.547274" lon="7.845536">
        <ele>331.989898</ele>
        <time>2021-11-18T01:20:31.455Z</time>
      </trkpt>
      <trkpt lat="47.547167" lon="7.847862">
        <ele>334.604489</ele>
        <time>2021-11-18T01:21:14.244Z</time>
      </trkpt>
      <trkpt lat="47.547124" lon="7.848795">
        <ele>335.931470</ele>
        <time>2021-11-18T01:21:33.427Z</time>
      </trkpt>
      <trkpt lat="47.547143" lon="7.849985">
        <ele>337.423898</ele>
        <time>2021-11-18T01:21:56.822Z</time>
      </trkpt>
      <trkpt lat="47.547141" lon="7.850355">
        <ele>337.828816</ele>
        <time>2021-11-18T01:22:04.253Z</time>
      </trkpt>
      <trkpt lat="47.546945" lon="7.851719">
        <ele>339.354947</ele>
        <time>2021-11-18T01:22:29.064Z</time>
      </trkpt>
      <trkpt lat="47.546582" lon="7.856413">
        <ele>340.664253</ele>
        <time>2021-11-18T01:23:37.375Z</time>
      </trkpt>
      <trkpt lat="47.546537" lon="7.857497">
        <ele>340.858242</ele>
        <time>2021-11-18T01:23:52.683Z</time>
      </trkpt>
      <trkpt lat="47.546487" lon="7.859119">
        <ele>341.213766</ele>
        <time>2021-11-18T01:24:16.131Z</time>
      </trkpt>
      <trkpt lat="47.546526" lon="7.861665">
        <ele>341.284299</ele>
        <time>2021-11-18T01:24:53.305Z</time>
      </trkpt>
      <trkpt lat="47.546592" lon="7.863006">
        <ele>340.796722</ele>
        <time>2021-11-18T01:25:09.772Z</time>
      </trkpt>
      <trkpt lat="47.546877" lon="7.864345">
        <ele>339.210765</ele>
        <time>2021-11-18T01:25:24.941Z</time>
      </trkpt>
      <trkpt lat="47.546885" lon="7.864500">
        <ele>339.035166</ele>
        <time>2021-11-18T01:25:26.621Z</time>
      </trkpt>
      <trkpt lat="47.546894" lon="7.864837">
        <ele>338.654193</ele>
        <time>2021-11-18T01:25:30.100Z</time>
      </trkpt>
      <trkpt lat="47.546889" lon="7.865225">
        <ele>338.215828</ele>
        <time>2021-11-18T01:25:34.221Z</time>
      </trkpt>
      <trkpt lat="47.546819" lon="7.865489">
        <ele>337.861739</ele>
        <time>2021-11-18T01:25:37.299Z</time>
      </trkpt>
      <trkpt lat="47.546510" lon="7.865766">
        <ele>337.192039</ele>
        <time>2021-11-18T01:25:42.993Z</time>
      </trkpt>
      <trkpt lat="47.546327" lon="7.865959">
        <ele>336.775505</ele>
        <time>2021-11-18T01:25:46.325Z</time>
      </trkpt>
      <trkpt lat="47.546096" lon="7.866147">
        <ele>336.286789</ele>
        <time>2021-11-18T01:25:50.393Z</time>
      </trkpt>
      <trkpt lat="47.545240" lon="7.866887">
        <ele>334.872145</ele>
        <time>2021-11-18T01:26:06.811Z</time>
      </trkpt>
      <trkpt lat="47.545160" lon="7.866985">
        <ele>334.872145</ele>
        <time>2021-11-18T01:26:08.518Z</time>
      </trkpt>
      <trkpt lat="47.545003" lon="7.867278">
        <ele>334.872145</ele>
        <time>2021-11-18T01:26:13.092Z</time>
      </trkpt>
      <trkpt lat="47.544663" lon="7.867602">
        <ele>334.872145</ele>
        <time>2021-11-18T01:26:20.511Z</time>
      </trkpt>
    </trkseg>
  </trk>
</gpx>